Date StartTime U_cm/s V_cm/s W_cm/s Ustd_cm/s Vstd_cm/s Wstd_cm/s Uvar_(cm/s)^2 Vvar_(cm/s)^2 Wvar_(cm/s)^2 KE_(m/s)^2 TurbulentKE_(m/s)^2 HorizWindSpeed_cm/s FrictionSpeec_cm/s DragCoef SpeedOfSound_m/s SonicTemperature_C Pressure_mb 
10/14/2013  00:00:00      -59.529      -19.930      -16.502        9.197        7.755        7.484       84.579       60.143       56.007        0.221        0.010       62.777        4.030        0.004      334.759        4.946      865.795
10/14/2013  00:01:00      -74.972      -12.230      -19.669       10.866        9.043        7.038      118.059       81.768       49.530        0.320        0.012       75.963        6.380        0.007      334.671        4.797      865.790
10/14/2013  00:02:00      -44.329      -26.829       -7.591       26.694       18.284       11.320      712.561      334.308      128.146        0.196        0.059       51.816        5.412        0.011      334.606        4.690      865.781
10/14/2013  00:03:00      -55.213      -38.032      -14.893       18.671       18.251       14.149      348.609      333.097      200.194        0.280        0.044       67.044        8.150        0.015      334.613        4.701      865.776
10/14/2013  00:04:00      -51.431      -38.511       -5.242       23.400       23.121       18.756      547.538      534.580      351.794        0.279        0.072       64.252        9.931        0.024      334.693        4.833      865.780
10/14/2013  00:05:00      -42.427      -23.284       -5.402       24.542       13.790       12.742      602.322      190.150      162.363        0.166        0.048       48.396        9.207        0.036      334.662        4.784      865.788
10/14/2013  00:06:00      -82.400      -28.449       -0.766       25.295       21.238       13.351      639.819      451.072      178.251        0.443        0.063       87.173        9.168        0.011      334.667        4.790      865.786
10/14/2013  00:07:00     -101.460      -33.279      -11.164       20.476       26.859       18.428      419.273      721.391      339.602        0.650        0.074      106.778       13.797        0.017      334.629        4.725      865.783
10/14/2013  00:08:00     -107.238      -35.557       -7.172       22.935       28.199       16.727      526.006      795.207      279.802        0.721        0.080      112.980       13.204        0.014      334.604        4.687      865.780
10/14/2013  00:09:00     -108.520      -25.609      -10.519       37.928       36.011       18.775     1438.502     1296.767      352.518        0.781        0.154      111.501       19.869        0.032      334.574        4.636      865.780
10/14/2013  00:10:00      -76.867        4.507        7.940       39.631       27.934       21.105     1570.577      780.302      445.413        0.439        0.140       76.999       18.762        0.059      334.449        4.431      865.788
10/14/2013  00:11:00      -91.749       -5.963       -9.654       48.084       26.506       19.781     2312.079      702.550      391.278        0.598        0.170       91.942       23.404        0.065      334.422        4.384      865.793
10/14/2013  00:12:00      -92.414      -15.779       -5.307       35.732       30.604       17.519     1276.745      936.592      306.914        0.567        0.126       93.751       18.025        0.037      334.515        4.538      865.809
10/14/2013  00:13:00      -63.751       -9.691       -5.496       41.151       26.863       18.419     1693.383      721.633      339.259        0.347        0.138       64.483       17.009        0.070      334.440        4.414      865.820
10/14/2013  00:14:00     -107.386      -16.441       -9.892       33.976       32.476       17.776     1154.396     1054.708      315.992        0.721        0.126      108.637       13.866        0.016      334.433        4.403      865.825
10/14/2013  00:15:00      -90.294      -17.894       -7.482       33.473       27.811       19.918     1120.413      773.436      396.711        0.541        0.115       92.050       20.141        0.048      334.438        4.410      865.825
10/14/2013  00:16:00      -84.186      -21.729       -4.199       45.414       22.828       16.791     2062.387      521.096      281.948        0.522        0.143       86.945       20.390        0.055      334.457        4.443      865.839
10/14/2013  00:17:00     -103.016      -28.030       -6.546       30.228       32.284       16.064      913.726     1042.275      258.058        0.683        0.111      106.761       10.632        0.010      334.436        4.409      865.853
10/14/2013  00:18:00      -60.568      -34.063        1.021       47.485       25.417       18.096     2254.786      646.000      327.451        0.403        0.161       69.490       21.480        0.096      334.384        4.323      865.859
10/14/2013  00:19:00      -71.016      -11.246       -5.955       30.653       26.117       22.807      939.623      682.110      520.176        0.367        0.107       71.901       13.629        0.036      334.448        4.428      865.870
10/14/2013  00:20:00      -66.205      -19.490       -7.799       35.855       31.234       15.076     1285.580      975.532      227.299        0.366        0.124       69.014        4.702        0.005      334.433        4.402      865.876
10/14/2013  00:21:00     -100.537      -16.651      -17.343       22.519       23.122       15.835      507.107      534.634      250.734        0.599        0.065      101.907       11.055        0.012      334.471        4.465      865.896
10/14/2013  00:22:00     -100.786      -19.766      -16.936       20.413       19.639       12.993      416.703      385.706      168.825        0.590        0.049      102.706        6.540        0.004      334.461        4.450      865.896
10/14/2013  00:23:00      -93.899      -23.650      -11.244       27.407       24.809       13.951      751.125      615.474      194.637        0.553        0.078       96.832       10.308        0.011      334.472        4.467      865.894
10/14/2013  00:24:00      -19.389      -21.693        0.601       23.826       24.090       18.015      567.695      580.328      324.533        0.116        0.074       29.095       16.811        0.334      334.492        4.501      865.884
10/14/2013  00:25:00      -59.099      -26.970       -7.557       27.043       18.529       12.493      731.316      343.306      156.075        0.275        0.062       64.962       11.307        0.030      334.557        4.607      865.879
10/14/2013  00:26:00      -80.043      -27.615       -4.858       30.410       16.618       14.286      924.793      276.159      204.085        0.430        0.070       84.672       13.000        0.024      334.535        4.571      865.876
10/14/2013  00:27:00      -77.405      -35.435       -6.072       17.563       23.565       13.093      308.473      555.298      171.439        0.416        0.052       85.130        7.446        0.008      334.430        4.397      865.870
10/14/2013  00:28:00      -81.760      -12.580       -7.066       18.956       15.363       12.360      359.326      236.024      152.773        0.382        0.037       82.723        8.135        0.010      334.440        4.414      865.861
10/14/2013  00:29:00      -94.302      -15.114       -4.403       19.607       17.375       13.378      384.415      301.898      178.976        0.500        0.043       95.506       11.023        0.013      334.449        4.429      865.871
10/14/2013  00:30:00      -84.434      -34.734       -4.571       23.396       18.872       12.090      547.354      356.137      146.158        0.470        0.052       91.299        9.215        0.010      334.486        4.489      865.876
10/14/2013  00:31:00      -97.459      -32.964       -8.818       30.351       22.463       16.935      921.187      504.578      286.778        0.619        0.086      102.883       19.400        0.036      334.450        4.431      865.873
10/14/2013  00:32:00      -79.980      -45.297       -4.854       17.040       16.154       11.317      290.358      260.937      128.086        0.458        0.034       91.916        6.923        0.006      334.474        4.471      865.879
10/14/2013  00:33:00      -72.434      -64.902       -3.760       16.497       26.245       15.645      272.164      688.798      244.779        0.534        0.060       97.257        6.905        0.005      334.592        4.667      865.879
10/14/2013  00:34:00      -43.172      -45.699       -7.024       21.538       16.341       12.797      463.887      267.025      163.752        0.245        0.045       62.867       11.859        0.036      334.563        4.616      865.888
10/14/2013  00:35:00      -67.864      -43.352       -9.074       23.126       17.554       16.990      534.803      308.134      288.657        0.385        0.057       80.529       15.672        0.038      334.568        4.626      865.907
10/14/2013  00:36:00      -93.901      -45.964      -18.803       18.334       22.550       15.648      336.126      508.489      244.850        0.619        0.054      104.547       11.627        0.012      334.493        4.503      865.908
10/14/2013  00:37:00     -103.020      -21.968      -17.119       13.897       15.541       14.264      193.138      241.517      203.474        0.601        0.032      105.336        6.257        0.004      334.452        4.434      865.907
10/14/2013  00:38:00     -100.110      -19.444      -16.052       19.659       14.924       15.839      386.478      222.725      250.869        0.576        0.043      101.981       10.448        0.010      334.423        4.386      865.909
10/14/2013  00:39:00      -63.377      -29.219       -5.635       19.692       23.682       15.661      387.781      560.858      245.264        0.305        0.060       69.788       13.763        0.039      334.386        4.325      865.923
10/14/2013  00:40:00      -51.850      -16.696      -13.757       20.850       19.955       10.170      434.738      398.188      103.420        0.205        0.047       54.472        6.965        0.016      334.443        4.420      865.936
10/14/2013  00:41:00      -70.420      -12.592       -7.838       22.567       20.059       11.313      509.260      402.366      127.995        0.311        0.052       71.537       10.623        0.022      334.484        4.488      865.938
10/14/2013  00:42:00      -38.710      -19.891      -13.490       23.268       15.323       11.583      541.402      234.806      134.177        0.149        0.046       43.522        4.051        0.009      334.511        4.532      865.953
10/14/2013  00:43:00      -40.857      -18.407       -5.152       14.467       16.584       10.499      209.294      275.039      110.219        0.131        0.030       44.813        8.797        0.039      334.508        4.527      865.967
10/14/2013  00:44:00      -19.941      -34.321        2.672       28.935       25.167       17.281      837.257      633.355      298.616        0.168        0.088       39.693       16.359        0.170      334.518        4.544      865.979
10/14/2013  00:45:00      -27.660      -28.803        6.352       33.510       21.362       18.221     1122.943      456.332      332.022        0.177        0.096       39.933       19.681        0.243      334.464        4.454      865.996
10/14/2013  00:46:00      -74.178      -40.298       -7.998       21.116       19.760       10.837      445.904      390.441      117.436        0.407        0.048       84.418        8.130        0.009      334.452        4.433      866.015
10/14/2013  00:47:00      -96.852      -36.748      -10.904       17.027        8.521        9.801      289.932       72.601       96.069        0.565        0.023      103.590        5.144        0.002      334.489        4.497      866.032
10/14/2013  00:48:00      -98.344      -31.825       -8.870       18.013       13.859       10.460      324.459      192.072      109.409        0.569        0.031      103.365        5.312        0.003      334.497        4.509      866.028
10/14/2013  00:49:00      -79.515      -41.245       -6.546       13.095       14.049        8.075      171.487      197.372       65.203        0.425        0.022       89.575        5.006        0.003      334.533        4.567      866.037
10/14/2013  00:50:00      -79.120      -33.091      -10.581        9.375        9.994        8.617       87.884       99.883       74.260        0.386        0.013       85.761        3.445        0.002      334.530        4.564      866.055
10/14/2013  00:51:00      -62.888      -41.727       -9.319       14.744       12.934       11.440      217.385      167.278      130.881        0.315        0.026       75.472        8.756        0.013      334.585        4.654      866.072
10/14/2013  00:52:00      -58.673      -33.930       -3.280       11.671       11.285        8.335      136.210      127.340       69.464        0.247        0.017       67.778        7.385        0.012      334.531        4.564      866.083
10/14/2013  00:53:00      -51.091      -29.486        2.211       31.756       16.048       12.778     1008.420      257.537      163.276        0.246        0.071       58.989       16.530        0.079      334.496        4.507      866.089
10/14/2013  00:54:00       -2.414      -21.757        5.896       22.582       13.952        9.156      509.954      194.653       83.834        0.065        0.039       21.891        4.079        0.035      334.528        4.561      866.101
10/14/2013  00:55:00      -56.508      -51.040        0.198       24.413       17.571       14.170      596.011      308.729      200.797        0.345        0.055       76.146       11.666        0.023      334.480        4.481      866.113
10/14/2013  00:56:00      -81.950      -47.308       -0.400       29.147       21.781       17.390      849.568      474.410      302.395        0.529        0.081       94.625       16.181        0.029      334.451        4.431      866.124
10/14/2013  00:57:00      -54.334      -38.897        4.232       38.615       21.463       17.366     1491.117      460.645      301.581        0.337        0.113       66.822       19.292        0.083      334.413        4.370      866.127
10/14/2013  00:58:00      -74.188      -34.309       -5.574       14.858       11.045       10.949      220.757      121.983      119.870        0.359        0.023       81.737        7.227        0.008      334.383        4.320      866.130
10/14/2013  00:59:00      -76.602      -39.050      -10.198        9.465       11.851        8.565       89.591      140.449       73.367        0.390        0.015       85.981        6.235        0.005      334.394        4.337      866.129
10/14/2013  01:00:00      -79.061      -39.171       -9.879       16.729       11.730        9.191      279.844      137.601       84.472        0.419        0.025       88.233        5.180        0.003      334.399        4.348      866.127
10/14/2013  01:01:00     -104.022      -22.934      -13.292        9.613       10.878        9.366       92.419      118.341       87.721        0.591        0.015      106.520        5.459        0.003      334.358        4.277      866.129
10/14/2013  01:02:00     -107.486      -37.973      -12.559       10.099       17.263        9.810      101.996      298.020       96.238        0.682        0.025      113.996        5.586        0.002      334.343        4.254      866.129
10/14/2013  01:03:00     -102.747      -65.935      -10.112       15.916       18.600       13.953      253.328      345.949      194.694        0.790        0.040      122.083        7.176        0.003      334.292        4.170      866.130
10/14/2013  01:04:00     -106.632      -40.328      -10.216       21.038       16.132       13.042      442.607      260.254      170.097        0.699        0.044      114.003        8.199        0.005      334.242        4.088      866.138
10/14/2013  01:05:00     -107.438      -26.304       -5.630       30.411       16.796       16.659      924.848      282.107      277.517        0.688        0.074      110.611       16.210        0.021      334.169        3.964      866.150
10/14/2013  01:06:00     -116.347      -28.340      -16.840       10.896       11.768        9.528      118.721      138.480       90.782        0.749        0.017      119.749        4.574        0.001      334.184        3.989      866.161
10/14/2013  01:07:00     -103.681      -51.360      -12.032       11.026       10.005        8.686      121.579      100.092       75.440        0.691        0.015      115.705        5.233        0.002      334.226        4.059      866.166
10/14/2013  01:08:00      -92.289      -49.738      -14.021       15.336       15.751       10.011      235.191      248.099      100.227        0.589        0.029      104.839        5.131        0.002      334.189        3.997      866.167
10/14/2013  01:09:00      -86.851      -33.308      -16.241       20.545       15.924       16.073      422.091      253.576      258.347        0.492        0.047       93.019        6.611        0.005      334.181        3.984      866.166
10/14/2013  01:10:00      -69.448      -22.615       -8.903       30.655       25.605       14.040      939.723      655.598      197.118        0.360        0.090       73.037        9.396        0.017      334.162        3.952      866.161
10/14/2013  01:11:00      -56.496      -19.946       -4.676       23.863       21.940       12.360      569.443      481.354      152.766        0.241        0.060       59.914        9.333        0.024      334.162        3.953      866.154
10/14/2013  01:12:00      -57.687       -6.700       -4.821       22.638       26.129       14.765      512.463      682.713      218.000        0.240        0.071       58.075       12.945        0.050      334.183        3.987      866.152
10/14/2013  01:13:00      -76.088      -15.064       -9.913       16.617       21.672       15.175      276.125      469.696      230.275        0.355        0.049       77.565       11.476        0.022      334.239        4.080      866.155
10/14/2013  01:14:00      -65.324      -25.788       -5.653       34.235       17.365       17.800     1172.058      301.535      316.831        0.338        0.090       70.230       18.247        0.068      334.200        4.017      866.164
10/14/2013  01:15:00      -91.940      -40.737      -10.994       16.562       30.623       13.749      274.301      937.753      189.045        0.582        0.070      100.561        8.310        0.007      334.251        4.101      866.163
10/14/2013  01:16:00      -83.813      -39.167       -8.038       27.472       31.989       15.591      754.712     1023.327      243.087        0.532        0.101       92.513       11.947        0.017      334.276        4.142      866.163
10/14/2013  01:17:00      -59.816      -32.812       -7.984       35.954       25.721       17.598     1292.668      661.568      309.703        0.349        0.113       68.225       13.556        0.039      334.192        4.002      866.170
10/14/2013  01:18:00      -67.894      -24.239       -6.029       24.377       22.576       16.283      594.249      509.698      265.149        0.330        0.068       72.092       13.277        0.034      334.178        3.980      866.170
10/14/2013  01:19:00      -54.571      -12.727      -14.987       37.591       21.249       19.735     1413.100      451.524      389.465        0.281        0.113       56.035       12.309        0.048      334.215        4.040      866.177
10/14/2013  01:20:00      -62.629      -11.605       -0.790       18.183       19.450       16.171      330.613      378.294      261.494        0.251        0.049       63.695        6.996        0.012      334.212        4.036      866.178
10/14/2013  01:21:00       -7.778      -14.475        3.486       19.759        9.125       10.251      390.413       83.273      105.086        0.043        0.029       16.432        8.210        0.250      334.098        3.848      866.181
10/14/2013  01:22:00       -2.633      -39.256       -3.170       19.466       29.675       15.470      378.941      880.629      239.328        0.153        0.075       39.344       13.493        0.118      334.174        3.972      866.183
10/14/2013  01:23:00      -21.866      -76.471      -14.855       20.257       15.053       11.917      410.341      226.595      142.021        0.366        0.039       79.536        7.380        0.009      334.226        4.060      866.178
10/14/2013  01:24:00      -78.425      -35.343       -8.558       31.790       22.273       14.967     1010.582      496.103      224.005        0.460        0.087       86.021       10.706        0.015      334.132        3.903      866.175
10/14/2013  01:25:00      -83.945      -40.784       -9.776       12.802       11.230        9.523      163.888      126.114       90.679        0.459        0.019       93.328        5.586        0.004      334.085        3.825      866.174
10/14/2013  01:26:00      -92.189      -31.277       -8.708       19.930       19.290       12.480      397.207      372.089      155.745        0.524        0.046       97.350       11.365        0.014      334.073        3.805      866.177
10/14/2013  01:27:00      -85.678      -37.620       -8.157       19.058       17.655       13.695      363.213      311.700      187.553        0.484        0.043       93.574        9.428        0.010      334.185        3.989      866.182
10/14/2013  01:28:00      -49.808      -46.239       -2.126       24.095       19.192       14.674      580.563      368.347      215.322        0.289        0.058       67.963        7.877        0.013      334.174        3.972      866.192
10/14/2013  01:29:00      -22.774      -35.368       12.258       29.630       21.660       14.952      877.919      469.157      223.571        0.174        0.079       42.066       14.407        0.117      334.186        3.993      866.206
10/14/2013  01:30:00      -54.043      -48.086       -1.770       30.633       28.671       13.925      938.405      822.046      193.895        0.359        0.098       72.339       12.343        0.029      334.167        3.960      866.222
10/14/2013  01:31:00      -55.112      -27.072      -10.372       33.741       26.070       22.569     1138.464      679.661      509.348        0.310        0.116       61.402        8.155        0.018      334.152        3.937      866.231
10/14/2013  01:32:00     -103.983      -46.361       -7.553       40.942       40.463       26.759     1676.213     1637.253      716.069        0.852        0.201      113.850       16.546        0.021      334.006        3.694      866.235
10/14/2013  01:33:00     -113.186     -100.498      -10.239       36.510       37.082       24.121     1332.970     1375.105      581.816        1.315        0.164      151.364       25.468        0.028      333.922        3.555      866.239
10/14/2013  01:34:00      -98.154      -58.355       -4.158       40.853       34.586       17.707     1668.953     1196.196      313.533        0.812        0.159      114.191       15.819        0.019      333.952        3.605      866.234
10/14/2013  01:35:00     -102.316      -53.062       -6.884       30.361       23.151       22.314      921.783      535.955      497.927        0.764        0.098      115.257       18.139        0.025      333.921        3.552      866.241
10/14/2013  01:36:00      -84.525      -40.160      -10.419       20.283       15.943       11.464      411.405      254.171      131.412        0.483        0.040       93.581        8.616        0.008      333.919        3.550      866.244
10/14/2013  01:37:00      -72.592      -41.230       -5.832       26.948       15.515       13.655      726.217      240.724      186.463        0.408        0.058       83.483       10.784        0.017      333.955        3.611      866.232
10/14/2013  01:38:00      -63.689      -29.692       -3.095       28.294       20.413       15.033      800.554      416.702      226.004        0.320        0.072       70.270       15.633        0.049      333.947        3.596      866.227
10/14/2013  01:39:00     -106.762      -40.116      -10.428       21.618       22.796       11.442      467.332      519.672      130.924        0.712        0.056      114.050        4.218        0.001      333.906        3.531      866.221
10/14/2013  01:40:00     -107.889      -27.009      -11.744       17.462       12.639        9.463      304.927      159.738       89.540        0.653        0.028      111.218        3.833        0.001      333.860        3.451      866.227
10/14/2013  01:41:00     -113.524      -40.233      -10.310       15.827       12.823       11.246      250.497      164.432      126.467        0.758        0.027      120.443        6.572        0.003      333.855        3.444      866.231
10/14/2013  01:42:00     -119.988      -48.476       -7.688       13.894       13.539        8.570      193.044      183.315       73.444        0.863        0.022      129.411        2.980        0.001      333.884        3.491      866.232
10/14/2013  01:43:00     -108.970      -37.840      -17.471        8.934        9.770        7.870       79.817       95.458       61.938        0.692        0.012      115.353        5.435        0.002      333.888        3.498      866.240
10/14/2013  01:44:00     -113.781      -32.769      -14.533       10.352       10.067        6.295      107.163      101.347       39.629        0.724        0.012      118.405        2.967        0.001      333.861        3.454      866.258
10/14/2013  01:45:00     -104.009      -37.930      -17.182       11.933        9.059        7.118      142.390       82.072       50.665        0.641        0.014      110.709        5.250        0.002      333.836        3.412      866.264
10/14/2013  01:46:00      -97.686      -39.085      -17.698        8.726        9.375        7.661       76.140       87.897       58.696        0.580        0.011      105.215        3.100        0.001      333.859        3.448      866.273
10/14/2013  01:47:00      -95.368      -36.862       -8.402       18.538       20.205       14.028      343.660      408.259      196.788        0.574        0.047      102.244       10.684        0.011      333.887        3.496      866.273
10/14/2013  01:48:00      -96.799      -44.495      -14.330       14.677       11.593        7.240      215.424      134.390       52.415        0.598        0.020      106.536        6.630        0.004      333.859        3.449      866.273
10/14/2013  01:49:00      -84.344      -40.893      -11.772       11.125       17.942       11.062      123.760      321.917      122.366        0.475        0.028       93.734        9.001        0.009      333.872        3.474      866.283
10/14/2013  01:50:00      -78.860      -29.590      -11.675       10.114       10.847       14.198      102.302      117.661      201.589        0.383        0.021       84.228        8.261        0.010      333.937        3.581      866.305
10/14/2013  01:51:00      -71.303      -26.509      -12.543       11.034       12.113        8.353      121.742      146.730       69.775        0.314        0.017       76.071        3.620        0.002      333.867        3.462      866.314
10/14/2013  01:52:00      -68.074      -36.430       -8.739       26.889       23.799       12.307      723.009      566.391      151.458        0.374        0.072       77.209       10.848        0.020      333.874        3.474      866.314
10/14/2013  01:53:00      -73.799      -23.101       -3.332       29.627       19.293       15.271      877.786      372.213      233.190        0.374        0.074       77.330       14.642        0.036      333.866        3.463      866.315
10/14/2013  01:54:00      -76.304      -24.493      -11.344       15.655       15.843       10.575      245.083      250.999      111.825        0.358        0.030       80.139        5.021        0.004      333.796        3.346      866.322
10/14/2013  01:55:00      -76.299      -28.317       -8.231       26.830       20.219       14.204      719.826      408.796      201.761        0.401        0.067       81.384       11.064        0.018      333.867        3.466      866.324
10/14/2013  01:56:00      -61.104      -30.927       -7.802       23.951       19.554       13.246      573.632      382.349      175.469        0.294        0.057       68.485        5.278        0.006      333.922        3.555      866.327
10/14/2013  01:57:00      -75.049      -33.802       -7.134       20.750       12.687       16.246      430.580      160.966      263.934        0.384        0.043       82.310       10.037        0.015      333.873        3.475      866.320
10/14/2013  01:58:00      -64.335      -42.543       -5.340       25.408       16.646       15.010      645.562      277.082      225.313        0.356        0.057       77.129       11.303        0.021      333.866        3.462      866.317
10/14/2013  01:59:00      -69.836      -18.177       -3.819       16.403       19.967       14.379      269.043      398.672      206.767        0.305        0.044       72.163        9.500        0.017      333.946        3.595      866.318
10/14/2013  02:00:00      -60.118      -25.902       -8.840       16.333       22.636       18.265      266.762      512.386      333.610        0.274        0.056       65.461        8.882        0.018      333.882        3.489      866.317
10/14/2013  02:01:00      -54.510      -23.744       -5.867       24.986       18.263       11.694      624.306      333.553      136.748        0.233        0.055       59.457       10.082        0.029      333.892        3.507      866.313
10/14/2013  02:02:00      -65.262       -9.270       -5.546       20.494       17.054        9.551      419.989      290.825       91.216        0.259        0.040       65.917        8.388        0.016      333.788        3.334      866.313
10/14/2013  02:03:00      -75.557      -12.792      -13.040       15.194        9.886        9.571      230.867       97.734       91.613        0.323        0.021       76.632        6.553        0.007      333.794        3.342      866.316
10/14/2013  02:04:00      -97.275      -14.527      -16.145       15.168       11.468       10.987      230.060      131.511      120.709        0.521        0.024       98.354        6.222        0.004      333.741        3.255      866.324
10/14/2013  02:05:00      -68.002      -42.690      -11.275       24.544       16.385       12.946      602.393      268.478      167.587        0.381        0.052       80.291        7.730        0.009      333.781        3.320      866.324
10/14/2013  02:06:00      -59.694      -30.370      -13.297       39.965       22.336       15.387     1597.226      498.905      236.766        0.350        0.117       66.975       11.223        0.028      333.784        3.326      866.324
10/14/2013  02:07:00      -40.776      -15.780        0.930       32.059       18.942       20.590     1027.759      358.791      423.967        0.186        0.091       43.723       19.447        0.198      333.781        3.321      866.324
10/14/2013  02:08:00      -75.528      -11.011      -10.319       21.054       13.781       15.549      443.279      189.926      241.766        0.340        0.044       76.326        3.613        0.002      333.832        3.405      866.332
10/14/2013  02:09:00      -66.116      -20.574       -7.511       28.373       22.406       15.967      805.038      502.007      254.945        0.321        0.078       69.243        9.533        0.019      333.850        3.435      866.341
10/14/2013  02:10:00      -60.694      -15.982       -4.829       22.389       27.870       14.491      501.251      776.726      210.003        0.272        0.074       62.763        8.981        0.020      333.821        3.387      866.345
10/14/2013  02:11:00      -60.559      -14.238       -7.000       32.463       22.906       15.318     1053.831      524.693      234.629        0.287        0.091       62.210       11.662        0.035      333.880        3.486      866.348
10/14/2013  02:12:00      -96.923      -24.939      -19.782       20.736       19.937       17.233      429.971      397.471      296.988        0.577        0.056      100.080       11.006        0.012      333.812        3.372      866.343
10/14/2013  02:13:00      -75.079      -40.334       -5.369       21.935       17.271       17.339      481.147      298.279      300.658        0.419        0.054       85.227        6.534        0.006      333.905        3.527      866.336
10/14/2013  02:14:00      -91.333      -24.165      -18.567       15.805       13.257       12.330      249.805      175.735      152.037        0.492        0.029       94.475        5.941        0.004      333.898        3.516      866.340
10/14/2013  02:15:00      -76.025      -18.080      -10.655       21.664       21.487       17.428      469.331      461.681      303.720        0.373        0.062       78.145        9.322        0.014      333.949        3.600      866.338
10/14/2013  02:16:00      -88.326      -16.895      -19.861       24.101       19.271       13.704      580.871      371.358      187.790        0.481        0.057       89.927       11.119        0.015      333.859        3.450      866.336
10/14/2013  02:17:00      -71.639      -28.794      -11.295       14.684       17.095       13.475      215.620      292.247      181.586        0.339        0.034       77.209        9.101        0.014      333.851        3.438      866.340
10/14/2013  02:18:00      -61.816      -31.202       -9.025       21.252       24.160       12.461      451.634      583.716      155.288        0.303        0.060       69.244        9.620        0.019      333.807        3.365      866.336
10/14/2013  02:19:00      -63.291      -33.702      -10.928       11.875       14.955       10.858      141.008      223.637      117.906        0.287        0.024       71.705        8.354        0.014      333.839        3.415      866.346
10/14/2013  02:20:00      -65.481      -25.949       -9.528       13.960       16.779        8.079      194.875      281.532       65.271        0.280        0.027       70.435        4.441        0.004      333.883        3.490      866.342
10/14/2013  02:21:00      -70.498      -26.381       -9.699       15.054       13.267       10.866      226.635      176.022      118.074        0.314        0.026       75.272        5.993        0.006      333.890        3.502      866.331
10/14/2013  02:22:00      -77.810      -26.978       -8.902       14.310       14.469       11.392      204.786      209.352      129.775        0.370        0.027       82.354        5.776        0.005      333.955        3.612      866.319
10/14/2013  02:23:00      -79.102      -27.446       -9.198       17.194       16.180       13.217      295.639      261.782      174.684        0.391        0.037       83.728        9.245        0.012      333.860        3.453      866.314
10/14/2013  02:24:00      -46.022      -33.665       -3.392       29.315       20.507       20.094      859.398      420.533      403.776        0.247        0.084       57.020       17.099        0.090      333.821        3.387      866.314
10/14/2013  02:25:00      -30.011      -34.705        7.378       29.009       20.420       19.296      841.496      416.969      372.350        0.189        0.082       45.881       17.742        0.150      333.753        3.274      866.310
10/14/2013  02:26:00      -31.250      -31.280        3.260       31.201       20.607       16.009      973.522      424.654      256.304        0.181        0.083       44.216        8.007        0.033      333.736        3.246      866.302
10/14/2013  02:27:00      -77.273      -53.539       -0.381       26.469       18.432       17.768      700.593      339.740      315.695        0.510        0.068       94.008       15.065        0.026      333.721        3.222      866.289
10/14/2013  02:28:00     -105.929      -44.559      -10.634       17.618       15.518       13.024      310.406      240.813      169.612        0.702        0.036      114.920       10.426        0.008      333.688        3.168      866.276
10/14/2013  02:29:00      -72.546      -39.222       -2.774       25.436       19.207       15.212      646.985      368.903      231.397        0.403        0.062       82.470        8.726        0.011      333.782        3.322      866.270
10/14/2013  02:30:00      -70.684      -27.529       -0.120       25.190       19.270       12.835      634.538      371.352      164.749        0.346        0.059       75.856       11.767        0.024      333.811        3.370      866.277
10/14/2013  02:31:00      -58.372      -21.582       -4.049       19.292       12.152       10.419      372.165      147.666      108.564        0.226        0.031       62.234        7.908        0.016      333.823        3.392      866.275
10/14/2013  02:32:00      -65.461      -27.604       -2.880       12.231       13.147        7.132      149.592      172.837       50.869        0.271        0.019       71.043        5.314        0.006      333.901        3.520      866.273
10/14/2013  02:33:00      -52.874      -26.124       -6.153       20.701       15.471       10.524      428.534      239.360      110.762        0.215        0.039       58.976        6.971        0.014      333.910        3.535      866.270
10/14/2013  02:34:00      -69.292      -45.276       -3.713       15.584       14.956       10.721      242.874      223.686      114.949        0.372        0.029       82.772        7.667        0.009      333.914        3.543      866.261
10/14/2013  02:35:00      -53.502      -38.111       -2.427       18.809       16.027       11.110      353.786      256.870      123.430        0.253        0.037       65.688        6.878        0.011      333.886        3.497      866.264
10/14/2013  02:36:00      -55.055      -43.454       -2.362       29.105       20.287       15.360      847.080      411.563      235.945        0.321        0.075       70.138       12.013        0.029      333.842        3.423      866.260
10/14/2013  02:37:00      -61.854      -36.242        1.518       24.000       18.957       17.233      576.006      359.357      296.974        0.319        0.062       71.690       15.375        0.046      333.805        3.361      866.249
10/14/2013  02:38:00      -52.385      -38.794       -0.912       25.270       16.092       11.463      638.566      258.952      131.398        0.264        0.051       65.185        8.868        0.019      333.803        3.357      866.228
10/14/2013  02:39:00      -68.333      -45.430       -0.608       22.182       22.810       16.331      492.058      520.319      266.704        0.401        0.064       82.057       12.571        0.023      333.863        3.457      866.211
10/14/2013  02:40:00      -55.834      -52.078        3.970       26.688       30.417       16.989      712.242      925.187      288.622        0.389        0.096       76.352       13.367        0.031      333.833        3.406      866.196
10/14/2013  02:41:00     -103.602      -49.610        4.032       38.057       31.811       23.846     1448.322     1011.910      568.644        0.812        0.151      114.867       20.421        0.032      333.843        3.424      866.187
10/14/2013  02:42:00     -101.178      -59.842        0.092       42.193       31.938       21.259     1780.224     1020.048      451.964        0.853        0.163      117.551       18.140        0.024      333.802        3.355      866.186
10/14/2013  02:43:00      -99.320      -92.044       -5.155       43.372       47.458       21.050     1881.123     2252.261      443.110        1.147        0.229      135.413       21.236        0.025      333.808        3.365      866.182
10/14/2013  02:44:00     -106.930      -51.269        1.807       43.525       32.750       27.204     1894.387     1072.540      740.032        0.889        0.185      118.586       20.445        0.030      333.738        3.251      866.179
10/14/2013  02:45:00     -100.792      -86.906       -2.835       41.952       35.579       21.864     1759.935     1265.895      478.037        1.061        0.175      133.085       19.643        0.022      333.694        3.177      866.176
10/14/2013  02:46:00     -109.620      -84.166       -4.647       45.142       38.635       23.873     2037.800     1492.699      569.915        1.161        0.205      138.205       21.917        0.025      333.700        3.186      866.162
10/14/2013  02:47:00     -101.103      -66.869        9.113       69.018       36.566       35.110     4763.461     1337.062     1232.746        1.105        0.367      121.216       32.546        0.072      333.678        3.149      866.155
10/14/2013  02:48:00     -142.992     -122.292       -4.198       45.034       40.095       32.618     2028.082     1607.598     1063.923        2.006        0.235      188.154       31.534        0.028      333.649        3.101      866.157
10/14/2013  02:49:00      -90.975      -85.670        9.443       45.265       41.491       29.390     2048.903     1721.524      863.788        1.017        0.232      124.963       22.300        0.032      333.694        3.177      866.164
10/14/2013  02:50:00     -102.906      -86.548        6.139       47.875       42.584       31.949     2292.012     1813.365     1020.757        1.162        0.256      134.463       29.364        0.048      333.665        3.128      866.159
10/14/2013  02:51:00     -123.279      -85.015        1.237       60.710       35.728       26.831     3685.704     1276.466      719.896        1.405        0.284      149.751       27.977        0.035      333.642        3.091      866.153
10/14/2013  02:52:00     -123.651      -87.378       -6.396       39.657       34.726       22.708     1572.658     1205.863      515.661        1.313        0.165      151.409       17.485        0.013      333.658        3.117      866.154
10/14/2013  02:53:00     -130.500      -72.798       -4.688       51.753       53.061       25.170     2678.333     2815.432      633.508        1.424        0.306      149.431       16.289        0.012      333.618        3.050      866.169
10/14/2013  02:54:00     -108.242      -61.222        7.236       59.111       33.855       27.384     3494.109     1146.142      749.885        1.045        0.270      124.356       30.202        0.059      333.630        3.070      866.169
10/14/2013  02:55:00     -111.214      -62.671        2.670       32.036       33.092       22.171     1026.285     1095.051      491.531        0.946        0.131      127.657       16.868        0.017      333.632        3.073      866.170
10/14/2013  02:56:00     -133.728      -57.607      -11.566       27.749       23.780       14.914      770.006      565.487      222.415        1.145        0.078      145.608       10.867        0.006      333.689        3.169      866.150
10/14/2013  02:57:00     -116.041      -51.228       -2.326       45.315       38.240       24.958     2053.487     1462.282      622.884        1.012        0.207      126.846       20.027        0.025      333.669        3.133      866.138
10/14/2013  02:58:00     -119.256      -30.830        2.220       45.130       34.049       22.913     2036.748     1159.357      525.017        0.945        0.186      123.176       17.887        0.021      333.652        3.106      866.122
10/14/2013  02:59:00     -102.348      -54.888       -1.443       31.017       28.999       18.917      962.075      840.953      357.850        0.782        0.108      116.137       15.868        0.019      333.712        3.207      866.111
10/14/2013  03:00:00     -107.908      -41.591        5.872       57.569       37.201       18.786     3314.193     1383.930      352.909        0.923        0.253      115.646       19.921        0.030      333.678        3.150      866.108
10/14/2013  03:01:00     -104.507      -38.516        1.146       40.106       26.845       19.269     1608.481      720.643      371.281        0.755        0.135      111.378       19.228        0.030      333.628        3.066      866.121
10/14/2013  03:02:00     -133.584      -52.773        0.028       38.400       29.270       22.618     1474.573      856.750      511.583        1.174        0.142      143.630       21.093        0.022      333.558        2.951      866.118
10/14/2013  03:03:00     -148.262      -56.958       -4.500       20.854       23.867       16.040      434.881      569.649      257.268        1.325        0.063      158.826       10.892        0.005      333.512        2.874      866.118
10/14/2013  03:04:00      -99.930      -31.915       -7.433       34.304       31.568       22.818     1176.768      996.534      520.642        0.688        0.135      104.903       14.281        0.019      333.454        2.778      866.122
10/14/2013  03:05:00      -93.518      -37.429        1.034       34.918       30.025       18.289     1219.241      901.524      334.479        0.630        0.123      100.730       17.865        0.031      333.411        2.708      866.128
10/14/2013  03:06:00     -116.002      -26.717        1.838       51.373       39.474       20.374     2639.207     1558.159      415.098        0.939        0.231      119.039       21.532        0.033      333.378        2.653      866.124
10/14/2013  03:07:00      -61.058      -29.957        6.633       49.670       34.343       25.288     2467.096     1179.463      639.458        0.448        0.214       68.012       26.020        0.146      333.363        2.628      866.116
10/14/2013  03:08:00      -97.187      -60.433       -8.871       47.729       40.341       24.046     2278.062     1627.429      578.187        0.883        0.224      114.444       16.714        0.021      333.424        2.729      866.123
10/14/2013  03:09:00     -131.520      -62.272       -7.424       38.949       33.176       23.303     1517.008     1100.658      543.018        1.219        0.158      145.517       19.636        0.018      333.371        2.642      866.122
10/14/2013  03:10:00     -141.547      -45.988       -3.420       37.498       27.393       21.739     1406.133      750.380      472.567        1.240        0.131      148.830       19.965        0.018      333.364        2.631      866.118
10/14/2013  03:11:00     -154.178      -29.427       -6.986       45.199       23.338       17.665     2042.934      544.650      312.066        1.379        0.145      156.961       15.468        0.010      333.325        2.567      866.113
10/14/2013  03:12:00     -104.570      -19.838       -6.297       44.383       27.341       21.341     1969.878      747.503      455.449        0.727        0.159      106.435       22.854        0.046      333.328        2.571      866.126
10/14/2013  03:13:00      -63.021      -37.910       -2.739       31.228       26.954       15.619      975.175      726.534      243.965        0.368        0.097       73.545       15.148        0.042      333.363        2.628      866.124
10/14/2013  03:14:00      -16.574      -25.115        6.945       27.707       22.734       17.128      767.661      516.827      293.364        0.127        0.079       30.091        9.851        0.107      333.360        2.623      866.117
10/14/2013  03:15:00      -52.280      -42.301       -0.957       42.525       31.268       19.052     1808.404      977.719      362.965        0.384        0.157       67.250       25.682        0.146      333.399        2.688      866.114
10/14/2013  03:16:00     -113.864      -33.256       -5.641       18.317       21.168       12.315      335.526      448.071      151.663        0.752        0.047      118.621        7.813        0.004      333.372        2.646      866.112
10/14/2013  03:17:00      -71.087      -23.473        1.380       29.730       23.602       14.404      883.901      557.078      207.488        0.363        0.082       74.862        8.891        0.014      333.377        2.652      866.100
10/14/2013  03:18:00      -43.478      -39.255        4.907       37.785       30.396       19.969     1427.695      923.909      398.755        0.310        0.138       58.577       21.468        0.134      333.517        2.883      866.092
10/14/2013  03:19:00      -59.532      -44.827        7.382       40.218       30.078       21.410     1617.485      904.716      458.369        0.429        0.149       74.522       16.611        0.050      333.553        2.943      866.079
10/14/2013  03:20:00     -115.505      -65.229      -14.267       15.309       25.380       15.551      234.371      644.168      241.819        0.946        0.056      132.651       15.715        0.014      333.477        2.817      866.077
10/14/2013  03:21:00      -89.895      -45.032       -5.187       27.224       22.697       15.980      741.132      515.166      255.353        0.582        0.076      100.543       15.781        0.025      333.497        2.847      866.074
10/14/2013  03:22:00     -104.893      -39.680       -3.570       23.397       17.438       14.757      547.414      304.072      217.768        0.683        0.053      112.147       12.379        0.012      333.482        2.824      866.065
10/14/2013  03:23:00     -100.825      -55.570       -0.092       35.927       22.447       19.511     1290.739      503.867      380.669        0.771        0.109      115.124       22.667        0.039      333.472        2.807      866.065
10/14/2013  03:24:00     -107.605      -62.615       -7.227       32.908       21.489       18.092     1082.907      461.788      327.319        0.871        0.094      124.497       10.894        0.008      333.432        2.743      866.061
10/14/2013  03:25:00     -100.472      -55.289       -2.719       27.713       23.544       18.513      768.006      554.299      342.732        0.741        0.083      114.680       12.965        0.013      333.458        2.786      866.072
10/14/2013  03:26:00      -74.304      -55.783        0.949       56.192       27.434       18.406     3157.590      752.640      338.763        0.644        0.212       92.913       22.819        0.060      333.417        2.718      866.091
10/14/2013  03:27:00      -12.830      -35.107       21.123       33.290       34.333       22.658     1108.192     1178.744      513.392        0.232        0.140       37.378       21.382        0.327      333.482        2.825      866.097
10/14/2013  03:28:00      -53.598      -27.136        1.742       50.215       21.404       20.925     2521.542      458.151      437.863        0.351        0.171       60.076       28.260        0.221      333.444        2.762      866.093
10/14/2013  03:29:00      -78.378      -47.109       -1.763       28.219       21.786       16.338      796.293      474.625      266.923        0.495        0.077       91.446       16.177        0.031      333.419        2.722      866.087
10/14/2013  03:30:00      -75.761      -40.244        2.374       30.279       20.804       15.670      916.839      432.787      245.543        0.448        0.080       85.787       11.771        0.019      333.437        2.749      866.086
10/14/2013  03:31:00      -44.065      -38.531        3.569       43.242       26.965       16.846     1869.906      727.092      283.795        0.316        0.144       58.535       14.539        0.062      333.405        2.698      866.091
10/14/2013  03:32:00      -59.852      -39.928       -1.104       29.382       27.436       15.896      863.281      752.719      252.671        0.352        0.093       71.947       15.105        0.044      333.352        2.610      866.095
10/14/2013  03:33:00      -82.609      -33.416       -6.293       41.455       22.914       15.284     1718.478      525.071      233.593        0.523        0.124       89.112       18.323        0.042      333.385        2.663      866.107
10/14/2013  03:34:00      -85.626      -43.503       -2.790       20.094       20.260       14.238      403.752      410.463      202.715        0.512        0.051       96.043       11.777        0.015      333.375        2.648      866.114
10/14/2013  03:35:00      -86.440      -31.601       -2.404       26.082       25.963       13.516      680.260      674.090      182.692        0.501        0.077       92.035       12.572        0.019      333.384        2.664      866.113
10/14/2013  03:36:00     -107.206      -26.689       -5.839       25.140       27.682       17.268      632.004      766.297      298.175        0.697        0.085      110.478       14.338        0.017      333.334        2.581      866.112
10/14/2013  03:37:00     -112.206      -42.563      -12.069       22.137       23.295       15.960      490.038      542.641      254.729        0.792        0.064      120.007        9.882        0.007      333.321        2.558      866.114
10/14/2013  03:38:00      -61.850      -51.804       -6.361       37.805       29.427       17.110     1429.243      865.947      292.745        0.457        0.129       80.679        8.930        0.012      333.352        2.609      866.111
10/14/2013  03:39:00      -95.700      -23.016      -18.729       26.334       22.646       16.800      693.453      512.831      282.227        0.576        0.074       98.429       14.790        0.023      333.349        2.605      866.107
10/14/2013  03:40:00     -111.223       -9.281       -7.570       28.108       28.459       19.527      790.081      809.933      381.302        0.725        0.099      111.609       14.115        0.016      333.201        2.358      866.098
10/14/2013  03:41:00      -81.474      -55.121       -4.377       32.227       19.630       17.335     1038.589      385.331      300.507        0.571        0.086       98.368       10.237        0.011      333.281        2.493      866.093
10/14/2013  03:42:00      -71.397      -23.994       -5.609       30.316       24.700       16.317      919.072      610.099      266.250        0.375        0.090       75.321        5.560        0.005      333.292        2.511      866.096
10/14/2013  03:43:00      -50.730      -11.795        3.436       40.076       22.234       19.871     1606.057      494.339      394.853        0.261        0.125       52.083       18.170        0.122      333.326        2.569      866.096
10/14/2013  03:44:00       -6.155      -17.587       10.879       32.944       17.262       21.106     1085.282      297.992      445.450        0.115        0.091       18.633       19.921        1.143      333.257        2.453      866.106
10/14/2013  03:45:00      -52.813      -21.960       -8.694       28.695       26.134       16.684      823.391      682.988      278.371        0.257        0.089       57.197       16.510        0.083      333.241        2.427      866.104
10/14/2013  03:46:00      -80.271      -16.975      -13.378       22.980       24.246       14.940      528.070      587.889      223.191        0.412        0.067       82.046        8.722        0.011      333.226        2.401      866.113
10/14/2013  03:47:00      -91.722      -26.616       -8.344       30.652       22.965       17.103      939.539      527.378      292.505        0.547        0.088       95.506       13.853        0.021      333.253        2.445      866.114
10/14/2013  03:48:00      -97.406      -17.123      -14.857       25.929       15.149       14.328      672.312      229.502      205.301        0.555        0.055       98.899        6.328        0.004      333.165        2.301      866.125
10/14/2013  03:49:00      -74.256      -50.862       -3.765       36.964       25.535       15.793     1366.316      652.058      249.431        0.519        0.113       90.005        9.660        0.012      333.159        2.291      866.129
10/14/2013  03:50:00      -49.071      -27.996        1.779       41.264       34.212       19.324     1702.710     1170.476      373.402        0.322        0.162       56.496       18.094        0.103      333.234        2.415      866.128
10/14/2013  03:51:00     -107.409      -51.384        0.800       32.505       16.739       19.923     1056.545      280.207      396.938        0.796        0.087      119.067       13.658        0.013      333.272        2.479      866.133
10/14/2013  03:52:00     -104.123      -46.479        2.325       32.665       30.336       19.295     1067.034      920.285      372.313        0.768        0.118      114.025       16.268        0.020      333.270        2.475      866.125
10/14/2013  03:53:00      -65.084      -77.704       -3.044       42.144       36.917       22.943     1776.142     1362.886      526.375        0.697        0.183      101.360       23.544        0.054      333.226        2.402      866.112
10/14/2013  03:54:00     -108.464      -67.224        0.314       65.147       50.320       26.098     4244.096     2532.125      681.117        1.187        0.373      127.607       18.647        0.021      333.244        2.432      866.101
10/14/2013  03:55:00     -130.332     -129.210       -3.283       68.169       43.984       32.686     4646.952     1934.592     1068.347        2.067        0.382      183.525       34.057        0.034      333.168        2.303      866.098
10/14/2013  03:56:00     -130.123      -81.415       -2.468       58.614       47.488       31.963     3435.544     2255.131     1021.653        1.514        0.336      153.494       30.873        0.040      333.230        2.408      866.098
10/14/2013  03:57:00     -113.875      -86.870        2.640       60.600       41.185       25.145     3672.340     1696.219      632.273        1.326        0.300      143.226       24.438        0.029      333.198        2.355      866.089
10/14/2013  03:58:00     -117.887      -90.794       -0.848       38.944       29.596       22.871     1516.637      875.907      523.099        1.253        0.146      148.799       19.576        0.017      333.181        2.327      866.096
10/14/2013  03:59:00      -66.423      -36.602       11.276       51.371       32.906       24.791     2638.991     1082.785      614.579        0.511        0.217       75.840       28.058        0.137      333.163        2.297      866.112
10/14/2013  04:00:00      -62.149      -47.457        0.511       36.037       32.652       20.316     1298.668     1066.129      412.739        0.445        0.139       78.196       21.417        0.075      333.198        2.356      866.128
10/14/2013  04:01:00      -77.014      -47.508        2.424       36.747       27.099       18.579     1350.328      734.363      345.194        0.531        0.121       90.488       16.171        0.032      333.204        2.365      866.137
10/14/2013  04:02:00      -50.379      -51.351        6.160       41.869       36.090       22.766     1752.973     1302.454      518.272        0.439        0.179       71.937       23.175        0.104      333.187        2.337      866.158
10/14/2013  04:03:00      -89.124      -51.552       -2.846       41.554       25.651       21.352     1726.694      657.967      455.902        0.672        0.142      102.960       21.564        0.044      333.270        2.475      866.168
10/14/2013  04:04:00     -119.372      -51.135      -12.356       11.618       14.041        9.705      134.980      197.147       94.183        0.872        0.021      129.863        4.107        0.001      333.240        2.424      866.186
10/14/2013  04:05:00      -91.006      -50.819       -7.924       28.981       24.731       17.116      839.915      611.638      292.971        0.634        0.087      104.234       14.253        0.019      333.215        2.383      866.187
10/14/2013  04:06:00      -96.286      -24.836       -6.730       34.268       24.267       18.033     1174.277      588.882      325.202        0.601        0.104       99.438       18.680        0.035      333.238        2.421      866.186
10/14/2013  04:07:00     -106.027      -44.332       -8.799       24.306       24.375       14.039      590.792      594.137      197.097        0.733        0.069      114.922        8.866        0.006      333.225        2.399      866.185
10/14/2013  04:08:00     -121.917      -64.380       -3.996       28.190       27.917       15.807      794.669      779.355      249.867        1.042        0.091      137.871       12.402        0.008      333.180        2.324      866.179
10/14/2013  04:09:00     -129.987      -59.503       -2.420       23.583       16.880       12.807      556.150      284.929      164.019        1.072        0.050      142.959       10.239        0.005      333.139        2.258      866.195
10/14/2013  04:10:00     -126.224      -44.029      -12.035       21.499       19.827       18.131      462.217      393.119      328.740        0.960        0.059      133.683        7.221        0.003      333.113        2.214      866.198
10/14/2013  04:11:00     -100.449      -27.285       -6.026       25.875       28.268       15.129      669.513      799.058      228.880        0.628        0.085      104.088       10.154        0.010      333.165        2.300      866.199
10/14/2013  04:12:00      -99.126      -42.368       -5.671       27.232       23.560       17.075      741.588      555.072      291.543        0.662        0.079      107.801       10.840        0.010      333.098        2.192      866.202
10/14/2013  04:13:00     -116.539      -27.034       -7.645       40.768       25.728       18.827     1662.020      661.927      354.453        0.852        0.134      119.634       19.981        0.028      333.046        2.106      866.199
10/14/2013  04:14:00     -154.908      -16.239       -9.973       42.301       29.834       20.112     1789.397      890.075      404.511        1.372        0.154      155.757       21.960        0.020      333.136        2.253      866.204
10/14/2013  04:15:00     -116.132       -9.897       -3.931       50.739       31.641       21.175     2574.485     1001.137      448.379        0.881        0.201      116.553       25.183        0.047      333.057        2.124      866.202
10/14/2013  04:16:00     -149.732        0.207      -16.006       21.147       25.275       18.080      447.185      638.834      326.893        1.204        0.071      149.732       12.295        0.007      333.102        2.199      866.199
10/14/2013  04:17:00     -137.572      -18.853      -21.152       41.748       31.843       21.773     1742.922     1013.961      474.044        1.148        0.162      138.858       21.204        0.023      333.153        2.281      866.191
10/14/2013  04:18:00     -133.265      -26.713      -11.289       39.991       40.314       23.600     1599.248     1625.224      556.955        1.119        0.189      135.916       21.028        0.024      333.116        2.221      866.187
10/14/2013  04:19:00     -109.740      -15.905      -11.997       30.687       37.215       21.023      941.671     1384.920      441.958        0.760        0.138      110.887       14.029        0.016      333.123        2.233      866.181
10/14/2013  04:20:00      -92.598      -20.517       -8.852       34.837       28.580       22.513     1213.622      816.835      506.819        0.581        0.127       94.844       18.890        0.040      333.145        2.268      866.189
10/14/2013  04:21:00      -90.808      -16.495      -13.698       36.515       28.432       19.405     1333.375      808.373      376.545        0.561        0.126       92.294       16.164        0.031      333.125        2.236      866.188
10/14/2013  04:22:00      -80.889      -29.871       -5.330       33.983       29.493       23.917     1154.871      869.835      572.032        0.503        0.130       86.228       19.725        0.052      333.143        2.264      866.176
10/14/2013  04:23:00      -85.328       -4.984      -10.057       26.875       26.529       15.525      722.291      703.797      241.038        0.454        0.083       85.473        7.847        0.008      333.171        2.309      866.178
10/14/2013  04:24:00      -77.913      -15.063      -12.304       14.544       20.085       13.768      211.525      403.426      189.548        0.363        0.040       79.355        7.499        0.009      333.200        2.358      866.180
10/14/2013  04:25:00      -92.794      -37.239      -11.154       28.525       27.037       13.644      813.683      731.006      186.153        0.593        0.087       99.987       11.355        0.013      333.142        2.263      866.182
10/14/2013  04:26:00      -61.326        0.563       -8.175       23.369       28.455       13.667      546.116      809.684      186.791        0.268        0.077       61.328        5.987        0.010      333.145        2.268      866.181
10/14/2013  04:27:00      -65.782        0.519      -17.039       26.604       28.400       23.890      707.766      806.562      570.730        0.335        0.104       65.784       19.660        0.089      333.247        2.436      866.176
10/14/2013  04:28:00      -66.261       -1.956      -12.523       23.642       25.348       15.591      558.957      642.533      243.078        0.300        0.072       66.290        7.507        0.013      333.279        2.489      866.169
10/14/2013  04:29:00     -107.061       15.681      -16.502       29.585       28.339       22.451      875.285      803.114      504.064        0.708        0.109      108.203       18.431        0.029      333.293        2.512      866.172
10/14/2013  04:30:00      -95.439       19.389      -17.443       29.533       21.513       15.913      872.177      462.811      253.231        0.569        0.079       97.389       13.536        0.019      333.342        2.594      866.189
10/14/2013  04:31:00      -78.801       -2.684       -9.490       24.397       29.043       16.965      595.211      843.484      287.800        0.402        0.086       78.846       13.430        0.029      333.301        2.526      866.194
10/14/2013  04:32:00      -81.950      -15.059      -11.507       28.435       26.080       16.375      808.544      680.157      268.136        0.442        0.088       83.322       15.108        0.033      333.166        2.303      866.199
10/14/2013  04:33:00      -96.844      -26.346       -1.122       34.716       30.966       17.800     1205.216      958.876      316.827        0.628        0.124      100.364       16.746        0.028      333.077        2.157      866.213
10/14/2013  04:34:00      -88.679      -17.503       -5.184       31.563       22.252       16.477      996.246      495.153      271.500        0.498        0.088       90.389       14.754        0.027      333.043        2.098      866.235
10/14/2013  04:35:00     -107.301      -25.098       -6.538       36.547       25.098       17.896     1335.667      629.889      320.283        0.724        0.114      110.197       12.516        0.013      333.009        2.044      866.265
10/14/2013  04:36:00      -75.367      -15.164       -2.859       18.696       25.965       15.993      349.558      674.171      255.786        0.360        0.064       76.878       11.486        0.022      333.034        2.085      866.273
10/14/2013  04:37:00      -67.923      -10.656       -1.654       44.102       41.756       27.130     1945.024     1743.593      736.031        0.458        0.221       68.754       26.284        0.146      332.970        1.980      866.274
10/14/2013  04:38:00      -78.663       -5.089      -15.585       43.075       30.977       22.513     1855.469      959.544      506.822        0.489        0.166       78.827       24.762        0.099      333.043        2.100      866.260
10/14/2013  04:39:00      -55.229       -6.142      -14.082       34.619       30.261       19.393     1198.467      915.708      376.080        0.289        0.125       55.569       14.237        0.066      333.029        2.078      866.263
10/14/2013  04:40:00      -66.768      -14.772       -7.009       30.417       30.681       21.797      925.189      941.352      475.094        0.353        0.117       68.383       20.179        0.087      333.046        2.103      866.273
10/14/2013  04:41:00      -27.085        3.977       -4.227       32.092       32.219       18.645     1029.888     1038.059      347.624        0.159        0.121       27.376       18.257        0.445      333.015        2.053      866.278
10/14/2013  04:42:00      -36.429       -6.008       -9.719       40.576       23.379       19.339     1646.432      546.577      374.013        0.201        0.128       36.921       16.263        0.194      333.021        2.063      866.289
10/14/2013  04:43:00      -71.938      -10.999      -17.903       36.815       14.763       13.161     1355.358      217.934      173.211        0.368        0.087       72.774       14.061        0.037      333.022        2.065      866.290
10/14/2013  04:44:00      -83.988      -12.249       -6.483       25.995       24.391       16.810      675.720      594.910      282.568        0.440        0.078       84.876       11.505        0.018      333.020        2.061      866.290
10/14/2013  04:45:00      -89.349       -7.485       -6.946       19.782       18.687       14.076      391.321      349.200      198.141        0.451        0.047       89.662        8.605        0.009      333.031        2.080      866.303
10/14/2013  04:46:00      -75.367      -11.863       -9.065       18.349       18.324       14.640      336.688      335.762      214.342        0.339        0.044       76.294        9.414        0.015      333.084        2.168      866.322
10/14/2013  04:47:00      -72.565       -9.775      -10.237       29.206       18.005       15.206      852.964      324.195      231.227        0.344        0.070       73.220       14.508        0.039      333.082        2.165      866.340
10/14/2013  04:48:00      -40.205      -27.628       -7.455       31.103       14.074       13.595      967.427      198.087      184.832        0.189        0.068       48.782        7.013        0.021      333.188        2.338      866.355
10/14/2013  04:49:00      -39.610      -28.354       -2.387       29.334       19.065       14.386      860.454      363.475      206.945        0.190        0.072       48.713       13.500        0.077      333.114        2.216      866.364
10/14/2013  04:50:00      -79.788      -52.518       -3.907       28.771       19.291       16.600      827.760      372.126      275.559        0.531        0.074       95.521       15.492        0.026      333.101        2.196      866.364
10/14/2013  04:51:00      -96.677      -43.662       -4.065       20.953       22.099        9.191      439.033      488.350       84.466        0.614        0.051      106.079        4.560        0.002      333.136        2.253      866.358
10/14/2013  04:52:00      -35.629      -46.124       11.637       32.984       22.480       16.714     1087.973      505.343      279.374        0.270        0.094       58.283       14.672        0.063      333.126        2.237      866.358
10/14/2013  04:53:00      -55.096      -46.146        4.652       45.978       28.093       18.455     2113.978      789.207      340.580        0.421        0.162       71.868       19.381        0.073      333.129        2.240      866.364
10/14/2013  04:54:00      -48.729      -30.481        8.269       43.998       31.798       20.223     1935.815     1011.141      408.967        0.336        0.168       57.478       17.419        0.092      333.052        2.115      866.380
10/14/2013  04:55:00      -98.343      -58.686        2.107       43.469       32.421       22.476     1889.542     1051.148      505.191        0.828        0.172      114.522       22.244        0.038      332.958        1.961      866.396
10/14/2013  04:56:00      -85.932      -53.689        4.774       50.329       30.206       22.695     2532.996      912.406      515.066        0.712        0.198      101.325       21.142        0.044      332.994        2.018      866.407
10/14/2013  04:57:00      -97.709      -90.943       -1.192       49.441       33.211       29.617     2444.417     1102.996      877.156        1.112        0.221      133.483       30.421        0.052      332.919        1.895      866.417
10/14/2013  04:58:00     -105.856      -87.265        0.114       49.490       42.413       27.278     2449.303     1798.887      744.116        1.191        0.250      137.189       17.445        0.016      332.907        1.875      866.419
10/14/2013  04:59:00     -111.086     -121.290       -6.111       47.918       46.236       33.198     2296.155     2137.725     1102.116        1.631        0.277      164.474       25.761        0.025      332.900        1.863      866.422
10/14/2013  05:00:00     -124.792     -131.645       -4.521       34.335       38.332       23.924     1178.920     1469.319      572.365        1.807        0.161      181.393       19.801        0.012      332.880        1.830      866.422
10/14/2013  05:01:00     -114.794      -96.257       -4.297       44.937       40.513       29.045     2019.314     1641.266      843.618        1.348        0.225      149.810       22.754        0.023      332.854        1.788      866.423
10/14/2013  05:02:00     -115.269      -81.742       -6.012       45.072       45.661       25.280     2031.515     2084.963      639.094        1.238        0.238      141.311       22.556        0.025      332.884        1.837      866.416
10/14/2013  05:03:00      -91.223      -66.494       -0.186       48.576       41.589       23.932     2359.644     1729.617      572.764        0.870        0.233      112.886       22.434        0.039      332.917        1.891      866.407
10/14/2013  05:04:00     -103.975      -57.219       -3.171       34.604       25.402       19.387     1197.470      645.268      375.864        0.816        0.111      118.679       17.110        0.021      332.930        1.913      866.401
10/14/2013  05:05:00      -95.576      -50.668        0.131       45.386       22.256       18.973     2059.930      495.313      359.977        0.731        0.146      108.176       17.109        0.025      332.920        1.897      866.401
10/14/2013  05:06:00     -112.075      -29.119       -6.967       34.624       32.826       19.574     1198.842     1077.547      383.149        0.806        0.133      115.796       20.787        0.032      332.938        1.926      866.401
10/14/2013  05:07:00      -94.281      -38.749       -4.276       26.620       24.656       17.665      708.621      607.910      312.045        0.602        0.081      101.934       10.551        0.011      333.004        2.035      866.413
10/14/2013  05:08:00      -87.066      -31.022       -0.260       40.981       37.196       22.151     1679.483     1383.560      490.675        0.605        0.178       92.427       24.219        0.069      332.946        1.940      866.421
10/14/2013  05:09:00     -115.910      -71.934       -6.297       51.040       36.922       20.470     2605.086     1363.267      419.037        1.152        0.219      136.417       19.843        0.021      333.038        2.091      866.418
10/14/2013  05:10:00     -130.003      -38.764       -1.309       48.437       32.989       22.240     2346.129     1088.249      494.624        1.117        0.196      135.659       23.196        0.029      333.032        2.084      866.417
10/14/2013  05:11:00     -114.532      -41.793        2.072       36.919       33.655       16.807     1363.037     1132.643      282.477        0.882        0.139      121.919       20.070        0.027      332.982        2.000      866.421
10/14/2013  05:12:00     -132.080      -33.516        2.861       42.883       35.258       21.221     1838.958     1243.131      450.311        1.105        0.177      136.266       22.111        0.026      332.931        1.915      866.428
10/14/2013  05:13:00     -137.655      -56.356       -1.238       35.017       33.310       22.090     1226.215     1109.534      487.986        1.247        0.141      148.744       20.472        0.019      332.887        1.843      866.460
10/14/2013  05:14:00     -118.656      -71.449       -7.250       45.523       35.355       23.559     2072.308     1249.995      555.026        1.156        0.194      138.507       19.101        0.019      332.928        1.911      866.474
10/14/2013  05:15:00     -115.526      -60.708       -3.561       44.839       39.817       24.686     2010.513     1585.354      609.390        1.062        0.210      130.506       23.281        0.032      332.905        1.873      866.487
10/14/2013  05:16:00      -81.197      -73.997       13.148       54.926       31.103       26.224     3016.881      967.415      687.721        0.846        0.234      109.857       29.240        0.071      332.972        1.983      866.495
10/14/2013  05:17:00      -84.433      -59.171        7.357       45.375       28.802       24.222     2058.858      829.566      586.713        0.708        0.174      103.102       23.412        0.052      332.974        1.986      866.506
10/14/2013  05:18:00     -117.453      -48.893       -2.764       27.270       26.627       18.779      743.632      709.016      352.655        0.900        0.090      127.223       12.232        0.009      333.022        2.064      866.525
10/14/2013  05:19:00      -66.339      -60.038       -2.649       34.167       24.162       20.464     1167.387      583.796      418.795        0.509        0.108       89.474       15.598        0.030      333.019        2.060      866.540
10/14/2013  05:20:00      -83.638      -52.582        0.009       45.603       21.172       19.189     2079.677      448.248      368.199        0.633        0.145       98.793       18.394        0.035      333.043        2.101      866.556
10/14/2013  05:21:00     -103.647      -64.931       -3.041       28.370       15.760       18.743      804.878      248.380      351.302        0.819        0.070      122.306       15.927        0.017      332.995        2.020      866.567
10/14/2013  05:22:00      -52.480      -40.004       -1.199       28.193       22.014       18.271      794.838      484.629      333.824        0.298        0.081       65.989       13.519        0.042      332.993        2.018      866.592
10/14/2013  05:23:00      -97.746      -52.037       -2.056       32.233       23.275       14.453     1038.941      541.743      208.893        0.703        0.089      110.735       15.239        0.019      333.001        2.029      866.609
10/14/2013  05:24:00      -18.692      -18.022        7.191       28.866       21.621       17.856      833.260      467.489      318.832        0.117        0.081       25.965       12.927        0.248      332.966        1.974      866.624
10/14/2013  05:25:00      -54.808      -40.887        0.965       35.558       28.139       19.697     1264.402      791.800      387.986        0.356        0.122       68.378       13.910        0.041      332.933        1.918      866.629
10/14/2013  05:26:00      -97.472      -52.272       -0.878       26.727       19.234       15.252      714.329      369.949      232.622        0.678        0.066      110.603       12.575        0.013      332.877        1.826      866.623
10/14/2013  05:27:00      -59.975      -51.333        1.427       43.462       21.172       17.485     1888.980      448.268      305.715        0.444        0.132       78.943       14.757        0.035      332.873        1.820      866.617
10/14/2013  05:28:00      -19.589      -29.203        8.860       34.924       33.860       21.233     1219.680     1146.528      450.831        0.207        0.141       35.165       25.934        0.544      332.924        1.905      866.625
10/14/2013  05:29:00      -87.865      -59.151        5.950       36.809       33.646       18.809     1354.892     1132.062      353.783        0.705        0.142      105.920       14.799        0.020      332.912        1.883      866.638
10/14/2013  05:30:00      -60.980      -47.002        5.319       47.179       28.249       21.957     2225.818      797.999      482.097        0.473        0.175       76.992       23.682        0.095      332.932        1.917      866.652
10/14/2013  05:31:00     -102.336      -79.014       -1.522       35.550       40.652       22.664     1263.815     1652.580      513.678        1.007        0.172      129.290       21.677        0.028      332.929        1.912      866.662
10/14/2013  05:32:00     -108.987      -60.034       -1.105       43.106       28.125       21.245     1858.167      791.007      451.334        0.929        0.155      124.428       19.861        0.025      332.983        2.001      866.670
10/14/2013  05:33:00      -88.984      -34.888        1.544       41.336       23.819       18.219     1708.632      567.361      331.927        0.587        0.130       95.579       17.771        0.035      332.930        1.913      866.681
10/14/2013  05:34:00      -46.142      -31.365        4.221       49.795       25.931       17.057     2479.576      672.418      290.932        0.329        0.172       55.793       18.103        0.105      332.891        1.848      866.695
10/14/2013  05:35:00      -69.602      -35.914        2.710       36.801       25.963       19.240     1354.289      674.073      370.196        0.427        0.120       78.321       21.156        0.073      332.885        1.838      866.710
10/14/2013  05:36:00      -75.023      -46.133       -4.449       21.694       21.048       10.594      470.626      443.029      112.229        0.440        0.051       88.072        9.996        0.013      332.922        1.900      866.730
10/14/2013  05:37:00      -21.091      -25.413       10.139       16.665       15.111       13.424      277.724      228.346      180.211        0.094        0.034       33.025        9.380        0.081      332.953        1.950      866.736
10/14/2013  05:38:00       -3.686      -22.248        8.010       13.198       15.091       15.413      174.197      227.733      237.548        0.061        0.032       22.551        8.382        0.138      332.995        2.020      866.745
10/14/2013  05:39:00      -45.976      -22.436       -1.402       24.830       15.243        9.624      616.531      232.359       92.615        0.178        0.047       51.158        9.205        0.032      332.954        1.952      866.753
10/14/2013  05:40:00      -47.566      -22.208        1.086       21.822       14.394       11.281      476.184      207.197      127.253        0.178        0.041       52.495        8.058        0.024      332.899        1.862      866.760
10/14/2013  05:41:00      -11.599      -19.632        7.593       16.991       17.462       16.995      288.710      304.932      288.817        0.073        0.044       22.803       11.152        0.239      332.936        1.923      866.768
10/14/2013  05:42:00       -0.076      -20.216        5.568       10.947       12.281       10.884      119.840      150.812      118.462        0.041        0.019       20.216        3.920        0.038      333.044        2.102      866.777
10/14/2013  05:43:00      -18.695      -15.773        1.779       10.432       12.388        8.170      108.824      153.472       66.744        0.047        0.016       24.460        3.777        0.024      333.023        2.066      866.789
10/14/2013  05:44:00      -10.625      -19.899        9.518       11.169       12.838        9.436      124.754      164.814       89.044        0.049        0.019       22.557        5.116        0.051      333.052        2.115      866.803
10/14/2013  05:45:00      -14.273      -15.550        5.690       15.291       15.077       10.052      233.820      227.307      101.033        0.052        0.028       21.108        9.667        0.210      333.027        2.074      866.812
10/14/2013  05:46:00      -41.186       -7.227       -2.487       12.207       11.307        9.599      149.011      127.848       92.139        0.106        0.018       41.815        4.813        0.013      332.976        1.989      866.825
10/14/2013  05:47:00      -41.342       -9.181       -4.827        9.349        7.781        7.694       87.401       60.539       59.200        0.101        0.010       42.350        3.777        0.008      332.952        1.948      866.830
10/14/2013  05:48:00      -34.660      -14.950        2.218       15.670       15.673        7.433      245.551      245.655       55.246        0.099        0.027       37.746        5.815        0.024      332.909        1.878      866.832
10/14/2013  05:49:00      -39.825      -24.024       -0.559       12.305        9.871        8.265      151.412       97.442       68.309        0.124        0.016       46.510        4.602        0.010      332.965        1.969      866.823
10/14/2013  05:50:00      -37.645      -21.389        1.014       18.477       17.485        8.123      341.390      305.735       65.989        0.129        0.036       43.297        6.363        0.022      332.912        1.883      866.825
10/14/2013  05:51:00      -33.006      -28.159        5.253       24.016       13.895       15.929      576.775      193.085      253.725        0.147        0.051       43.386       15.564        0.129      332.881        1.833      866.833
10/14/2013  05:52:00      -26.625      -26.224        1.880       15.239       13.618       14.208      232.233      185.452      201.878        0.101        0.031       37.371        8.816        0.056      332.900        1.863      866.842
10/14/2013  05:53:00      -22.159      -19.349        8.426       16.593       11.296       12.830      275.328      127.607      164.611        0.075        0.028       29.418       10.169        0.119      332.907        1.876      866.849
10/14/2013  05:54:00      -22.633      -16.149        2.969       13.979       13.853       11.450      195.423      191.898      131.111        0.065        0.026       27.804        5.978        0.046      332.902        1.868      866.857
10/14/2013  05:55:00        2.564      -12.569        7.367        9.497        8.842        9.108       90.193       78.178       82.956        0.024        0.013       12.828        5.677        0.196      332.973        1.985      866.863
10/14/2013  05:56:00       -1.035        2.759        8.175        5.452        6.721        4.458       29.719       45.176       19.878        0.009        0.005        2.946        2.257        0.587      332.860        1.799      866.874
10/14/2013  05:57:00        0.624        6.293        1.737        5.330        7.594        6.148       28.408       57.663       37.794        0.008        0.006        6.324        4.921        0.606      332.842        1.767      866.889
10/14/2013  05:58:00      -32.003      -12.424        2.574       18.019        9.022        9.196      324.667       81.400       84.560        0.084        0.025       34.330       10.041        0.086      332.812        1.720      866.900
10/14/2013  05:59:00      -39.722      -20.325       -4.688       20.193       12.127        8.571      407.763      147.068       73.461        0.132        0.031       44.620        5.351        0.014      332.726        1.576      866.901
10/14/2013  06:00:00      -33.140       -5.248        1.411       23.621       12.800        7.368      557.962      163.839       54.287        0.095        0.039       33.553        8.434        0.063      332.709        1.548      866.896
10/14/2013  06:01:00      -55.999      -34.618       -1.764       19.958       17.261       16.842      398.317      297.958      283.638        0.266        0.049       65.835       11.198        0.029      332.754        1.624      866.901
10/14/2013  06:02:00      -44.227      -29.071        1.266       34.307       24.537       12.795     1176.986      602.040      163.702        0.237        0.097       52.926       13.550        0.066      332.767        1.645      866.912
10/14/2013  06:03:00      -45.908      -69.927       -0.959       21.392       33.559       15.553      457.621     1126.208      241.881        0.441        0.091       83.650       12.913        0.024      332.773        1.654      866.917
10/14/2013  06:04:00      -65.441      -33.847        0.583       42.370       20.455       12.896     1795.227      418.427      166.314        0.390        0.119       73.676       15.626        0.045      332.793        1.687      866.902
10/14/2013  06:05:00      -61.774      -29.011        7.373       32.240       18.917       14.590     1039.431      357.863      212.878        0.316        0.081       68.247       15.494        0.052      332.736        1.594      866.889
10/14/2013  06:06:00      -30.947      -23.852        5.572       27.492       16.191       15.112      755.819      262.149      228.361        0.140        0.062       39.072       11.274        0.083      332.719        1.565      866.895
10/14/2013  06:07:00      -70.051      -31.237       -6.171       15.519       15.840       10.257      240.839      250.898      105.214        0.326        0.030       76.700        6.498        0.007      332.753        1.621      866.895
10/14/2013  06:08:00      -63.851      -34.820       -7.894       14.756       18.103       11.930      217.733      327.729      142.319        0.302        0.034       72.728        3.597        0.002      332.746        1.610      866.892
10/14/2013  06:09:00      -35.871      -24.804        2.486       29.479       16.085       12.236      869.027      258.714      149.727        0.159        0.064       43.611       10.175        0.054      332.781        1.669      866.899
10/14/2013  06:10:00      -37.280      -25.307        9.556       21.577       19.148       12.917      465.569      366.639      166.841        0.156        0.050       45.058       10.102        0.050      332.742        1.604      866.909
10/14/2013  06:11:00      -23.113      -19.534        2.685       21.103       14.520       14.266      445.341      210.820      203.521        0.089        0.043       30.262       11.833        0.153      332.739        1.598      866.914
10/14/2013  06:12:00      -32.907      -21.939        1.969       22.368       16.687        9.374      500.338      278.456       87.874        0.122        0.043       39.550       11.484        0.084      332.699        1.532      866.911
10/14/2013  06:13:00      -29.904      -20.756       -2.275       22.645        9.282        9.158      512.774       86.153       83.868        0.101        0.034       36.401        7.168        0.039      332.673        1.490      866.919
10/14/2013  06:14:00      -61.096      -26.801       -0.512       17.508       15.160        9.268      306.546      229.827       85.890        0.254        0.031       66.716        9.545        0.020      332.732        1.587      866.925
10/14/2013  06:15:00      -56.440      -29.134       -4.281       21.572       11.788       11.218      465.348      138.948      125.844        0.239        0.037       63.516        8.783        0.019      332.752        1.619      866.938
10/14/2013  06:16:00      -60.571      -26.779        1.412       21.491       15.902       14.401      461.877      252.875      207.402        0.265        0.046       66.227       11.519        0.030      332.714        1.556      866.934
10/14/2013  06:17:00      -28.701      -27.408        7.490       28.846       17.596       16.098      832.070      309.624      259.161        0.152        0.070       39.686       17.028        0.184      332.699        1.531      866.942
10/14/2013  06:18:00      -42.806      -26.592        2.129       22.320       20.897       10.602      498.203      436.687      112.408        0.180        0.052       50.394        9.633        0.037      332.659        1.466      866.957
10/14/2013  06:19:00      -27.816       -6.603        0.209       12.226       15.069        9.244      149.469      227.071       85.448        0.064        0.023       28.589        6.140        0.046      332.539        1.266      866.963
10/14/2013  06:20:00      -49.389      -12.568       -3.979       16.124       15.604       10.820      259.992      243.486      117.081        0.162        0.031       50.963        7.320        0.021      332.581        1.336      866.968
10/14/2013  06:21:00      -49.087      -15.223       -4.646       11.604       12.384        9.128      134.643      153.360       83.313        0.152        0.019       51.393        7.037        0.019      332.656        1.462      866.966
10/14/2013  06:22:00      -54.728       -7.457       -6.204       13.779       11.296       11.626      189.866      127.604      135.157        0.177        0.023       55.233       10.750        0.038      332.584        1.342      866.977
10/14/2013  06:23:00      -31.529      -16.766       -0.543       26.684       12.365       13.492      712.043      152.888      182.048        0.116        0.052       35.710       11.145        0.097      332.609        1.383      866.992
10/14/2013  06:24:00      -74.173      -45.673       -7.806       12.862       16.955        9.536      165.433      287.472       90.927        0.410        0.027       87.107        6.298        0.005      332.574        1.323      866.996
10/14/2013  06:25:00      -62.658      -38.643        4.833       35.756       27.187       16.325     1278.502      739.124      266.504        0.386        0.114       73.616       12.477        0.029      332.602        1.371      867.005
10/14/2013  06:26:00      -46.469      -36.441        6.524       46.044       26.724       18.862     2120.037      714.159      355.776        0.336        0.159       59.053       20.646        0.122      332.630        1.419      867.017
10/14/2013  06:27:00      -72.412      -46.756       -1.601       23.000       30.925       14.308      528.979      956.349      204.727        0.456        0.085       86.195        7.253        0.007      332.625        1.410      867.017
10/14/2013  06:28:00      -50.232      -17.117       -1.293       24.314       24.945       14.481      591.167      622.243      209.702        0.212        0.071       53.068        8.494        0.026      332.558        1.299      867.008
10/14/2013  06:29:00      -83.109       -6.970       -6.612       20.463       19.020       10.264      418.746      361.765      105.341        0.394        0.044       83.401        7.541        0.008      332.491        1.189      867.004
10/14/2013  06:30:00      -75.388      -11.056       -2.512       22.460       15.757       13.493      504.435      248.284      182.067        0.337        0.047       76.195       11.847        0.024      332.416        1.063      867.012
10/14/2013  06:31:00      -60.894      -21.674       -7.838       23.152       21.494       13.367      536.016      462.012      178.685        0.271        0.059       64.636        5.147        0.006      332.510        1.220      867.020
10/14/2013  06:32:00      -47.692      -31.594       -5.160       17.911       15.374       10.610      320.790      236.357      112.578        0.198        0.033       57.208        5.350        0.009      332.562        1.306      867.022
10/14/2013  06:33:00      -63.533      -19.680        1.054       28.657       21.266       12.263      821.204      452.259      150.370        0.292        0.071       66.512       10.059        0.023      332.539        1.267      867.037
10/14/2013  06:34:00      -60.401      -18.013       -1.090       25.220       21.341       11.947      636.059      455.458      142.729        0.260        0.062       63.029        7.465        0.014      332.466        1.147      867.050
10/14/2013  06:35:00      -54.712      -31.886        0.655       19.756       21.549       14.544      390.290      464.357      211.514        0.254        0.053       63.325        8.446        0.018      332.458        1.133      867.062
10/14/2013  06:36:00      -58.429      -37.018        0.784       40.806       19.147       16.620     1665.091      366.604      276.208        0.355        0.115       69.169       18.904        0.075      332.591        1.353      867.075
10/14/2013  06:37:00      -88.121      -57.047       -4.469       22.988       22.816       10.147      528.436      520.585      102.958        0.610        0.058      104.975        6.776        0.004      332.600        1.368      867.091
10/14/2013  06:38:00      -71.333      -40.790       -0.753       36.834       26.856       21.290     1356.707      721.229      453.264        0.464        0.127       82.172       21.137        0.066      332.602        1.371      867.100
10/14/2013  06:39:00      -58.693      -33.052        2.722       29.833       31.578       13.614      890.023      997.162      185.346        0.331        0.104       67.359       11.423        0.029      332.573        1.323      867.118
10/14/2013  06:40:00      -83.471      -46.937       -8.731       17.026       19.479       13.101      289.884      379.438      171.625        0.504        0.042       95.762        8.403        0.008      332.593        1.357      867.131
10/14/2013  06:41:00      -70.114      -41.079       -4.645       26.611       19.561       13.153      708.134      382.651      172.989        0.394        0.063       81.262       12.510        0.024      332.666        1.477      867.136
10/14/2013  06:42:00      -63.002      -29.453       -0.438       25.372       25.439       18.766      643.763      647.149      352.173        0.324        0.082       69.546       14.799        0.045      332.664        1.475      867.126
10/14/2013  06:43:00      -60.831      -18.260        2.574       25.527       17.311       10.693      651.652      299.677      114.343        0.255        0.053       63.513        4.636        0.005      332.582        1.338      867.123
10/14/2013  06:44:00      -65.076       -8.294       -4.159       34.020       20.985       17.152     1157.344      440.382      294.179        0.311        0.095       65.602       18.529        0.080      332.470        1.154      867.129
10/14/2013  06:45:00      -63.036      -19.553        5.795       30.584       19.678       16.039      935.397      387.218      257.241        0.298        0.079       65.999       13.490        0.042      332.419        1.069      867.128
10/14/2013  06:46:00      -82.622      -38.838       -1.886       17.875       16.873       11.057      319.507      284.687      122.267        0.453        0.036       91.295        8.827        0.009      332.569        1.317      867.131
10/14/2013  06:47:00      -64.481      -34.616       -0.077       34.400       17.748       11.253     1183.382      314.988      126.632        0.349        0.081       73.185        6.221        0.007      332.648        1.448      867.131
10/14/2013  06:48:00      -73.769      -48.699       -5.094       23.336       24.064       12.444      544.558      579.093      154.853        0.456        0.064       88.394        5.939        0.005      332.629        1.416      867.130
10/14/2013  06:49:00      -94.561      -38.395       -3.552       23.431       24.221       12.110      549.029      586.653      146.659        0.586        0.064      102.058       10.756        0.011      332.634        1.424      867.130
10/14/2013  06:50:00      -60.127      -24.705        1.306       29.032       26.996       12.446      842.829      728.771      154.906        0.298        0.086       65.005       13.205        0.041      332.502        1.206      867.119
10/14/2013  06:51:00      -83.651      -11.079       -2.051       21.060       17.638       13.775      443.532      311.099      189.747        0.403        0.047       84.382        9.925        0.014      332.460        1.136      867.112
10/14/2013  06:52:00      -90.584      -38.233       -4.424       18.937       18.626       11.950      358.608      346.924      142.802        0.527        0.042       98.322       10.869        0.012      332.489        1.184      867.101
10/14/2013  06:53:00      -83.569      -31.948       -6.745       20.259       19.238       11.903      410.434      370.098      141.670        0.449        0.046       89.468       10.969        0.015      332.537        1.264      867.101
10/14/2013  06:54:00      -85.107       -9.556       -6.171       25.020       15.018       12.535      625.978      225.539      157.129        0.419        0.050       85.642       12.031        0.020      332.366        0.981      867.111
10/14/2013  06:55:00      -86.479       -4.265       -1.279       23.672       18.563       14.368      560.348      344.573      206.442        0.430        0.056       86.584       10.776        0.015      332.272        0.826      867.124
10/14/2013  06:56:00      -83.562       -9.608       -1.339       27.556       16.430       15.949      759.356      269.938      254.375        0.418        0.064       84.112       15.027        0.032      332.215        0.734      867.143
10/14/2013  06:57:00      -72.350       -5.294       -1.395       21.184       13.844       12.869      448.769      191.669      165.617        0.304        0.040       72.544       11.131        0.024      332.251        0.793      867.161
10/14/2013  06:58:00      -61.633       -6.172        0.070       23.665       15.246       12.142      560.013      232.439      147.431        0.239        0.047       61.941       12.364        0.040      332.288        0.853      867.170
10/14/2013  06:59:00      -55.818      -12.115       -0.829       27.664       15.321       12.555      765.290      234.725      157.629        0.221        0.058       57.117       13.156        0.053      332.304        0.880      867.176
10/14/2013  07:00:00      -38.372      -10.313       -0.273       19.919       14.090        8.153      396.751      198.531       66.470        0.112        0.033       39.734        8.102        0.042      332.331        0.924      867.181
10/14/2013  07:01:00      -72.051       -8.200       -3.019       16.599       18.178       11.007      275.510      330.427      121.147        0.300        0.036       72.516        7.263        0.010      332.293        0.861      867.183
10/14/2013  07:02:00      -59.126       -6.221        1.698       24.067       17.998       12.630      579.225      323.912      159.519        0.230        0.053       59.452       11.067        0.035      332.295        0.865      867.185
10/14/2013  07:03:00      -65.036      -19.806        1.775       23.106       14.364       11.534      533.896      206.321      133.026        0.275        0.044       67.985       11.206        0.027      332.362        0.975      867.182
10/14/2013  07:04:00      -72.883      -11.760       -3.488       18.148       14.102        9.239      329.356      198.868       85.354        0.304        0.031       73.826        8.795        0.014      332.363        0.975      867.187
10/14/2013  07:05:00      -76.051       -6.121       -7.622       20.824       14.963       12.979      433.638      223.900      168.461        0.335        0.041       76.297       10.918        0.020      332.284        0.845      867.190
10/14/2013  07:06:00      -91.234       -1.847      -10.112       20.798       12.366       10.967      432.575      152.924      120.271        0.457        0.035       91.253       11.918        0.017      332.283        0.845      867.194
10/14/2013  07:07:00      -81.549      -20.482       -5.138       11.173       14.160        8.453      124.835      200.501       71.457        0.375        0.020       84.082        4.228        0.003      332.408        1.050      867.192
10/14/2013  07:08:00      -46.022      -33.821       -3.571       30.986       13.093       12.849      960.149      171.439      165.087        0.229        0.065       57.113        6.057        0.011      332.439        1.102      867.190
10/14/2013  07:09:00      -57.065      -36.209       -9.206       15.045       18.661        9.153      226.359      348.250       83.781        0.266        0.033       67.583        7.089        0.011      332.400        1.040      867.189
10/14/2013  07:10:00      -63.395      -22.292       -3.959       11.097       13.456        7.319      123.138      181.052       53.563        0.244        0.018       67.200        5.109        0.006      332.448        1.115      867.192
10/14/2013  07:11:00      -30.637      -21.324       -4.936       23.650       12.864       12.279      559.321      165.484      150.765        0.115        0.044       37.327       10.355        0.077      332.485        1.178      867.199
10/14/2013  07:12:00      -35.243      -18.260        1.940       15.047       12.736       11.291      226.427      162.197      127.487        0.105        0.026       39.693        9.381        0.056      332.448        1.117      867.204
10/14/2013  07:13:00      -62.885      -12.528       -6.430       14.134       16.180        7.957      199.759      261.781       63.320        0.234        0.026       64.121        4.562        0.005      332.486        1.179      867.211
10/14/2013  07:14:00      -80.445       -9.834       -5.582       14.746       13.732        9.564      217.439      188.581       91.477        0.355        0.025       81.044        7.694        0.009      332.449        1.119      867.194
10/14/2013  07:15:00      -65.195      -15.422       -1.375       16.937       14.006        9.953      286.858      196.179       99.059        0.254        0.029       66.994        9.624        0.021      332.487        1.181      867.193
10/14/2013  07:16:00      -83.863       -6.210       -7.414       14.614       12.004       11.102      213.556      144.084      123.246        0.380        0.024       84.093        7.504        0.008      332.484        1.176      867.190
10/14/2013  07:17:00      -84.082       -4.897       -3.703       20.495       12.724       10.488      420.045      161.909      110.007        0.390        0.035       84.224        9.920        0.014      332.478        1.165      867.188
10/14/2013  07:18:00      -90.108       -7.389       -4.554       18.495       13.430       10.470      342.072      180.369      109.612        0.441        0.032       90.411       10.424        0.013      332.460        1.136      867.197
10/14/2013  07:19:00      -99.102      -17.108       -5.118       18.405       13.624       11.007      338.748      185.609      121.164        0.539        0.032      100.568       11.012        0.012      332.407        1.049      867.204
10/14/2013  07:20:00      -69.346      -25.525       -2.475       13.603       16.914       10.995      185.041      286.090      120.896        0.303        0.030       73.895        7.694        0.011      332.427        1.083      867.215
10/14/2013  07:21:00      -68.610      -23.598       -0.371       19.460       15.970       13.017      378.703      255.028      169.451        0.303        0.040       72.555       10.322        0.020      332.444        1.111      867.226
10/14/2013  07:22:00      -71.021      -36.679       -4.466       15.570       18.427       13.959      242.425      339.553      194.853        0.359        0.039       79.934        7.574        0.009      332.460        1.136      867.235
10/14/2013  07:23:00      -72.210      -29.616        1.701       32.086       19.568       13.017     1029.489      382.905      169.449        0.384        0.079       78.048       10.519        0.018      332.475        1.162      867.250
10/14/2013  07:24:00      -70.994      -38.652       -3.245       26.975       20.420       12.025      727.661      416.996      144.604        0.392        0.064       80.834        6.494        0.006      332.507        1.214      867.261
10/14/2013  07:25:00      -71.180      -37.850       -1.819       19.386       18.563       11.733      375.821      344.576      137.652        0.368        0.043       80.618        8.695        0.012      332.508        1.217      867.259
10/14/2013  07:26:00      -65.860      -16.610       -0.954       22.885       19.744       12.450      523.743      389.820      155.010        0.284        0.053       67.922        8.668        0.016      332.421        1.072      867.249
10/14/2013  07:27:00      -71.103      -11.015       -1.975       21.367       20.109       14.883      456.535      404.362      221.499        0.313        0.054       71.951       11.658        0.026      332.407        1.047      867.242
10/14/2013  07:28:00      -52.374      -25.977        2.638       24.117       22.043       13.912      581.606      485.895      193.533        0.234        0.063       58.462       12.496        0.046      332.485        1.177      867.242
10/14/2013  07:29:00      -65.335      -27.096       -2.794       30.049       30.321       16.414      902.932      919.382      269.413        0.355        0.105       70.730       14.503        0.042      332.497        1.196      867.252
10/14/2013  07:30:00      -72.728      -13.979       -1.077       24.067       19.451       14.836      579.236      378.343      220.112        0.333        0.059       74.059       14.165        0.037      332.480        1.169      867.261
10/14/2013  07:31:00      -78.711      -25.875       -1.101       23.232       21.297       15.247      539.716      453.567      232.477        0.405        0.061       82.855       14.927        0.032      332.508        1.215      867.257
10/14/2013  07:32:00      -80.499      -23.974       -4.871       20.532       19.939       13.069      421.567      397.554      170.790        0.403        0.049       83.993       14.339        0.029      332.492        1.190      867.248
10/14/2013  07:33:00      -65.675       -7.560       -1.210       31.484       18.359       11.720      991.212      337.040      137.361        0.292        0.073       66.108       12.702        0.037      332.548        1.281      867.253
10/14/2013  07:34:00      -90.227      -41.005      -11.842       16.999       13.430        9.583      288.959      180.365       91.835        0.526        0.028       99.108        6.612        0.004      332.556        1.295      867.263
10/14/2013  07:35:00      -73.871      -22.086       -5.139       17.762       20.552        9.235      315.497      422.385       85.294        0.340        0.041       77.102        6.767        0.008      332.554        1.291      867.268
10/14/2013  07:36:00      -61.951      -26.826       -9.424       15.157       17.581       11.642      229.720      309.098      135.530        0.266        0.034       67.510        5.126        0.006      332.573        1.323      867.271
10/14/2013  07:37:00      -65.136       -7.997       -6.335       17.925       17.905       13.189      321.308      320.575      173.942        0.258        0.041       65.625       10.130        0.024      332.508        1.216      867.287
10/14/2013  07:38:00      -61.239      -25.916       -0.026       20.422       16.721       10.794      417.077      279.592      116.515        0.262        0.041       66.497       10.587        0.025      332.596        1.362      867.290
10/14/2013  07:39:00      -90.303      -28.869       -6.523       19.053       15.368        9.843      363.033      236.171       96.884        0.486        0.035       94.805        5.277        0.003      332.562        1.306      867.294
10/14/2013  07:40:00      -72.120      -46.292       -7.263       17.196       17.424        9.298      295.714      303.594       86.444        0.404        0.034       85.698        6.804        0.006      332.615        1.393      867.302
10/14/2013  07:41:00      -84.245      -55.583      -10.226       10.786       16.341       11.372      116.338      267.021      129.318        0.540        0.026      100.929        7.710        0.006      332.615        1.393      867.303
10/14/2013  07:42:00      -68.855      -33.180       -0.511       23.112       16.018       16.444      534.179      256.588      270.417        0.345        0.053       76.433       11.213        0.022      332.595        1.359      867.313
10/14/2013  07:43:00      -87.689      -33.980       -9.850       13.000       15.800        9.557      169.012      249.651       91.338        0.473        0.026       94.043        4.004        0.002      332.615        1.391      867.314
10/14/2013  07:44:00      -84.799      -21.000       -2.930       17.463       15.496        8.229      304.969      240.132       67.724        0.413        0.031       87.361        6.465        0.005      332.684        1.507      867.326
10/14/2013  07:45:00      -63.360      -32.527       -3.465       30.267       13.858        8.507      916.080      192.054       72.377        0.313        0.059       71.222        8.429        0.014      332.740        1.600      867.333
10/14/2013  07:46:00      -55.806      -21.986        2.785       24.987       14.014       14.485      624.330      196.392      209.813        0.232        0.052       59.981       15.157        0.064      332.773        1.654      867.336
10/14/2013  07:47:00      -41.337      -24.592        6.946       25.005       21.469       12.632      625.264      460.903      159.566        0.180        0.062       48.099        9.909        0.042      332.835        1.758      867.335
10/14/2013  07:48:00      -73.173      -30.374       -8.085       12.962       13.406        7.888      168.001      179.714       62.225        0.338        0.020       79.227        5.683        0.005      332.815        1.724      867.337
10/14/2013  07:49:00      -46.075      -37.393        3.847       25.565       15.358       17.162      653.570      235.875      294.519        0.236        0.059       59.339       12.521        0.045      332.866        1.807      867.339
10/14/2013  07:50:00      -35.885      -33.239        1.051       27.443       13.879       15.042      753.108      192.629      226.277        0.178        0.059       48.914       12.208        0.062      332.884        1.838      867.346
10/14/2013  07:51:00      -18.227      -26.705        3.777       21.973       11.357       12.886      482.811      128.990      166.056        0.092        0.039       32.332        5.712        0.031      332.959        1.961      867.354
10/14/2013  07:52:00      -59.226      -24.703       -4.251       18.559       20.554       13.292      344.454      422.466      176.684        0.254        0.047       64.172       11.820        0.034      333.019        2.060      867.366
10/14/2013  07:53:00      -66.622      -20.864       -9.776       13.878       16.086       10.291      192.612      258.773      105.907        0.276        0.028       69.812        5.139        0.005      333.011        2.046      867.366
10/14/2013  07:54:00      -60.467      -18.974       -4.855       16.142       14.618       12.235      260.578      213.672      149.691        0.233        0.031       63.374       10.542        0.028      333.016        2.056      867.376
10/14/2013  07:55:00      -64.235      -19.893       -4.336       18.369       14.716        9.827      337.437      216.572       96.570        0.260        0.033       67.245        7.264        0.012      333.029        2.077      867.370
10/14/2013  07:56:00      -73.330      -36.199       -5.945        8.966       14.354        7.202       80.393      206.050       51.873        0.353        0.017       81.778        3.958        0.002      333.069        2.143      867.378
10/14/2013  07:57:00      -43.044      -37.531       -3.399       21.140       14.481       12.802      446.886      209.695      163.879        0.205        0.041       57.108       11.445        0.040      333.123        2.232      867.386
10/14/2013  07:58:00      -36.278      -28.022       -7.391       21.353        9.485        7.787      455.971       89.961       60.643        0.138        0.030       45.840        5.449        0.014      333.147        2.271      867.402
10/14/2013  07:59:00      -24.042      -10.635       -0.227       21.530        9.656        9.717      463.534       93.245       94.423        0.067        0.033       26.289        9.354        0.127      333.256        2.451      867.411
10/14/2013  08:00:00       -9.582      -13.206        4.444        9.381        7.955        9.894       88.000       63.276       97.895        0.027        0.012       16.315        2.867        0.031      333.307        2.537      867.422
10/14/2013  08:01:00      -31.186        6.409       -6.311       14.937       10.724       10.168      223.103      114.998      103.386        0.075        0.022       31.838       10.131        0.101      333.284        2.497      867.441
10/14/2013  08:02:00      -21.369       -6.984       -4.384       17.422        9.212        7.968      303.535       84.865       63.492        0.049        0.023       22.481        4.347        0.037      333.333        2.580      867.460
10/14/2013  08:03:00       -4.675      -10.377        6.787       12.330        9.500        9.922      152.030       90.245       98.451        0.026        0.017       11.381        7.566        0.442      333.514        2.880      867.475
10/14/2013  08:04:00      -30.252       -6.141       -6.332        8.793       12.910        7.756       77.325      166.667       60.160        0.065        0.015       30.869        5.082        0.027      333.280        2.492      867.493
10/14/2013  08:05:00      -26.528      -17.032       -8.098        9.032        7.654        6.931       81.577       58.580       48.043        0.062        0.009       31.525        5.284        0.028      333.389        2.670      867.514
10/14/2013  08:06:00      -22.480      -16.092       -5.833        8.493        5.461        6.029       72.133       29.821       36.354        0.047        0.007       27.646        5.145        0.035      333.400        2.690      867.537
10/14/2013  08:07:00      -16.170       -6.651       -6.522       10.893        5.497        4.989      118.655       30.219       24.889        0.026        0.009       17.485        4.063        0.054      333.539        2.921      867.542
10/14/2013  08:08:00      -30.497      -10.004       -4.037       11.043        9.397        8.271      121.943       88.298       68.415        0.066        0.014       32.096        3.785        0.014      333.516        2.881      867.546
10/14/2013  08:09:00      -29.005      -12.708       -4.340        6.294        8.995        7.835       39.613       80.903       61.394        0.060        0.009       31.667        4.201        0.018      333.545        2.930      867.549
10/14/2013  08:10:00      -23.195       -7.396       -2.690       11.504        8.319        6.269      132.334       69.205       39.302        0.042        0.012       24.346        4.477        0.034      333.576        2.980      867.559
10/14/2013  08:11:00      -41.444       -1.244       -2.079       11.727        8.296        5.968      137.534       68.826       35.615        0.098        0.012       41.462        3.046        0.005      333.511        2.872      867.573
10/14/2013  08:12:00      -32.816        1.557       -5.227       10.846        4.514        3.873      117.641       20.373       14.997        0.063        0.008       32.853        3.136        0.009      333.560        2.953      867.590
10/14/2013  08:13:00      -34.191       -4.682       -1.463        8.516        6.501        5.698       72.514       42.258       32.464        0.067        0.007       34.510        2.774        0.006      333.605        3.028      867.609
10/14/2013  08:14:00      -50.241      -12.265       -3.536        9.083        9.043        9.831       82.506       81.782       96.648        0.147        0.013       51.717        4.864        0.009      333.617        3.049      867.616
10/14/2013  08:15:00      -41.841      -16.237       -5.158       16.279       11.535        7.197      264.996      133.051       51.794        0.125        0.022       44.881        5.251        0.014      333.679        3.153      867.623
10/14/2013  08:16:00      -22.635      -36.592       -3.333       12.024       19.156       13.082      144.569      366.952      171.126        0.127        0.034       43.027       10.404        0.058      333.712        3.207      867.628
10/14/2013  08:17:00      -14.608      -12.132        2.563       15.827       16.403       15.209      250.487      269.059      231.307        0.056        0.038       18.989       12.965        0.466      333.944        3.591      867.631
10/14/2013  08:18:00      -20.753      -28.832        1.559       17.240       16.605       13.171      297.211      275.733      173.468        0.101        0.037       35.524        8.868        0.062      333.782        3.323      867.644
10/14/2013  08:19:00      -13.085      -21.647       -2.619        9.913       17.498       10.349       98.272      306.192      107.095        0.058        0.026       25.295        7.762        0.094      333.838        3.416      867.654
10/14/2013  08:20:00      -23.362       -6.568        0.509       19.264       12.098        7.605      371.110      146.357       57.830        0.058        0.029       24.268        9.440        0.151      333.883        3.489      867.667
10/14/2013  08:21:00      -20.377       -5.009        8.484       15.071        6.653        8.206      227.122       44.266       67.339        0.043        0.017       20.983        8.076        0.148      333.896        3.513      867.679
10/14/2013  08:22:00       -7.659       11.141       27.382       11.916       14.455        9.703      141.994      208.938       94.152        0.069        0.022       13.519        7.249        0.287      334.477        4.475      867.685
10/14/2013  08:23:00        2.349       26.315       38.724       15.266       15.425        7.747      233.064      237.928       60.019        0.136        0.027       26.419        2.401        0.008      334.332        4.236      867.683
10/14/2013  08:24:00        1.747        9.032       36.832       13.001       21.652       13.635      169.016      468.794      185.903        0.113        0.041        9.200       13.942        2.297      334.420        4.379      867.683
10/14/2013  08:25:00        1.952        6.490       25.970       13.065       31.035       13.081      170.699      963.180      171.108        0.101        0.065        6.777        8.252        1.483      334.393        4.337      867.675
10/14/2013  08:26:00        5.561       16.244       16.430       14.022       18.493       11.299      196.612      341.979      127.660        0.062        0.033       17.170        7.031        0.168      334.584        4.654      867.679
10/14/2013  08:27:00       -4.527      -19.426       27.759       11.318       28.080       15.556      128.106      788.483      241.981        0.116        0.058       19.946       11.434        0.329      334.519        4.545      867.681
10/14/2013  08:28:00       -8.616       28.522       63.480       13.627       24.362       16.362      185.693      593.521      267.708        0.298        0.052       29.795       14.753        0.245      334.458        4.444      867.687
10/14/2013  08:29:00       36.266       34.780       46.239       35.605       19.986       17.337     1267.693      399.455      300.587        0.331        0.098       50.248       19.717        0.154      334.141        3.919      867.698
10/14/2013  08:30:00       74.206       59.061       11.040       22.698       14.378       23.359      515.193      206.730      545.641        0.519        0.063       94.841       14.127        0.022      333.833        3.405      867.709
10/14/2013  08:31:00       71.751       42.055        0.750       31.759       25.388       30.149     1008.633      644.528      908.980        0.474        0.128       83.167       21.969        0.070      334.118        3.879      867.731
10/14/2013  08:32:00       80.494       53.502       10.870       18.487       25.121       21.822      341.768      631.050      476.217        0.545        0.072       96.653       11.965        0.015      334.000        3.685      867.748
10/14/2013  08:33:00       60.241       28.995      -10.761       14.266       21.304       18.593      203.505      453.862      345.716        0.279        0.050       66.855        9.007        0.018      333.961        3.620      867.769
10/14/2013  08:34:00       61.565       42.250        3.047       18.373       14.139       20.530      337.556      199.898      421.486        0.327        0.048       74.668       14.291        0.037      334.020        3.718      867.785
10/14/2013  08:35:00       41.300       42.322        1.659       16.903       17.735       22.550      285.706      314.534      508.491        0.230        0.055       59.134        8.149        0.019      334.152        3.936      867.799
10/14/2013  08:36:00       16.470       -2.243       -6.729       22.299       35.160       29.817      497.256     1236.235      889.032        0.147        0.131       16.622       21.387        1.656      334.263        4.123      867.817
10/14/2013  08:37:00       -6.025       37.091       42.728       17.736       37.647       24.964      314.562     1417.262      623.213        0.280        0.118       37.577       21.489        0.327      334.670        4.796      867.831
10/14/2013  08:38:00       -3.431       15.984       40.941       22.484       43.384       33.650      505.527     1882.130     1132.354        0.273        0.176       16.348       29.901        3.345      334.817        5.040      867.843
10/14/2013  08:39:00      123.020       74.033       35.183       44.828       28.143       33.041     2009.525      792.014     1091.709        1.287        0.195      143.579       22.179        0.024      334.026        3.727      867.852
10/14/2013  08:40:00       81.884       72.411       42.277       38.850       35.327       41.018     1509.316     1247.974     1682.476        0.909        0.222      109.308       22.819        0.044      334.175        3.974      867.855
10/14/2013  08:41:00       68.760       26.211       13.857       35.506       32.616       23.280     1260.697     1063.805      541.966        0.424        0.143       73.586       17.237        0.055      334.128        3.896      867.865
10/14/2013  08:42:00       45.029       47.574       10.364       44.583       31.324       30.451     1987.646      981.216      927.249        0.415        0.195       65.505       11.675        0.032      334.403        4.353      867.884
10/14/2013  08:43:00       -5.978       16.989       16.675       21.056       25.982       22.421      443.361      675.088      502.697        0.111        0.081       18.010       18.104        1.011      334.589        4.661      867.903
10/14/2013  08:44:00       43.942       35.527       44.591       35.159       28.045       30.849     1236.145      786.518      951.686        0.408        0.149       56.507       22.492        0.158      334.396        4.341      867.915
10/14/2013  08:45:00       54.651       23.335       18.415       34.293       28.620       32.114     1176.043      819.111     1031.331        0.345        0.151       59.424       22.904        0.149      334.218        4.046      867.924
10/14/2013  08:46:00      108.055       71.203       41.652       39.886       33.640       30.472     1590.904     1131.670      928.520        1.107        0.183      129.406       15.595        0.015      334.291        4.168      867.932
10/14/2013  08:47:00       53.914       48.045       48.735       32.285       33.308       29.585     1042.347     1109.392      875.252        0.531        0.151       72.215       23.926        0.110      334.217        4.044      867.948
10/14/2013  08:48:00       21.915       52.309       56.380       30.812       31.215       23.706      949.362      974.404      561.980        0.444        0.124       56.714       15.843        0.078      334.546        4.590      867.956
10/14/2013  08:49:00       36.763       27.891       14.583       34.502       40.871       25.747     1190.417     1670.458      662.903        0.293        0.176       46.146       16.145        0.122      334.581        4.650      867.961
10/14/2013  08:50:00       74.084       78.569       14.619       43.951       39.802       34.959     1931.666     1584.187     1222.146        0.831        0.237      107.988       24.476        0.051      334.497        4.508      867.962
10/14/2013  08:51:00       88.942       72.869       24.667       41.701       39.133       34.742     1738.960     1531.421     1206.980        0.915        0.224      114.981       26.069        0.051      334.262        4.118      867.965
10/14/2013  08:52:00       65.010       68.096       15.417       38.521       36.132       40.020     1483.887     1305.544     1601.626        0.675        0.220       94.145       23.239        0.061      334.382        4.318      867.969
10/14/2013  08:53:00      101.881       66.816       -2.285       30.195       28.035       30.394      911.724      785.945      923.799        0.873        0.131      121.837       15.030        0.015      334.264        4.124      867.956
10/14/2013  08:54:00       67.213       56.328        5.138       27.350       27.290       25.537      748.031      744.732      652.163        0.493        0.107       87.695       15.611        0.032      334.457        4.442      867.952
10/14/2013  08:55:00       79.419       61.786        5.299       28.546       27.233       26.994      814.897      741.646      728.651        0.622        0.114      100.622       17.774        0.031      334.437        4.409      867.951
10/14/2013  08:56:00       36.605       29.069       -4.586       42.255       40.482       27.682     1785.526     1638.785      766.266        0.320        0.210       46.743       21.941        0.220      334.576        4.640      867.951
10/14/2013  08:57:00       60.511       38.144       16.428       46.328       39.550       25.635     2146.278     1564.228      657.170        0.488        0.218       71.530       27.459        0.147      334.837        5.073      867.954
10/14/2013  08:58:00      107.095       69.091        2.046       24.612       32.110       28.607      605.735     1031.070      818.342        0.935        0.123      127.448       17.001        0.018      334.505        4.522      867.959
10/14/2013  08:59:00       96.567       79.568        7.787       29.223       27.716       33.132      853.956      768.176     1097.756        0.922        0.136      125.125       20.343        0.026      334.472        4.467      867.966
10/14/2013  09:00:00       62.897       35.389       34.685       39.781       35.298       35.798     1582.539     1245.950     1281.501        0.526        0.205       72.169       25.616        0.126      334.854        5.101      867.983
10/14/2013  09:01:00       82.290       51.518       15.346       55.940       36.936       27.957     3129.301     1364.273      781.589        0.747        0.264       97.087       26.935        0.077      334.730        4.896      867.982
10/14/2013  09:02:00      113.374       80.103       12.935       28.654       24.610       26.575      821.056      605.640      706.255        1.078        0.107      138.817       15.115        0.012      334.453        4.435      867.971
10/14/2013  09:03:00       76.679       75.683       14.112       29.013       20.196       31.060      841.732      407.885      964.724        0.701        0.111      107.738       10.238        0.009      334.562        4.617      867.964
10/14/2013  09:04:00       32.339       28.247       41.775       29.070       27.612       19.597      845.050      762.398      384.057        0.279        0.100       42.939       12.998        0.092      335.158        5.605      867.961
10/14/2013  09:05:00       26.393       27.347       40.696       27.028       32.506       24.938      730.508     1056.657      621.912        0.275        0.120       38.006       23.491        0.382      334.916        5.204      867.960
10/14/2013  09:06:00       10.062       27.628       42.193       23.483       30.420       22.281      551.461      925.351      496.452        0.231        0.099       29.403       17.002        0.334      335.031        5.396      867.958
10/14/2013  09:07:00        8.825       -6.951       41.806       15.244       27.443       16.731      232.386      753.094      279.919        0.157        0.063       11.233       12.579        1.254      335.189        5.659      867.962
10/14/2013  09:08:00       39.146       51.270       -3.152       32.167       36.499       19.428     1034.693     1332.178      377.443        0.346        0.137       64.506       10.514        0.027      334.910        5.193      867.959
10/14/2013  09:09:00       80.664       30.390        4.327       34.096       31.279       33.827     1162.537      978.392     1144.291        0.537        0.164       86.198       23.331        0.073      334.959        5.276      867.957
10/14/2013  09:10:00       70.657       62.211        5.805       38.099       35.100       30.911     1451.497     1232.035      955.493        0.627        0.182       94.141       20.736        0.049      334.936        5.237      867.958
10/14/2013  09:11:00      110.479       81.688       23.094       26.053       20.484       37.136      678.771      419.584     1379.096        1.094        0.124      137.399       10.015        0.005      334.710        4.864      867.970
10/14/2013  09:12:00       74.094       58.743        2.353       18.561       19.641       14.623      344.505      385.773      213.839        0.494        0.047       94.555        7.689        0.007      334.685        4.821      867.982
10/14/2013  09:13:00       38.362       -7.136       20.095       45.586       35.799       26.995     2078.047     1281.571      728.733        0.301        0.204       39.020       23.186        0.353      335.116        5.537      867.981
10/14/2013  09:14:00       17.466       29.988       15.214       25.748       33.004       23.151      662.945     1089.257      535.949        0.186        0.114       34.704       18.382        0.281      335.316        5.869      867.986
10/14/2013  09:15:00       41.672       50.466       12.600       32.597       29.987       27.886     1062.588      899.211      777.634        0.359        0.137       65.448       18.573        0.081      335.035        5.403      867.977
10/14/2013  09:16:00       46.449       50.715      -10.612       33.226       33.512       15.638     1103.945     1123.037      244.536        0.366        0.124       68.771        4.337        0.004      334.975        5.303      867.976
10/14/2013  09:17:00       17.126       57.267       12.318       30.231       40.742       25.209      913.899     1659.930      635.471        0.347        0.160       59.773       22.816        0.146      335.416        6.036      867.976
10/14/2013  09:18:00       -3.052       29.590       20.704       27.914       46.354       27.403      779.200     2148.738      750.911        0.250        0.184       29.747       27.027        0.825      335.568        6.288      867.960
10/14/2013  09:19:00       76.469       53.960       27.031       41.857       32.032       28.698     1751.986     1026.049      823.549        0.654        0.180       93.590       23.411        0.063      335.190        5.659      867.950
10/14/2013  09:20:00       85.401       69.611        5.713       32.236       23.990       24.931     1039.187      575.506      621.531        0.720        0.112      110.177       18.969        0.030      334.902        5.181      867.947
10/14/2013  09:21:00       62.437       60.656        0.942       30.184       23.868       33.331      911.044      569.680     1110.955        0.508        0.130       87.049       15.315        0.031      335.181        5.644      867.946
10/14/2013  09:22:00      105.951       75.967        3.126       32.011       24.494       30.401     1024.711      599.934      924.223        0.978        0.127      130.371        4.788        0.001      335.046        5.421      867.945
10/14/2013  09:23:00       76.679       72.433       -2.157       29.833       17.675       20.837      890.020      312.409      434.198        0.638        0.082      105.481       15.661        0.022      334.867        5.123      867.945
10/14/2013  09:24:00        3.355       34.504        3.440       25.435       19.911       19.308      646.927      396.433      372.805        0.131        0.071       34.667       11.911        0.118      335.596        6.335      867.951
10/14/2013  09:25:00       11.909       39.081       61.795       36.233       45.721       24.540     1312.825     2090.430      602.199        0.475        0.200       40.855       28.837        0.498      335.739        6.574      867.960
10/14/2013  09:26:00       43.933       91.424       79.986       43.217       28.109       29.121     1867.695      790.100      848.054        1.010        0.175      101.433       27.767        0.075      335.321        5.877      867.984
10/14/2013  09:27:00       49.301       43.844       46.058       50.198       33.829       37.854     2519.869     1144.384     1432.949        0.578        0.255       65.976       28.049        0.181      335.390        5.992      868.000
10/14/2013  09:28:00       97.953       54.551       22.218       38.763       55.296       37.136     1502.547     3057.627     1379.064        0.950        0.297      112.119       34.329        0.094      335.152        5.594      868.008
10/14/2013  09:29:00       23.702       46.906       64.548       30.791       65.279       36.617      948.061     4261.392     1340.791        0.674        0.328       52.554       39.954        0.578      335.693        6.497      868.016
10/14/2013  09:30:00       13.060       74.023       89.167       51.077       49.689       35.227     2608.837     2468.975     1240.954        0.996        0.316       75.167       29.612        0.155      335.712        6.529      868.021
10/14/2013  09:31:00       93.607       90.512       42.887       67.225       49.439       49.660     4519.182     2444.257     2466.069        1.411        0.471      130.210       28.479        0.048      335.425        6.051      868.035
10/14/2013  09:32:00      100.784       75.850       22.656       49.411       46.604       45.099     2441.408     2171.916     2033.962        1.153        0.332      126.138       22.512        0.032      335.446        6.085      868.045
10/14/2013  09:33:00       88.321       61.972       23.536       56.338       53.368       33.511     3174.009     2848.141     1122.955        0.967        0.357      107.894       30.272        0.079      335.671        6.461      868.061
10/14/2013  09:34:00      104.991       64.343       -9.674       39.906       28.212       24.209     1592.464      795.930      586.091        0.912        0.149      123.139       16.629        0.018      335.243        5.747      868.084
10/14/2013  09:35:00      102.422       66.882       10.535       46.873       38.562       28.830     2197.101     1487.012      831.163        0.979        0.226      122.326       16.512        0.018      335.310        5.859      868.089
10/14/2013  09:36:00      110.701       80.139        1.322       32.536       18.483       24.319     1058.604      341.611      591.403        1.033        0.100      136.664       13.484        0.010      335.230        5.727      868.103
10/14/2013  09:37:00       83.101       50.662       -0.245       23.623       27.805       21.273      558.033      773.091      452.530        0.563        0.089       97.326        8.496        0.008      335.278        5.805      868.100
10/14/2013  09:38:00       81.098       58.651       18.474       48.339       32.227       32.997     2336.665     1038.574     1088.832        0.741        0.223      100.084       25.297        0.064      335.710        6.526      868.100
10/14/2013  09:39:00       -0.641       41.870       73.339       26.965       55.427       29.014      727.122     3072.204      841.785        0.589        0.232       41.875       27.915        0.444      336.087        7.154      868.100
10/14/2013  09:40:00       65.991       56.819       67.865       53.430       53.874       42.538     2854.738     2902.384     1809.446        0.988        0.378       87.082       37.504        0.185      335.588        6.322      868.109
10/14/2013  09:41:00       51.939       54.312       60.806       29.032       29.814       23.286      842.885      888.855      542.250        0.581        0.114       75.149       16.091        0.046      335.531        6.226      868.111
10/14/2013  09:42:00       27.731       43.520       66.131       41.240       68.448       38.784     1700.735     4685.164     1504.229        0.746        0.395       51.604       42.060        0.664      335.766        6.617      868.117
10/14/2013  09:43:00       41.662      122.485      106.411       45.642       34.435       39.795     2083.177     1185.764     1583.650        1.646        0.243      129.377       30.633        0.056      335.493        6.165      868.124
10/14/2013  09:44:00       39.503       78.118       91.131       55.519       67.334       42.767     3082.326     4533.878     1828.987        1.270        0.472       87.538       46.190        0.278      335.723        6.546      868.135
10/14/2013  09:45:00        7.324      -19.267       22.959       22.918       44.355       39.795      525.231     1967.382     1583.640        0.251        0.204       20.612       37.902        3.381      336.063        7.114      868.131
10/14/2013  09:46:00       93.519       98.175       64.760       58.477       34.014       49.413     3419.561     1156.972     2441.628        1.480        0.351      135.588       46.892        0.120      335.505        6.184      868.138
10/14/2013  09:47:00       77.273       21.857       39.406       42.814       34.304       33.485     1833.064     1176.746     1121.221        0.607        0.207       80.305       28.602        0.127      335.621        6.377      868.145
10/14/2013  09:48:00       38.485       43.669       77.435       49.820       51.311       34.744     2481.994     2632.773     1207.116        0.785        0.316       58.207       38.027        0.427      336.019        7.040      868.133
10/14/2013  09:49:00       38.043       59.940       77.401       45.300       30.387       28.945     2052.067      923.394      837.800        0.742        0.191       70.994       22.395        0.100      335.662        6.446      868.138
10/14/2013  09:50:00       24.160       51.744       67.723       52.490       34.927       32.739     2755.244     1219.905     1071.850        0.645        0.252       57.106       24.752        0.188      336.030        7.059      868.131
10/14/2013  09:51:00      103.421       73.147       10.756       39.533       37.942       36.606     1562.860     1439.562     1340.029        1.025        0.217      126.674       22.057        0.030      335.864        6.782      868.148
10/14/2013  09:52:00       80.445       81.184       41.320       55.277       44.552       41.424     3055.580     1984.884     1715.954        1.076        0.338      114.290       30.877        0.073      336.085        7.150      868.150
10/14/2013  09:53:00      127.894       94.097       63.987       47.979       38.750       52.264     2301.990     1501.524     2731.578        1.792        0.327      158.780       35.288        0.049      335.726        6.553      868.163
10/14/2013  09:54:00       73.533       64.020       44.265       48.005       34.845       22.824     2304.486     1214.203      520.931        0.775        0.202       97.497       19.327        0.039      335.838        6.738      868.176
10/14/2013  09:55:00       55.317       35.509       58.771       44.207       26.267       33.916     1954.296      689.969     1150.286        0.578        0.190       65.734       28.928        0.194      336.024        7.049      868.173
10/14/2013  09:56:00       64.968       73.030       28.352       57.184       35.183       39.356     3269.967     1237.875     1548.931        0.821        0.303       97.746       38.070        0.152      336.135        7.233      868.163
10/14/2013  09:57:00       91.193       79.955        9.496       55.867       41.444       28.249     3121.168     1717.634      798.008        1.022        0.282      121.281       19.329        0.025      335.789        6.658      868.169
10/14/2013  09:58:00        1.724       86.801      -10.452       33.055       40.119       22.075     1092.603     1609.501      487.294        0.542        0.159       86.818       18.133        0.044      335.970        6.958      868.156
10/14/2013  09:59:00       20.526       17.952       15.321       31.854       26.526       21.068     1014.653      703.649      443.865        0.157        0.108       27.269       13.655        0.251      336.354        7.599      868.134
10/14/2013  10:00:00       71.728       42.644       22.471       55.274       41.300       25.788     3055.252     1705.669      665.020        0.645        0.271       83.447        8.499        0.010      336.403        7.681      868.128
10/14/2013  10:01:00       99.516       78.395        4.953       34.933       33.729       33.104     1220.308     1137.626     1095.885        0.976        0.173      126.685       22.244        0.031      336.027        7.052      868.099
10/14/2013  10:02:00       29.417       53.144       82.899       49.529       47.688       34.958     2453.115     2274.100     1222.057        0.825        0.297       60.743       26.926        0.196      336.581        7.980      868.089
10/14/2013  10:03:00       33.716      -35.590       27.002       43.870       51.105       33.456     1924.590     2611.691     1119.297        0.439        0.283       49.025       23.302        0.226      336.416        7.703      868.082
10/14/2013  10:04:00      101.247       76.746       32.132       72.727       63.591       34.753     5289.271     4043.805     1207.768        1.385        0.527      127.047       27.589        0.047      336.549        7.926      868.079
10/14/2013  10:05:00       95.544       88.586       -2.414       54.479       35.255       34.133     2967.921     1242.933     1165.086        1.118        0.269      130.292       19.650        0.023      336.206        7.352      868.084
10/14/2013  10:06:00       75.220       63.620        6.825       34.935       38.773       34.513     1220.471     1503.307     1191.124        0.683        0.196       98.517       23.818        0.058      336.253        7.431      868.090
10/14/2013  10:07:00       47.579       54.974      -14.155       30.173       21.243       27.342      910.404      451.248      747.577        0.380        0.105       72.705       10.841        0.022      336.060        7.109      868.091
10/14/2013  10:08:00       40.163       50.803        9.697       47.438       34.207       23.433     2250.353     1170.106      549.092        0.413        0.198       64.761       13.576        0.044      336.542        7.916      868.091
10/14/2013  10:09:00        5.548       56.094      -11.097       34.938       30.374       28.069     1220.697      922.550      787.870        0.312        0.147       56.368       20.367        0.131      336.312        7.530      868.088
10/14/2013  10:10:00      -24.113       25.128       -9.802       22.381       25.661       17.448      500.909      658.497      304.423        0.139        0.073       34.826       12.521        0.129      336.424        7.716      868.083
10/14/2013  10:11:00      -19.343       12.085       35.680       57.513       55.140       39.145     3307.752     3040.418     1532.317        0.484        0.394       22.808       39.380        2.981      336.603        8.014      868.083
10/14/2013  10:12:00       40.703       75.946       89.528       55.766       50.160       40.705     3109.830     2516.069     1656.872        1.136        0.364       86.166       34.574        0.161      336.631        8.062      868.074
10/14/2013  10:13:00      100.067       95.241       76.831       77.847       68.886       58.776     6060.141     4745.218     3454.619        1.962        0.713      138.145       62.433        0.204      336.560        7.943      868.074
10/14/2013  10:14:00      131.032      111.310       25.885       49.318       34.142       52.338     2432.237     1165.680     2739.318        1.828        0.317      171.928       20.102        0.014      336.347        7.588      868.088
10/14/2013  10:15:00       66.680       62.988       41.160       69.322       51.703       39.547     4805.589     2673.188     1563.972        0.957        0.452       91.726       33.700        0.135      336.579        7.976      868.094
10/14/2013  10:16:00       23.265       41.555       58.734       44.111       37.961       41.094     1945.776     1441.058     1688.716        0.540        0.254       47.624       36.715        0.594      336.905        8.520      868.087
10/14/2013  10:17:00       86.793       50.070       15.749       43.065       29.525       33.785     1854.621      871.718     1141.435        0.708        0.193      100.200       17.867        0.032      336.647        8.090      868.088
10/14/2013  10:18:00       56.573       59.395       12.689       40.536       36.513       33.494     1643.144     1333.213     1121.875        0.549        0.205       82.027       23.424        0.082      336.819        8.377      868.075
10/14/2013  10:19:00       50.597        9.076        9.110       56.224       39.132       26.162     3161.127     1531.306      684.458        0.405        0.269       51.405       28.392        0.305      337.114        8.868      868.053
10/14/2013  10:20:00       45.129       44.474       12.439       38.668       31.511       30.319     1495.184      992.946      919.212        0.379        0.170       63.361       23.672        0.140      337.045        8.754      868.052
10/14/2013  10:21:00       46.337       56.111       76.549       56.685       54.971       50.537     3213.232     3021.784     2553.994        0.997        0.439       72.770       43.877        0.364      337.148        8.928      868.043
10/14/2013  10:22:00       62.647       61.126       24.448       55.730       80.071       60.147     3105.785     6411.395     3617.609        1.069        0.657       87.527       38.085        0.189      336.729        8.226      868.046
10/14/2013  10:23:00       50.212      -29.574       53.011       52.459       93.130       53.654     2751.913     8673.278     2878.783        1.025        0.715       58.274       62.353        1.145      337.149        8.928      868.042
10/14/2013  10:24:00       68.362       57.894       36.373       65.083       70.891       34.771     4235.801     5025.553     1208.992        0.991        0.524       89.583       28.904        0.104      336.678        8.141      868.045
10/14/2013  10:25:00       47.531       53.077       68.049       58.082       44.801       47.787     3373.466     2007.126     2283.574        0.868        0.383       71.249       43.709        0.376      336.962        8.618      868.031
10/14/2013  10:26:00       74.097       45.531       43.102       77.449       49.874       57.714     5998.423     2487.396     3330.963        1.062        0.591       86.968       49.871        0.329      336.805        8.352      868.021
10/14/2013  10:27:00       43.748       88.514      107.149       45.404       51.630       34.751     2061.508     2665.671     1207.627        1.358        0.297       98.735       30.315        0.094      336.671        8.128      868.016
10/14/2013  10:28:00       19.391        2.284       35.262       44.988       63.283       35.715     2023.886     4004.681     1275.551        0.446        0.365       19.525       34.493        3.121      337.257        9.108      868.018
10/14/2013  10:29:00       46.745       -8.379       50.308       46.836       59.738       36.716     2193.605     3568.681     1348.077        0.595        0.356       47.490       27.901        0.345      337.324        9.221      868.014
10/14/2013  10:30:00       31.828       66.981       97.138       46.063       62.901       39.333     2121.773     3956.495     1547.091        1.128        0.381       74.158       39.984        0.291      337.141        8.915      868.012
10/14/2013  10:31:00       50.368       50.178       75.497       37.012       64.431       41.791     1369.921     4151.330     1746.453        0.901        0.363       71.097       44.651        0.394      336.924        8.552      868.018
10/14/2013  10:32:00       56.967       14.667       50.999       50.503       63.493       43.655     2550.503     4031.392     1905.734        0.727        0.424       58.825       36.679        0.389      336.938        8.574      868.008
10/14/2013  10:33:00       47.415       24.917       63.599       52.712       68.521       35.195     2778.586     4695.075     1238.680        0.781        0.436       53.564       37.753        0.497      337.034        8.736      868.002
10/14/2013  10:34:00      120.293       78.020       53.826       76.867       46.894       58.117     5908.515     2199.074     3377.605        1.747        0.574      143.379       50.426        0.124      337.031        8.731      867.987
10/14/2013  10:35:00      103.138      133.271      106.811       92.089       73.677       72.712     8480.339     5428.299     5287.104        2.950        0.960      168.519       65.195        0.150      336.962        8.614      867.972
10/14/2013  10:36:00       98.723       82.073       41.324       72.668       53.211       60.125     5280.669     2831.396     3615.032        1.496        0.586      128.383       46.823        0.133      337.207        9.024      867.972
10/14/2013  10:37:00       56.122       60.199       33.194       63.074       49.282       37.713     3978.315     2428.710     1422.263        0.785        0.391       82.301       41.625        0.256      337.320        9.215      867.960
10/14/2013  10:38:00      134.181       92.383        7.592       35.348       34.160       31.543     1249.494     1166.900      994.956        1.500        0.171      162.908        8.896        0.003      336.703        8.183      867.955
10/14/2013  10:39:00       47.669       37.811       -6.118       37.441       26.603       25.145     1401.839      707.714      632.280        0.324        0.137       60.844       28.637        0.222      336.553        7.931      867.954
10/14/2013  10:40:00       39.648       23.613       -3.536       23.736       22.509       21.242      563.411      506.664      451.226        0.183        0.076       46.147        6.809        0.022      336.879        8.476      867.938
10/14/2013  10:41:00        2.607      -45.005       -1.677       16.351       42.339       18.874      267.348     1792.595      356.219        0.223        0.121       45.080       17.387        0.149      337.240        9.081      867.923
10/14/2013  10:42:00        4.231      -29.701       33.472       34.491       89.879       48.729     1189.611     8078.223     2374.523        0.683        0.582       30.000       55.467        3.418      337.441        9.418      867.915
10/14/2013  10:43:00      157.753       75.469       34.992       94.762       64.003       57.650     8979.912     4096.444     3323.521        2.410        0.820      174.876       51.226        0.086      337.084        8.817      867.916
10/14/2013  10:44:00      160.932       93.359       26.439       65.275       50.435       57.886     4260.784     2543.717     3350.834        2.273        0.508      186.051       31.890        0.029      336.928        8.557      867.900
10/14/2013  10:45:00      139.984      104.433       26.527       48.564       43.116       40.995     2358.483     1858.959     1680.629        1.855        0.295      174.648       26.761        0.023      336.906        8.521      867.896
10/14/2013  10:46:00       49.382       68.934       69.903       51.650       52.362       39.301     2667.702     2741.728     1544.539        0.951        0.348       84.797       26.577        0.098      337.602        9.689      867.871
10/14/2013  10:47:00       79.370       26.736       47.333       83.926       41.867       53.358     7043.569     1752.837     2847.060        1.045        0.582       83.752       52.789        0.397      337.295        9.173      867.874
10/14/2013  10:48:00       29.623       54.530       63.613       53.508       42.513       52.578     2863.095     1807.315     2764.411        0.766        0.372       62.057       48.342        0.607      337.268        9.127      867.858
10/14/2013  10:49:00       24.152       62.102       74.936       26.509       54.277       33.258      702.702     2946.011     1106.121        0.740        0.238       66.634       38.613        0.336      337.182        8.984      867.851
10/14/2013  10:50:00       30.728       -0.707       15.150       42.495       49.619       20.605     1805.852     2462.088      424.556        0.293        0.235       30.736        8.579        0.078      337.221        9.049      867.837
10/14/2013  10:51:00       97.398       55.906       -3.491       54.078       24.605       33.602     2924.401      605.411     1129.116        0.864        0.233      112.303       20.348        0.033      337.058        8.777      867.827
10/14/2013  10:52:00      -60.328        5.568      -18.322       41.591       23.530       23.589     1729.798      553.656      556.462        0.342        0.142       60.584       17.033        0.079      336.870        8.461      867.803
10/14/2013  10:53:00        1.650       17.320       -4.705       33.614       51.018       33.556     1129.927     2602.849     1125.984        0.259        0.243       17.399       26.460        2.313      337.355        9.273      867.779
10/14/2013  10:54:00       46.382       45.003       15.015       49.253       44.882       37.896     2425.857     2014.370     1436.069        0.514        0.294       64.627       24.610        0.145      337.540        9.582      867.753
10/14/2013  10:55:00      108.655       96.845       12.596       53.865       47.607       45.869     2901.477     2266.416     2103.951        1.431        0.364      145.550       30.271        0.043      337.320        9.214      867.735
10/14/2013  10:56:00       91.993      108.312       53.129       63.869       46.775       70.902     4079.267     2187.917     5027.101        1.715        0.565      142.106       30.387        0.046      337.551        9.601      867.724
10/14/2013  10:57:00       80.521      130.824      134.724       76.810       67.071       51.487     5899.845     4498.492     2650.931        2.740        0.652      153.618       52.900        0.119      337.368        9.294      867.715
10/14/2013  10:58:00      149.319      117.194       79.267       70.510       67.403       52.277     4971.652     4543.172     2732.901        2.728        0.612      189.817       40.979        0.047      337.169        8.960      867.715
10/14/2013  10:59:00       81.590       49.181       63.620       49.643       84.587       40.670     2464.418     7154.972     1654.043        1.220        0.564       95.266       43.759        0.211      337.318        9.210      867.713
10/14/2013  11:00:00      143.706      107.574       52.355       94.951       74.959       82.499     9015.707     5618.835     6806.132        2.820        1.072      179.510       63.499        0.125      337.466        9.457      867.706
10/14/2013  11:01:00       83.540      112.327      113.764       95.357       56.947       43.885     9093.002     3242.957     1925.927        2.340        0.713      139.987       29.342        0.044      337.659        9.781      867.700
10/14/2013  11:02:00       56.429       65.377       32.725       57.838       51.743       33.366     3345.211     2677.373     1113.320        0.783        0.357       86.362       32.889        0.145      337.394        9.338      867.692
10/14/2013  11:03:00      133.148       76.913       24.888       51.190       56.627       54.867     2620.408     3206.657     3010.374        1.655        0.442      153.766       35.001        0.052      337.579        9.649      867.664
10/14/2013  11:04:00       72.214       45.453       45.089       51.036       60.681       48.176     2604.709     3682.219     2320.935        0.896        0.430       85.328       27.000        0.100      337.818       10.049      867.651
10/14/2013  11:05:00       38.759      -72.816       30.469       63.631       70.216       44.015     4048.896     4930.329     1937.333        0.932        0.546       82.489       35.840        0.189      337.633        9.739      867.618
10/14/2013  11:06:00       74.421      -97.031       21.051       49.620       49.273       41.345     2462.116     2427.816     1709.390        1.100        0.330      122.285       27.381        0.050      337.508        9.529      867.604
10/14/2013  11:07:00       42.519      -59.988        1.919       31.599       46.042       40.224      998.469     2119.872     1618.003        0.507        0.237       73.528       36.153        0.242      337.240        9.081      867.590
10/14/2013  11:08:00       20.631       11.817       46.625       41.502       51.085       35.958     1722.403     2609.723     1292.961        0.418        0.281       23.775       37.035        2.427      337.962       10.290      867.572
10/14/2013  11:09:00       75.732       64.011       76.679       64.246       44.109       41.515     4127.589     1945.648     1723.507        1.175        0.390       99.160       42.081        0.180      337.631        9.736      867.560
10/14/2013  11:10:00       57.912      150.804      136.108       77.252       62.888       56.888     5967.849     3954.921     3236.188        2.889        0.658      161.541       46.788        0.084      337.723        9.887      867.518
10/14/2013  11:11:00      104.060       83.338       82.956       84.397       55.031       58.735     7122.838     3028.421     3449.764        1.913        0.680      133.318       43.675        0.107      337.679        9.814      867.518
10/14/2013  11:12:00       46.477       49.547       74.808       51.441       58.641       48.790     2646.157     3438.734     2380.470        0.934        0.423       67.934       40.760        0.360      337.969       10.302      867.508
10/14/2013  11:13:00       91.280       93.070       57.606       53.633       61.645       49.119     2876.479     3800.119     2412.683        1.470        0.454      130.361       38.563        0.088      337.610        9.700      867.516
10/14/2013  11:14:00       91.191       66.752       38.712       37.943       27.933       35.509     1439.707      780.237     1260.916        0.887        0.174      113.011       21.196        0.035      337.301        9.184      867.513
10/14/2013  11:15:00       23.328      127.984      134.989       56.010       68.331       46.118     3137.082     4669.153     2126.849        2.254        0.497      130.093       48.121        0.137      337.606        9.691      867.495
10/14/2013  11:16:00       43.740       32.627       14.590       53.481       39.665       22.251     2860.253     1573.296      495.091        0.406        0.246       54.569       22.839        0.175      337.469        9.465      867.498
10/14/2013  11:17:00       71.130        1.645       19.771       58.708       57.580       35.090     3446.628     3315.459     1231.298        0.672        0.400       71.149       34.940        0.241      337.619        9.715      867.492
10/14/2013  11:18:00      154.366       96.507       58.295       69.846       38.794       53.059     4878.502     1504.955     2815.239        2.287        0.460      182.051       43.455        0.057      337.658        9.780      867.480
10/14/2013  11:19:00      172.519      116.619       27.907       76.301       63.104       63.777     5821.909     3982.065     4067.556        2.900        0.694      208.238       49.122        0.056      337.680        9.815      867.468
10/14/2013  11:20:00       52.492       67.445       75.624       81.045       76.180       48.016     6568.333     5803.349     2305.502        1.385        0.734       85.465       47.145        0.304      338.242       10.759      867.467
10/14/2013  11:21:00       28.451       68.098       90.154       50.367       60.240       58.986     2536.871     3628.807     3479.380        1.161        0.482       73.803       50.955        0.477      338.247       10.769      867.460
10/14/2013  11:22:00      114.214      142.144      120.719       71.884       66.982       73.305     5167.331     4486.598     5373.682        3.142        0.751      182.345       64.504        0.125      337.539        9.578      867.451
10/14/2013  11:23:00       94.862       94.405       61.956       39.029       41.795       38.401     1523.258     1746.807     1474.657        1.325        0.237      133.832       21.819        0.027      337.532        9.570      867.433
10/14/2013  11:24:00      117.534     -141.323      -24.068       88.834      100.709       44.384     7891.391    10142.282     1969.949        2.718        1.000      183.811       51.218        0.078      337.880       10.151      867.407
10/14/2013  11:25:00       96.877      -56.299       36.202       64.209      111.648       56.291     4122.858    12465.291     3168.725        1.681        0.988      112.047       75.167        0.450      337.725        9.891      867.402
10/14/2013  11:26:00       92.590       85.511       58.301       74.971       70.336       69.673     5620.713     4947.214     4854.270        1.735        0.771      126.036       55.243        0.192      337.957       10.281      867.379
10/14/2013  11:27:00      164.677      103.659       12.598       73.434       42.660       41.157     5392.497     1819.836     1693.894        2.346        0.445      194.586       18.357        0.009      337.588        9.660      867.391
10/14/2013  11:28:00       84.978       75.321        5.170       79.878       46.949       42.812     6380.416     2204.181     1832.905        1.167        0.521      113.554       23.953        0.044      337.890       10.170      867.378
10/14/2013  11:29:00      140.846       95.070       16.385       69.601       66.949       55.345     4844.325     4482.180     3063.066        2.076        0.619      169.929       37.964        0.050      337.763        9.956      867.376
10/14/2013  11:30:00      135.170       84.751       47.227       65.658       56.985       44.120     4311.019     3247.322     1946.560        1.859        0.475      159.542       21.683        0.018      338.048       10.434      867.358
10/14/2013  11:31:00       69.394       46.865       24.135       46.383       36.153       36.840     2151.378     1307.016     1357.214        0.620        0.241       83.737       12.371        0.022      338.472       11.147      867.356
10/14/2013  11:32:00       76.560       33.819       33.165       61.998       61.605       51.445     3843.728     3795.123     2646.617        0.919        0.514       83.697       49.270        0.347      338.004       10.362      867.368
10/14/2013  11:33:00       30.736       -8.660       33.880       66.166       64.177       50.602     4377.880     4118.628     2560.579        0.661        0.553       31.932       47.955        2.255      338.054       10.446      867.354
10/14/2013  11:34:00       -4.775      -29.969       19.690       74.813       63.800       44.159     5596.991     4070.458     1950.053        0.646        0.581       30.347       44.432        2.144      338.141       10.591      867.331
10/14/2013  11:35:00       75.046       41.098       28.689       89.749       64.101       45.757     8054.840     4108.992     2093.721        1.120        0.713       85.563       34.630        0.164      338.332       10.911      867.323
10/14/2013  11:36:00      191.055      105.234        8.132       73.940       50.393       55.131     5467.107     2539.484     3039.424        2.934        0.552      218.120       29.900        0.019      337.861       10.119      867.314
10/14/2013  11:37:00      115.972       74.765       12.257       69.645       35.588       35.588     4850.412     1266.516     1266.480        1.328        0.369      137.983        8.062        0.003      337.939       10.252      867.309
10/14/2013  11:38:00       15.919       73.273        8.113       35.269       58.876       38.599     1243.908     3466.347     1489.846        0.594        0.310       74.982       33.733        0.202      338.386       11.003      867.288
10/14/2013  11:39:00       40.730       67.845       -0.924       38.631       47.130       31.439     1492.339     2221.222      988.415        0.548        0.235       79.133       21.929        0.077      338.278       10.822      867.282
10/14/2013  11:40:00       32.664       11.862       10.511       50.889       36.793       26.251     2589.726     1353.759      689.095        0.297        0.232       34.752       25.361        0.533      338.760       11.630      867.291
10/14/2013  11:41:00       39.054       23.819       42.150       52.951       60.937       40.604     2803.810     3713.292     1648.679        0.602        0.408       45.745       26.833        0.344      338.896       11.859      867.287
10/14/2013  11:42:00       70.718       70.708       58.644       80.346       48.102       42.093     6455.547     2313.762     1771.845        1.199        0.527      100.003       33.592        0.113      339.000       12.034      867.295
10/14/2013  11:43:00       92.731       92.178       52.160      121.150       69.227       64.470    14677.345     4792.430     4156.358        2.172        1.181      130.751       61.606        0.222      338.842       11.767      867.289
10/14/2013  11:44:00       97.402      171.734      137.466      113.701       92.149       79.750    12927.830     8491.481     6360.052        4.282        1.389      197.433       75.036        0.144      338.169       10.635      867.296
10/14/2013  11:45:00       89.793      113.609       99.528       58.649       51.012       45.911     3439.710     2602.200     2107.806        1.951        0.407      144.810       36.819        0.065      338.050       10.437      867.322
10/14/2013  11:46:00       47.238       63.482       66.549       59.228       50.787       41.652     3507.913     2579.269     1734.897        0.925        0.391       79.129       33.847        0.183      338.368       10.972      867.313
10/14/2013  11:47:00       49.258       52.426       54.833       55.535       51.625       39.421     3084.189     2665.181     1554.052        0.774        0.365       71.936       37.729        0.275      338.636       11.421      867.317
10/14/2013  11:48:00      190.940      103.518       43.697       92.508       73.488       60.694     8557.772     5400.553     3683.742        3.336        0.882      217.196       19.490        0.008      338.239       10.753      867.316
10/14/2013  11:49:00      108.196       94.193       23.536       94.137       59.902       62.022     8861.854     3588.304     3846.743        1.871        0.815      143.452       31.317        0.048      338.238       10.753      867.322
10/14/2013  11:50:00        4.000       93.062        0.202       53.691       85.688       41.993     2882.686     7342.388     1763.427        1.033        0.599       93.148       43.412        0.217      338.244       10.764      867.314
10/14/2013  11:51:00      -49.689      111.150      -33.101       93.578       57.089       24.854     8756.774     3259.109      617.734        1.427        0.632      121.751       17.056        0.020      337.915       10.211      867.300
10/14/2013  11:52:00      -80.810       88.432       -3.161       71.004       61.835       38.939     5041.597     3823.526     1516.232        1.237        0.519      119.794       36.786        0.094      338.466       11.135      867.286
10/14/2013  11:53:00       84.370      -63.124        4.393       67.473       57.958       42.245     4552.654     3359.169     1784.642        1.041        0.485      105.370       41.465        0.155      338.640       11.429      867.298
10/14/2013  11:54:00       25.480      -21.604       21.091       53.437       72.229       44.690     2855.470     5217.031     1997.161        0.581        0.503       33.407       49.656        2.209      338.768       11.644      867.282
10/14/2013  11:55:00       26.635      -27.959       16.726       46.792       55.340       36.399     2189.484     3062.520     1324.895        0.417        0.329       38.615       29.723        0.592      338.824       11.739      867.285
10/14/2013  11:56:00       90.322       55.005       55.817       75.970       73.119       52.439     5771.423     5346.365     2749.807        1.408        0.693      105.752       42.195        0.159      338.855       11.789      867.268
10/14/2013  11:57:00       79.010       67.463       76.492       63.847       69.800       50.853     4076.377     4871.988     2586.012        1.409        0.577      103.893       43.047        0.172      339.036       12.094      867.242
10/14/2013  11:58:00       23.939       79.658       90.495       58.863       59.287       49.202     3464.896     3514.907     2420.843        1.225        0.470       83.178       36.361        0.191      339.137       12.264      867.241
10/14/2013  11:59:00       93.774       77.802       42.218       85.737       50.733       48.116     7350.827     2573.833     2315.160        1.443        0.612      121.847       41.777        0.118      338.567       11.306      867.234
10/14/2013  12:00:00       64.200       88.785       62.208       66.461       65.170       74.594     4417.128     4247.170     5564.198        1.505        0.711      109.564       50.697        0.214      338.643       11.434      867.202
10/14/2013  12:01:00       61.406       69.996       72.047       71.352       54.196       41.165     5091.100     2937.248     1694.518        1.179        0.486       93.113       28.556        0.094      338.649       11.443      867.189
10/14/2013  12:02:00       44.609      -46.868       23.002       60.013      100.553       57.190     3601.554    10110.994     3270.730        1.085        0.849       64.704       71.143        1.209      338.695       11.521      867.192
10/14/2013  12:03:00       43.470      -88.741       -7.750       36.326       53.230       39.804     1319.559     2833.412     1584.358        0.778        0.287       98.817       28.171        0.081      338.567       11.306      867.192
10/14/2013  12:04:00      117.965      109.431      100.202       76.026       54.121       56.618     5780.019     2929.076     3205.624        2.392        0.596      160.907       44.971        0.078      338.550       11.276      867.205
10/14/2013  12:05:00      156.488      166.941      140.400       83.589       85.040       84.737     6987.178     7231.751     7180.295        4.673        1.070      228.819       66.613        0.085      338.434       11.081      867.193
10/14/2013  12:06:00       90.163       89.015      138.834       85.495      101.832       72.143     7309.327    10369.736     5204.599        2.910        1.144      126.701       71.481        0.318      338.666       11.471      867.210
10/14/2013  12:07:00       85.200      -72.534       34.457       53.585       90.300       53.079     2871.311     8154.146     2817.407        1.377        0.692      111.893       55.238        0.244      338.601       11.362      867.205
10/14/2013  12:08:00       25.640       77.429      102.040       49.875       55.285       37.138     2487.551     3056.378     1379.251        1.199        0.346       81.564       39.059        0.229      339.101       12.204      867.179
10/14/2013  12:09:00       68.224       87.218       45.101       80.337       59.718       59.066     6454.113     3566.185     3488.814        1.390        0.675      110.732       51.201        0.214      339.073       12.157      867.180
10/14/2013  12:10:00       41.603      144.716      -17.981       53.705      108.685       40.184     2884.264    11812.489     1614.718        1.965        0.816      150.578       40.572        0.073      338.497       11.187      867.169
10/14/2013  12:11:00      -15.102       27.446        0.805       29.361       50.101       29.436      862.062     2510.083      866.473        0.261        0.212       31.327       19.750        0.397      338.468       11.142      867.147
10/14/2013  12:12:00      137.940       77.268       40.662       81.632       54.827       56.243     6663.808     3006.046     3163.239        1.974        0.642      158.106       46.088        0.085      338.624       11.400      867.147
10/14/2013  12:13:00      126.535       28.729       26.972       91.036       64.347       53.860     8287.496     4140.477     2900.904        1.644        0.766      129.756       36.711        0.080      338.857       11.794      867.133
10/14/2013  12:14:00      174.197      138.450       44.333       94.843       59.976       83.468     8995.183     3597.099     6966.964        3.551        0.978      222.515       46.853        0.044      338.972       11.985      867.109
10/14/2013  12:15:00       86.016       94.519       68.954      119.652       64.672       72.935    14316.673     4182.413     5319.518        2.245        1.191      127.798       68.164        0.284      338.915       11.889      867.123
10/14/2013  12:16:00       53.743       98.889       92.867       77.514       71.039       51.486     6008.350     5046.559     2650.799        1.750        0.685      112.549       44.345        0.155      338.938       11.928      867.124
10/14/2013  12:17:00       76.062       51.378       15.920       45.970       40.036       36.751     2113.197     1602.865     1350.668        0.687        0.253       91.788       35.540        0.150      338.412       11.047      867.121
10/14/2013  12:18:00      155.969       75.118       27.793       71.854       50.220       52.792     5163.034     2522.066     2786.978        2.060        0.524      173.116       17.218        0.010      338.762       11.633      867.115
10/14/2013  12:19:00      152.583       79.163        0.384       62.128       68.372       44.703     3859.909     4674.750     1998.318        2.004        0.527      171.896       22.828        0.018      338.668       11.474      867.095
10/14/2013  12:20:00      192.049      154.345       35.733       65.821       65.355       48.103     4332.395     4271.257     2313.928        3.645        0.546      246.385       34.514        0.020      338.601       11.359      867.076
10/14/2013  12:21:00       40.075       53.004       66.683       86.930       69.465       52.457     7556.747     4825.369     2751.720        1.199        0.757       66.449       55.752        0.704      339.177       12.332      867.068
10/14/2013  12:22:00       -4.873      -35.936       23.455       26.835       25.103       20.277      720.107      630.140      411.154        0.181        0.088       36.265       10.808        0.089      339.512       12.897      867.066
10/14/2013  12:23:00      108.283       69.222        1.206       82.945       56.751       41.996     6879.923     3220.661     1763.655        1.419        0.593      128.518       23.784        0.034      338.886       11.841      867.053
10/14/2013  12:24:00       81.858       61.723       47.402       73.568       59.931       49.305     5412.266     3591.701     2430.965        1.209        0.572      102.521       27.072        0.070      339.439       12.773      867.049
10/14/2013  12:25:00       -0.633      -47.562       36.916       33.970       73.537       36.364     1153.978     5407.731     1322.340        0.575        0.394       47.566       41.147        0.748      339.549       12.959      867.045
10/14/2013  12:26:00       40.288      -41.706       10.667       51.077      105.841       34.426     2608.823    11202.274     1185.146        0.923        0.750       57.987       31.060        0.287      339.411       12.727      867.043
10/14/2013  12:27:00       58.762      -99.107       -3.449       95.307      141.199       60.278     9083.400    19937.178     3633.406        2.296        1.633      115.218       72.991        0.401      339.456       12.801      867.049
10/14/2013  12:28:00      101.508     -215.014      -15.408       78.039       94.541       52.121     6090.094     8938.075     2716.641        3.725        0.887      237.771       47.656        0.040      338.813       11.717      867.043
10/14/2013  12:29:00       95.253     -165.203      -25.579       88.923       64.247       46.378     7907.370     4127.712     2150.895        2.560        0.709      190.696       47.061        0.061      338.767       11.642      867.039
10/14/2013  12:30:00       65.475     -158.211      -24.303       46.184       54.489       35.688     2132.955     2969.031     1273.618        1.814        0.319      171.224       30.031        0.031      338.661       11.463      867.039
10/14/2013  12:31:00       40.425      -51.304       44.682       53.624      101.575       61.569     2875.519    10317.387     3790.801        1.162        0.849       65.317       69.495        1.132      339.306       12.548      867.016
10/14/2013  12:32:00      113.389       89.424       56.602       32.588       29.189       37.135     1061.972      852.026     1379.027        1.367        0.165      144.409       16.103        0.012      338.616       11.390      867.007
10/14/2013  12:33:00       80.318       83.669       78.815       77.830       52.240       52.670     6057.574     2729.025     2774.088        1.561        0.578      115.981       52.987        0.209      339.046       12.110      866.984
10/14/2013  12:34:00       59.510      -89.887       35.372       58.191      102.986       58.274     3386.248    10606.051     3395.864        1.513        0.869      107.801       57.483        0.284      339.278       12.500      866.972
10/14/2013  12:35:00       92.696     -179.495      -13.355       54.682       61.484       33.180     2990.170     3780.339     1100.929        2.443        0.394      202.017       27.383        0.018      338.943       11.936      866.955
10/14/2013  12:36:00       68.585      -45.028       27.615       39.497      107.222       55.630     1560.027    11496.565     3094.681        1.182        0.808       82.045       72.039        0.771      339.173       12.324      866.956
10/14/2013  12:37:00       86.661      -78.916       18.417       59.199      112.104       54.987     3504.475    12567.212     3023.606        1.658        0.955      117.209       67.181        0.329      339.140       12.269      866.941
10/14/2013  12:38:00       62.824       25.220       59.218       66.459      112.281       52.684     4416.747    12607.013     2775.553        1.394        0.990       67.698       58.523        0.747      339.423       12.747      866.909
10/14/2013  12:39:00       12.084      -24.533       28.003       45.782       87.598       42.337     2095.992     7673.412     1792.444        0.654        0.578       27.347       53.881        3.882      339.554       12.967      866.901
10/14/2013  12:40:00      -17.874       45.827       67.390       34.726       43.382       44.816     1205.892     1881.955     2008.469        0.603        0.255       49.189       38.089        0.600      339.829       13.431      866.875
10/14/2013  12:41:00       30.705      -20.040       41.189       29.170       68.623       35.822      850.893     4709.110     1283.239        0.494        0.342       36.666       43.070        1.380      339.131       12.254      866.855
10/14/2013  12:42:00       10.273     -100.472        9.171       33.946       34.221       32.930     1152.349     1171.076     1084.392        0.685        0.170      100.995       28.527        0.080      339.162       12.307      866.831
10/14/2013  12:43:00       53.611     -105.669      -23.697       30.258       28.110       30.904      915.551      790.150      955.084        0.863        0.133      118.490       18.925        0.026      338.919       11.897      866.814
10/14/2013  12:44:00       13.023       -0.066       47.772       28.632       45.629       16.999      819.778     2081.995      288.971        0.282        0.160       13.023       20.445        2.465      339.777       13.343      866.766
10/14/2013  12:45:00       -9.573       -7.310       40.049       21.818       68.133       46.713      476.044     4642.142     2182.107        0.452        0.365       12.045       47.386       15.478      340.063       13.826      866.748
10/14/2013  12:46:00       59.118       45.950       48.252       61.236       68.024       69.687     3749.856     4627.295     4856.277        1.058        0.662       74.876       67.722        0.818      339.317       12.568      866.732
10/14/2013  12:47:00       47.978       92.714       -7.939       48.211       50.432       38.475     2324.310     2543.393     1480.290        0.865        0.317      104.392       22.021        0.044      339.126       12.246      866.698
10/14/2013  12:48:00       12.762       10.244       10.256       34.805       58.476       32.911     1211.405     3419.396     1083.114        0.304        0.286       16.365       22.416        1.876      339.919       13.582      866.685
10/14/2013  12:49:00       61.488      -44.119       14.919       48.711       83.975       54.333     2372.760     7051.857     2952.053        0.916        0.619       75.679       57.150        0.570      339.601       13.047      866.674
10/14/2013  12:50:00       24.648      -57.886       32.860       68.735      108.092       50.156     4724.519    11683.782     2515.662        1.198        0.946       62.915       53.810        0.732      339.858       13.479      866.652
10/14/2013  12:51:00       67.613     -104.820       -4.302       50.904       50.980       36.424     2591.224     2598.982     1326.743        1.105        0.326      124.734       26.975        0.047      339.410       12.725      866.644
10/14/2013  12:52:00       17.279      -71.023       11.393       68.876       83.336       41.702     4743.928     6944.873     1739.066        0.945        0.671       73.095       48.210        0.435      339.542       12.945      866.621
10/14/2013  12:53:00       33.743       62.878       62.308       68.441       62.677       53.014     4684.227     3928.405     2810.446        1.020        0.571       71.359       29.688        0.173      339.908       13.563      866.589
10/14/2013  12:54:00       83.477       85.759        6.435       67.458       47.592       43.997     4550.642     2265.022     1935.753        1.156        0.438      119.679       19.162        0.026      339.443       12.780      866.587
10/14/2013  12:55:00      101.880       84.183       32.904       60.961       44.491       55.340     3716.194     1979.464     3062.529        1.365        0.438      132.160       33.648        0.065      339.653       13.133      866.578
10/14/2013  12:56:00      109.523      100.988       22.702       99.600       56.694       51.079     9920.155     3214.239     2609.046        1.922        0.787      148.976       38.875        0.068      339.286       12.515      866.564
10/14/2013  12:57:00      271.426      159.145       31.027       96.316       93.416       65.783     9276.784     8726.493     4327.462        6.114        1.117      314.641       26.533        0.007      339.097       12.195      866.555
10/14/2013  12:58:00      178.814       77.676        9.480       76.834       71.665       45.939     5903.466     5135.931     2110.362        2.562        0.657      194.957       20.176        0.011      339.139       12.267      866.536
10/14/2013  12:59:00       79.885        8.476       20.521       58.195       85.713       50.748     3386.622     7346.643     2575.404        1.009        0.665       80.333       37.486        0.218      339.279       12.503      866.508
10/14/2013  13:00:00       52.264      111.617      107.073       81.949       73.554       59.922     6715.620     5410.220     3590.610        2.118        0.786      123.247       49.407        0.161      339.597       13.038      866.496
10/14/2013  13:01:00      108.000      104.741      143.305      111.343       95.491       70.319    12397.239     9118.472     4944.730        3.481        1.323      150.448       68.812        0.209      339.417       12.734      866.468
10/14/2013  13:02:00      164.791      137.755      169.360      128.176      127.261       88.649    16429.090    16195.407     7858.663        5.764        2.024      214.785       86.027        0.160      339.282       12.504      866.441
10/14/2013  13:03:00       98.917       90.457       66.893       88.471       82.819       82.906     7827.170     6859.034     6873.369        2.200        1.078      134.041       77.771        0.337      339.496       12.865      866.445
10/14/2013  13:04:00       95.053       88.904       86.059       83.932       90.057       64.392     7044.509     8110.303     4146.312        2.182        0.965      130.150       60.064        0.213      339.751       13.297      866.439
10/14/2013  13:05:00       85.443       99.544       84.284       83.578       82.768       84.455     6985.280     6850.597     7132.701        2.264        1.048      131.184       69.012        0.277      339.644       13.118      866.443
10/14/2013  13:06:00       53.921       17.801       49.003       63.212       67.270       55.281     3995.807     4525.248     3056.009        0.860        0.579       56.784       56.615        0.994      339.478       12.839      866.427
10/14/2013  13:07:00      115.320      106.558       65.812       92.509       59.975       51.082     8557.883     3596.944     2609.405        2.187        0.738      157.014       22.059        0.020      339.603       13.048      866.405
10/14/2013  13:08:00       44.497       91.658      104.385       56.973       65.036       58.053     3245.897     4229.683     3370.142        1.606        0.542      101.888       51.391        0.254      339.706       13.222      866.403
10/14/2013  13:09:00       63.096       79.306       32.401       52.874       36.007       65.860     2795.622     1296.477     4337.503        0.987        0.421      101.344       29.887        0.087      339.472       12.828      866.391
10/14/2013  13:10:00        5.498       48.215       76.827       32.533       57.097       44.806     1058.370     3260.049     2007.563        0.729        0.316       48.528       39.469        0.662      339.997       13.714      866.377
10/14/2013  13:11:00       32.931       50.185       79.007       38.591       60.283       35.860     1489.302     3634.100     1285.913        0.813        0.320       60.025       35.633        0.352      339.852       13.469      866.371
10/14/2013  13:12:00        3.023      -35.784        0.589       27.009       12.552       16.041      729.478      157.552      257.299        0.122        0.057       35.912        8.919        0.062      339.242       12.440      866.364
10/14/2013  13:13:00       19.463      -18.465      -12.838       37.717       22.000       23.173     1422.549      484.013      536.996        0.166        0.122       26.828       25.200        0.882      339.495       12.867      866.332
10/14/2013  13:14:00       99.531       84.117       53.397       92.805       69.975       62.096     8612.730     4896.487     3855.894        1.860        0.868      130.315       48.748        0.140      339.686       13.187      866.312
10/14/2013  13:15:00       55.989       91.016       68.449       72.828       47.529       69.540     5303.961     2258.998     4835.792        1.425        0.620      106.859       59.801        0.313      339.658       13.140      866.305
10/14/2013  13:16:00       56.985       22.901       24.050       62.290       67.343       30.718     3880.005     4535.048      943.574        0.685        0.468       61.414       38.718        0.397      339.434       12.765      866.286
10/14/2013  13:17:00       50.265       -5.072       15.845       54.594       73.030       31.413     2980.464     5333.328      986.786        0.605        0.465       50.520       37.860        0.562      339.735       13.271      866.263
10/14/2013  13:18:00       66.926       83.597        4.145       47.263       33.706       33.394     2233.763     1136.071     1115.156        0.798        0.224      107.086       28.526        0.071      339.374       12.664      866.253
10/14/2013  13:19:00       -6.715       54.868      -21.161       35.562       58.552       13.445     1264.690     3428.349      180.756        0.419        0.244       55.277       24.772        0.201      339.270       12.490      866.236
10/14/2013  13:20:00        9.172       37.823       -4.666       28.358       26.754       21.396      804.190      715.761      457.796        0.176        0.099       38.919       13.325        0.117      339.724       13.254      866.221
10/14/2013  13:21:00       38.565       53.830       29.787       49.394       42.397       27.473     2439.805     1797.482      754.754        0.513        0.250       66.219       24.352        0.135      340.222       14.096      866.217
10/14/2013  13:22:00       -7.626       63.949       12.914       32.008       70.471       27.919     1024.527     4966.222      779.481        0.554        0.339       64.402       37.090        0.332      340.125       13.930      866.201
10/14/2013  13:23:00       -9.383       36.309       -5.320       20.360       66.944       26.574      414.529     4481.472      706.204        0.352        0.280       37.502       14.757        0.155      339.716       13.241      866.190
10/14/2013  13:24:00        1.431       37.266       -4.343       27.906       25.123       29.263      778.748      631.174      856.333        0.184        0.113       37.293       13.502        0.131      339.883       13.521      866.184
10/14/2013  13:25:00       13.731       -4.399       25.497       32.990       35.629       21.982     1088.331     1269.436      483.211        0.185        0.142       14.418       12.781        0.786      340.464       14.503      866.170
10/14/2013  13:26:00       32.306        7.381       37.709       59.216       39.310       31.131     3506.543     1545.308      969.119        0.427        0.301       33.139       20.853        0.396      340.191       14.043      866.149
10/14/2013  13:27:00       53.482       44.972       61.027       76.977       63.912       42.823     5925.460     4084.775     1833.822        1.022        0.592       69.877       36.222        0.269      340.319       14.259      866.141
10/14/2013  13:28:00       46.102       66.716       61.328       69.419       60.575       59.268     4818.976     3669.304     3512.647        1.117        0.600       81.095       51.359        0.401      340.028       13.766      866.129
10/14/2013  13:29:00       40.639       77.853        5.459       66.606       64.923       46.154     4436.381     4215.006     2130.198        0.926        0.539       87.821       42.991        0.240      340.109       13.902      866.120
10/14/2013  13:30:00       51.187       72.969       -6.969       67.705       81.887       42.717     4583.968     6705.473     1824.774        1.055        0.656       89.133       37.339        0.175      339.947       13.630      866.103
10/14/2013  13:31:00       55.804       75.733       81.565       71.191       68.591       60.593     5068.089     4704.753     3671.507        1.447        0.672       94.072       59.671        0.402      340.413       14.415      866.089
10/14/2013  13:32:00       28.270       76.860       22.121       55.972       67.858       54.077     3132.852     4604.730     2924.328        0.893        0.533       81.894       29.959        0.134      340.378       14.358      866.083
10/14/2013  13:33:00       60.002      106.137        2.281       51.365       80.629       42.782     2638.348     6500.989     1830.283        1.292        0.548      121.923       32.665        0.072      339.888       13.529      866.079
10/14/2013  13:34:00      -38.048       20.914      -17.000       44.405       48.699       18.050     1971.761     2371.563      325.816        0.342        0.233       43.417       24.792        0.326      339.551       12.962      866.080
10/14/2013  13:35:00      -52.352       -7.722       -1.604       35.655       42.181       30.281     1271.294     1779.229      916.963        0.338        0.198       52.918       26.009        0.242      339.871       13.503      866.051
10/14/2013  13:36:00       -3.363       29.990       24.878       29.629       43.246       27.610      877.852     1870.195      762.338        0.252        0.176       30.178       16.168        0.287      340.395       14.386      866.045
10/14/2013  13:37:00       -4.699        8.519       22.120       19.012       24.502       13.872      361.473      600.331      192.425        0.087        0.058        9.729        6.569        0.456      340.703       14.907      866.037
10/14/2013  13:38:00       18.771       37.562       20.942       30.617       36.322       31.520      937.371     1319.284      993.536        0.273        0.163       41.991       24.324        0.336      340.465       14.503      866.027
10/14/2013  13:39:00      -23.109       64.926       57.598       53.816       43.084       30.640     2896.192     1856.237      938.812        0.688        0.285       68.916       26.813        0.151      340.238       14.121      866.000
10/14/2013  13:40:00       15.203       17.172       32.653       38.652       53.083       36.312     1493.990     2817.834     1318.549        0.361        0.282       22.935       30.726        1.795      340.535       14.622      865.977
10/14/2013  13:41:00      118.691       83.623       14.586       82.485       56.107       51.864     6803.741     3148.022     2689.897        1.696        0.632      145.191       34.678        0.057      340.046       13.795      865.976
10/14/2013  13:42:00       85.928       81.229       -1.408       85.221       47.364       35.416     7262.694     2243.307     1254.299        1.237        0.538      118.244       18.213        0.024      339.637       13.105      865.970
10/14/2013  13:43:00      195.090      112.183       29.071       67.727       41.041       38.202     4586.932     1684.398     1459.413        2.961        0.387      225.045       18.078        0.006      339.529       12.921      865.966
10/14/2013  13:44:00      150.967       86.031       37.611       78.604       79.301       63.059     6178.641     6288.622     3976.388        2.402        0.822      173.760       61.576        0.126      339.667       13.155      865.935
10/14/2013  13:45:00      105.256       83.124       44.157       80.930       58.164       56.324     6549.599     3383.051     3172.373        1.652        0.655      134.121       54.089        0.163      339.872       13.502      865.925
10/14/2013  13:46:00       81.654      104.184      105.451       87.671       80.368       72.389     7686.274     6459.069     5240.095        2.401        0.969      132.370       69.116        0.273      339.902       13.552      865.908
10/14/2013  13:47:00       50.826      107.358      102.466       59.631       53.192       60.835     3555.915     2829.383     3700.926        1.735        0.504      118.781       50.357        0.180      339.800       13.380      865.906
10/14/2013  13:48:00       45.730       93.949      116.776       67.766       92.806       49.180     4592.243     8612.908     2418.681        2.009        0.781      104.487       53.896        0.266      339.895       13.540      865.893
10/14/2013  13:49:00       93.237      -82.166       -1.894       84.077       74.077       37.306     7068.989     5487.440     1391.710        1.470        0.697      124.275       34.432        0.077      339.747       13.290      865.863
10/14/2013  13:50:00       -8.636      -44.839      -10.697       49.470       72.820       40.789     2447.257     5302.779     1663.761        0.580        0.471       45.663       39.559        0.751      340.249       14.140      865.851
10/14/2013  13:51:00     -138.601       25.606      -11.164       46.816       49.234       34.221     2191.761     2423.942     1171.049        1.289        0.289      140.947       30.518        0.047      339.907       13.563      865.832
10/14/2013  13:52:00      -68.712        4.657      -12.050       29.505       46.120       24.695      870.561     2127.084      609.856        0.425        0.180       68.869       18.413        0.071      339.891       13.534      865.822
10/14/2013  13:53:00      -22.142       89.706       -7.034       32.328       50.720       19.486     1045.120     2572.520      379.691        0.629        0.200       92.398       20.267        0.048      339.931       13.603      865.823
10/14/2013  13:54:00       22.260       91.656       10.564       68.534       59.162       49.579     4696.891     3500.084     2458.108        0.983        0.533       94.321       42.681        0.205      340.183       14.027      865.824
10/14/2013  13:55:00      179.083      123.256        8.832      101.178       78.823       64.489    10237.073     6213.010     4158.825        3.397        1.030      217.400       39.071        0.032      339.900       13.547      865.828
10/14/2013  13:56:00       73.790       98.068       -0.031       83.154       71.595       41.557     6914.607     5125.880     1727.004        1.441        0.688      122.729       45.106        0.135      339.916       13.576      865.843
10/14/2013  13:57:00      100.671       64.152       17.431       44.904       32.916       36.419     2016.404     1083.434     1326.368        0.949        0.221      119.374       23.746        0.040      339.723       13.251      865.833
10/14/2013  13:58:00       54.389       71.374        1.743       34.185       40.256       30.713     1168.587     1620.560      943.266        0.589        0.187       89.735       20.573        0.053      339.713       13.234      865.819
10/14/2013  13:59:00       74.653       37.138        9.496       29.940       28.096       24.677      896.407      789.389      608.956        0.467        0.115       83.381       17.352        0.043      339.770       13.331      865.786
10/14/2013  14:00:00        0.210       36.663       13.894       49.471       28.124       22.574     2447.426      790.945      509.600        0.264        0.187       36.664       22.766        0.386      340.344       14.299      865.761
10/14/2013  14:01:00      -11.416       74.808        0.199       22.981       40.291       29.762      528.108     1623.335      885.795        0.438        0.152       75.674       17.168        0.051      340.033       13.774      865.751
10/14/2013  14:02:00      -35.939       48.664       -7.116       28.385       31.531       22.766      805.729      994.204      518.285        0.301        0.116       60.496       19.350        0.102      340.251       14.143      865.727
10/14/2013  14:03:00       -5.977       40.155       10.254       27.545       30.564       19.226      758.737      934.187      369.637        0.191        0.103       40.597       15.789        0.151      340.414       14.418      865.709
10/14/2013  14:04:00       -8.477       94.102       -6.850       34.448       39.857       29.406     1186.676     1588.574      864.724        0.631        0.182       94.483       24.685        0.068      340.040       13.786      865.714
10/14/2013  14:05:00     -108.237      128.150      -28.472       56.294       51.581       35.923     3169.052     2660.642     1290.459        1.803        0.356      167.743       29.735        0.031      340.230       14.106      865.681
10/14/2013  14:06:00     -103.430       96.939       12.922       85.397      109.856       82.696     7292.704    12068.323     6838.594        2.323        1.310      141.757       79.381        0.314      340.741       14.968      865.639
10/14/2013  14:07:00       56.069      112.749      130.628       72.956       65.743       48.935     5322.600     4322.165     2394.634        2.248        0.602      125.921       40.213        0.102      340.764       15.008      865.641
10/14/2013  14:08:00       82.102       32.351       66.398       75.845       86.300       57.907     5752.416     7447.767     3353.203        1.437        0.828       88.246       51.528        0.341      340.468       14.510      865.656
10/14/2013  14:09:00      120.499       72.715       72.847       57.667       65.626       47.733     3325.454     4306.781     2278.426        1.751        0.496      140.739       34.518        0.060      340.181       14.024      865.652
10/14/2013  14:10:00      122.412      107.104       62.509       41.656       53.299       43.296     1735.237     2840.750     1874.543        1.841        0.323      162.653       30.004        0.034      340.115       13.912      865.673
10/14/2013  14:11:00      193.056       82.867       34.153       90.752       78.696       48.597     8235.841     6193.097     2361.668        3.104        0.840      210.089       36.202        0.030      340.047       13.795      865.663
10/14/2013  14:12:00       -5.869      -11.688       19.441       51.593       53.765       27.863     2661.855     2890.685      776.359        0.344        0.316       13.078       23.493        3.227      340.618       14.764      865.638
10/14/2013  14:13:00       11.806       72.564       -0.939       46.011       38.055       32.991     2117.036     1448.206     1088.416        0.503        0.233       73.518       11.668        0.025      340.741       14.971      865.632
10/14/2013  14:14:00       32.076       10.371        0.985       35.442       75.162       29.852     1256.102     5649.378      891.166        0.447        0.390       33.711       21.983        0.425      341.120       15.612      865.626
10/14/2013  14:15:00       32.188       44.088       36.731       57.056       32.641       32.313     3255.348     1065.433     1044.098        0.485        0.268       54.587       26.138        0.229      340.939       15.307      865.615
10/14/2013  14:16:00       13.667       56.176       71.088       39.098       39.927       26.763     1528.688     1594.149      716.243        0.612        0.192       57.814       26.212        0.206      340.577       14.695      865.619
10/14/2013  14:17:00       -8.274      -11.248        6.527       19.287       34.617       27.431      371.981     1198.319      752.435        0.128        0.116       13.963       25.288        3.280      340.888       15.220      865.617
10/14/2013  14:18:00      -30.270      -24.310      -15.005       32.947       18.675       26.140     1085.526      348.762      683.323        0.192        0.106       38.824       25.610        0.435      340.404       14.401      865.598
10/14/2013  14:19:00       68.451       68.926       97.915       77.636      115.786       78.692     6027.333    13406.437     6192.396        2.232        1.281       97.141       85.866        0.781      340.458       14.491      865.583
10/14/2013  14:20:00      179.507      133.154       68.337       92.692       76.803       81.275     8591.798     5898.769     6605.704        3.786        1.055      223.501       60.359        0.073      340.221       14.088      865.578
10/14/2013  14:21:00       93.246      119.411      114.071       65.611       65.797       64.491     4304.838     4329.253     4159.133        2.438        0.640      151.506       55.160        0.133      340.132       13.940      865.604
10/14/2013  14:22:00      117.056       89.171       90.015       87.761       78.919       57.820     7701.953     6228.261     3343.162        2.351        0.864      147.152       43.185        0.086      339.897       13.544      865.594
10/14/2013  14:23:00      111.571     -113.326        4.565       55.309       84.457       43.876     3059.054     7132.934     1925.085        1.871        0.606      159.031       51.301        0.104      339.928       13.595      865.592
10/14/2013  14:24:00       83.540       17.355       42.748       75.305       60.876       44.342     5670.806     3705.830     1966.233        1.022        0.567       85.324       46.412        0.296      340.305       14.234      865.577
10/14/2013  14:25:00       94.780      126.516       76.498      145.870      109.036       55.518    21278.073    11888.889     3082.208        3.354        1.812      158.081       30.758        0.038      340.658       14.827      865.536
10/14/2013  14:26:00      152.653       96.057       31.404       68.138       50.700       50.888     4642.845     2570.483     2589.637        2.166        0.490      180.360       20.258        0.013      340.236       14.116      865.563
10/14/2013  14:27:00      185.933      112.772       17.637       68.158       62.996       44.064     4645.534     3968.471     1941.599        2.908        0.528      217.459       23.123        0.011      340.377       14.353      865.562
10/14/2013  14:28:00      115.380      100.696       11.153       90.187       67.822       48.307     8133.774     4599.802     2333.587        1.932        0.753      153.142       34.618        0.051      340.509       14.579      865.557
10/14/2013  14:29:00      107.354        7.232       28.422      113.414      128.364       64.024    12862.673    16477.275     4099.077        2.291        1.672      107.597       52.157        0.235      340.598       14.727      865.515
10/14/2013  14:30:00      146.895     -141.775      -16.177       70.994      101.007       51.592     5040.191    10202.488     2661.773        2.992        0.895      204.152       58.630        0.082      340.069       13.834      865.535
10/14/2013  14:31:00       89.602     -117.309       -5.662       49.174       48.919       31.319     2418.103     2393.043      980.861        1.381        0.290      147.614       27.750        0.035      340.172       14.009      865.544
10/14/2013  14:32:00       84.083       73.202       91.885       87.052       91.817       67.356     7577.971     8430.433     4536.837        2.070        1.027      111.483       66.436        0.355      340.348       14.306      865.544
10/14/2013  14:33:00      134.160       87.616      101.695      121.460       99.018       77.286    14752.647     9804.539     5973.094        3.327        1.527      160.236       66.550        0.172      340.310       14.240      865.522
10/14/2013  14:34:00      121.741       96.113       10.356       88.858       63.697       55.229     7895.698     4057.344     3050.241        1.958        0.750      155.108       45.499        0.086      340.400       14.394      865.529
10/14/2013  14:35:00       64.888       32.609        4.883       54.096       55.994       34.328     2926.360     3135.337     1178.384        0.627        0.362       72.621       30.581        0.177      340.558       14.662      865.520
10/14/2013  14:36:00       52.576       71.713       58.841       78.837       75.269       78.345     6215.218     5665.391     6137.926        1.469        0.901       88.921       48.342        0.296      340.619       14.763      865.502
10/14/2013  14:37:00      158.030      103.285       28.090       61.945       56.673       51.776     3837.178     3211.865     2680.796        2.308        0.486      188.789       31.630        0.028      340.165       13.997      865.515
10/14/2013  14:38:00       56.856       14.470       47.516       64.086       65.604       51.897     4107.066     4303.900     2693.329        0.840        0.555       58.668       49.764        0.720      340.600       14.732      865.512
10/14/2013  14:39:00      131.569      103.058       51.873       85.664       63.643       51.896     7338.270     4050.389     2693.157        2.235        0.704      167.127       43.851        0.069      340.558       14.660      865.520
10/14/2013  14:40:00      221.565      166.591       39.595       84.602       55.637       68.973     7157.539     3095.476     4757.252        4.671        0.751      277.207       40.876        0.022      340.388       14.368      865.528
10/14/2013  14:41:00      107.766       67.685       42.141      102.213       59.582       54.092    10447.480     3549.962     2925.967        1.744        0.846      127.259       46.662        0.134      340.426       14.439      865.513
10/14/2013  14:42:00       84.600      109.729       -3.182       75.071       68.046       42.483     5635.687     4630.245     1804.820        1.564        0.604      138.555       35.091        0.064      340.146       13.964      865.526
10/14/2013  14:43:00       56.787      168.556      -11.721       56.708      107.061       43.729     3215.789    11462.109     1912.205        2.418        0.830      177.865       59.705        0.113      340.182       14.025      865.501
10/14/2013  14:44:00       25.617      245.864      -36.343       70.338      165.047       58.001     4947.491    27240.373     3364.116        4.898        1.778      247.195       77.331        0.098      340.341       14.292      865.468
10/14/2013  14:45:00       51.643      214.685       16.626      143.582      154.693       84.372    20615.875    23930.030     7118.579        5.034        2.583      220.809       84.241        0.146      340.772       15.021      865.427
10/14/2013  14:46:00       71.806      144.382      137.562       77.705       84.343       70.790     6038.119     7113.720     5011.288        3.154        0.908      161.252       66.375        0.169      340.403       14.397      865.448
10/14/2013  14:47:00       41.796       85.039       73.847       64.327       51.630       41.881     4137.905     2665.627     1754.017        1.149        0.428       94.755       32.602        0.118      340.721       14.936      865.458
10/14/2013  14:48:00       85.694       86.358      102.629       84.136       74.724       52.619     7078.929     5583.733     2768.738        2.038        0.772      121.660       40.520        0.111      340.504       14.569      865.447
10/14/2013  14:49:00       64.938       42.365        5.940       74.404       45.946       38.059     5535.987     2111.032     1448.509        0.757        0.455       77.536       34.642        0.200      340.504       14.570      865.451
10/14/2013  14:50:00       92.928       41.415       17.008       64.273       51.355       32.019     4131.024     2637.373     1025.235        0.922        0.390      101.739       13.232        0.017      340.911       15.258      865.444
10/14/2013  14:51:00      125.593       76.943       49.237      105.838       71.306       49.798    11201.607     5084.501     2479.824        2.144        0.938      147.288       39.936        0.074      340.933       15.295      865.431
10/14/2013  14:52:00      248.114      158.259       24.859      112.616       88.774       67.627    12682.401     7880.887     4573.443        5.618        1.257      294.290       56.248        0.037      340.557       14.656      865.424
10/14/2013  14:53:00      134.382      179.416        6.380      124.526      110.708       76.775    15506.697    12256.241     5894.435        4.197        1.683      224.162       73.575        0.108      340.310       14.239      865.446
10/14/2013  14:54:00       37.015      217.252      -24.927       68.811       85.013       58.853     4735.001     7227.245     3463.624        3.230        0.771      220.382       57.053        0.067      340.247       14.135      865.466
10/14/2013  14:55:00        1.109      138.457      -20.211       32.619       54.794       23.784     1063.970     3002.330      565.686        1.211        0.232      138.461       26.020        0.035      339.984       13.691      865.465
10/14/2013  14:56:00       31.740       39.253       10.626       31.577       23.146       25.000      997.128      535.731      624.978        0.241        0.108       50.480       18.367        0.132      340.267       14.170      865.433
10/14/2013  14:57:00      -29.396      174.217      -17.214       68.634       53.336       36.025     4710.624     2844.725     1297.811        2.018        0.443      176.680       27.667        0.025      340.313       14.247      865.435
10/14/2013  14:58:00     -104.494      156.162      -23.339       87.025       83.990       50.211     7573.410     7054.342     2521.156        2.650        0.857      187.898       53.670        0.082      340.326       14.267      865.427
10/14/2013  14:59:00      -18.103       90.182        1.103       61.449       63.030       35.490     3776.008     3972.719     1259.551        0.873        0.450       91.981       32.911        0.128      340.489       14.543      865.412
10/14/2013  15:00:00       60.202       49.170       16.910       86.411       72.305       48.858     7466.914     5228.058     2387.066        1.070        0.754       77.730       38.014        0.239      340.781       15.037      865.409
10/14/2013  15:01:00       45.129       28.515       77.383       72.082      109.973       60.586     5195.762    12094.004     3670.721        1.489        1.048       53.382       54.765        1.052      340.768       15.015      865.412
10/14/2013  15:02:00      118.501      108.053       67.919       72.378       67.780       62.238     5238.615     4594.130     3873.595        2.202        0.685      160.368       53.484        0.111      340.185       14.031      865.418
10/14/2013  15:03:00      125.521       43.863       20.092       62.703       59.832       44.735     3931.614     3579.817     2001.209        1.380        0.476      132.964       31.257        0.055      340.301       14.227      865.402
10/14/2013  15:04:00       59.225       43.120       43.723       65.900       57.482       36.292     4342.834     3304.183     1317.106        0.812        0.448       73.259       24.249        0.110      340.573       14.688      865.396
10/14/2013  15:05:00      102.007       46.357       80.672       94.938       70.156       63.814     9013.190     4921.808     4072.241        1.853        0.900      112.046       48.057        0.184      340.524       14.603      865.398
10/14/2013  15:06:00      111.606       42.359       54.339       87.071       58.257       64.542     7581.300     3393.864     4165.686        1.617        0.757      119.374       62.416        0.273      340.275       14.183      865.388
10/14/2013  15:07:00       68.458       15.321       39.556       62.448       37.388       34.883     3899.736     1397.828     1216.794        0.650        0.326       70.151       31.641        0.203      340.382       14.364      865.360
10/14/2013  15:08:00       47.294       29.330       46.853       54.306       74.390       64.320     2949.101     5533.922     4137.092        0.895        0.631       55.650       58.180        1.093      340.404       14.401      865.339
10/14/2013  15:09:00       53.938      -69.009        9.477       37.490       72.825       42.281     1405.515     5303.505     1787.683        0.813        0.425       87.587       39.805        0.207      340.355       14.319      865.328
10/14/2013  15:10:00       34.064       -7.582       36.771       50.359       67.272       34.621     2535.984     4525.494     1198.620        0.541        0.413       34.898       37.925        1.181      340.727       14.947      865.317
10/14/2013  15:11:00       25.138      -48.843       19.138       36.559       64.611       35.506     1336.591     4174.643     1260.646        0.508        0.339       54.932       37.325        0.462      340.888       15.219      865.317
10/14/2013  15:12:00       71.631      -54.843       -3.177       54.428       73.078       31.954     2962.426     5340.350     1021.047        0.873        0.466       90.215       17.641        0.038      340.440       14.461      865.330
10/14/2013  15:13:00      -39.143       14.168       -8.817       47.919       26.088       13.465     2296.250      680.561      181.310        0.248        0.158       41.629        8.508        0.042      340.638       14.796      865.309
10/14/2013  15:14:00      -71.326       25.250      -13.284       37.859       29.666       25.763     1433.309      880.098      663.724        0.444        0.149       75.663       19.720        0.068      340.711       14.920      865.301
10/14/2013  15:15:00       78.669       71.981       19.576       42.003       30.337       28.285     1764.229      920.350      800.034        0.762        0.174      106.631       13.497        0.016      340.500       14.564      865.292
10/14/2013  15:16:00       93.654        1.214       51.608       99.096       92.471       61.051     9819.996     8550.864     3727.198        1.676        1.105       93.662       47.887        0.261      340.685       14.873      865.279
10/14/2013  15:17:00       83.555       90.967       75.251       73.356       60.383       62.439     5381.120     3646.076     3898.659        1.692        0.646      123.517       41.314        0.112      340.364       14.332      865.264
10/14/2013  15:18:00       35.670      -44.836       42.637       73.291       74.335       45.795     5371.623     5525.728     2097.226        0.904        0.650       57.294       22.381        0.153      340.947       15.319      865.250
10/14/2013  15:19:00       95.230       93.896       16.297       62.144       51.025       50.460     3861.937     2603.561     2546.201        1.358        0.451      133.736       31.532        0.056      340.727       14.947      865.273
10/14/2013  15:20:00       80.989      148.516        1.606       74.478       85.869       64.049     5546.905     7373.563     4102.246        2.282        0.851      169.164       55.202        0.106      340.534       14.618      865.280
10/14/2013  15:21:00       43.455      180.561      -18.084       74.303      108.240       52.852     5520.952    11715.850     2793.301        2.742        1.002      185.717       57.318        0.095      340.408       14.406      865.275
10/14/2013  15:22:00      -35.262       83.437       -6.444       97.925       56.422       34.702     9589.345     3183.472     1204.227        1.111        0.699       90.582       26.456        0.085      340.706       14.912      865.264
10/14/2013  15:23:00      -72.826      117.647        0.116       67.767       62.034       37.622     4592.413     3848.176     1415.431        1.450        0.493      138.363       33.321        0.058      340.788       15.049      865.265
10/14/2013  15:24:00      -44.332      141.286       -7.601       63.383       69.171       41.611     4017.459     4784.592     1731.498        1.626        0.527      148.078       47.345        0.102      340.601       14.733      865.268
10/14/2013  15:25:00        9.712       41.220       15.619       78.107       82.207       40.115     6100.706     6758.063     1609.179        0.825        0.723       42.349       39.466        0.868      340.595       14.723      865.271
10/14/2013  15:26:00       32.148       90.829      -14.124       76.620       47.354       33.685     5870.597     2242.360     1134.701        0.936        0.462       96.350       31.660        0.108      340.739       14.967      865.264
10/14/2013  15:27:00      180.773      112.692       17.645       82.229       56.720       49.044     6761.553     3217.124     2405.307        2.903        0.619      213.022       26.482        0.015      340.566       14.672      865.259
10/14/2013  15:28:00      163.673      101.997        3.400       87.946       70.358       45.586     7734.506     4950.185     2078.128        2.598        0.738      192.853       34.653        0.032      340.670       14.848      865.253
10/14/2013  15:29:00       52.385       62.271        3.108       61.875       49.122       36.763     3828.489     2412.923     1351.518        0.711        0.380       81.375       26.222        0.104      340.799       15.069      865.274
10/14/2013  15:30:00       80.362       35.101       13.102       66.030       43.541       46.263     4359.897     1895.811     2140.236        0.813        0.420       87.693       29.385        0.112      340.761       15.005      865.274
10/14/2013  15:31:00       83.960       53.700       59.857      108.841       65.146       58.991    11846.405     4244.042     3479.880        1.654        0.979       99.664       49.606        0.248      340.999       15.407      865.268
10/14/2013  15:32:00      171.914       80.527       29.277       56.689       39.481       37.959     3213.685     1558.716     1440.848        2.155        0.311      189.839       11.642        0.004      340.868       15.183      865.277
10/14/2013  15:33:00      163.868      106.509       85.784       82.406       69.256       56.167     6790.782     4796.428     3154.708        3.015        0.737      195.440       45.753        0.055      340.603       14.736      865.259
10/14/2013  15:34:00      134.098       98.397       72.591       74.030       68.731       61.121     5480.391     4724.018     3735.725        2.343        0.697      166.326       46.593        0.078      340.717       14.929      865.238
10/14/2013  15:35:00      119.022       91.371       91.102       83.625       67.490       57.221     6993.191     4554.947     3274.238        2.282        0.741      150.050       52.273        0.121      340.890       15.220      865.216
10/14/2013  15:36:00       98.101       98.601       75.256       89.360       68.909       65.628     7985.184     4748.427     4307.080        2.102        0.852      139.090       50.910        0.134      340.928       15.286      865.210
10/14/2013  15:37:00       77.669       56.627       28.129       67.410       48.594       37.800     4544.119     2361.352     1428.823        0.918        0.417       96.120       35.834        0.139      340.950       15.324      865.216
10/14/2013  15:38:00      113.496      111.692       63.101       80.098       52.181       45.838     6415.681     2722.845     2101.097        2.029        0.562      159.237       45.085        0.080      340.866       15.180      865.211
10/14/2013  15:39:00      113.920       39.865       17.689       76.113       71.713       53.378     5793.151     5142.684     2849.252        1.433        0.689      120.694       25.227        0.044      340.856       15.165      865.223
10/14/2013  15:40:00      221.875      116.028       15.363       51.493       49.194       53.298     2651.509     2420.066     2840.674        3.542        0.396      250.381       18.986        0.006      340.394       14.380      865.222
10/14/2013  15:41:00      102.457       65.185        2.427       51.211       39.252       28.645     2622.613     1540.753      820.560        0.987        0.249      121.435       21.767        0.032      340.374       14.349      865.228
10/14/2013  15:42:00       43.499      -26.587      -11.917       25.459       44.080       18.573      648.180     1943.027      344.954        0.284        0.147       50.981       16.338        0.103      340.335       14.284      865.210
10/14/2013  15:43:00       -2.436       11.159      -10.650       27.821       30.166       22.019      774.016      910.008      484.845        0.121        0.108       11.422       11.900        1.085      340.681       14.870      865.196
10/14/2013  15:44:00       42.100      -45.621        4.875       39.742       65.842       35.583     1579.393     4335.211     1266.152        0.553        0.359       62.078       34.407        0.307      340.527       14.609      865.187
10/14/2013  15:45:00       20.934        5.710       27.053       33.765       25.993       22.629     1140.075      675.633      512.088        0.176        0.116       21.699       21.673        0.998      340.788       15.049      865.171
10/14/2013  15:46:00       42.906       11.482        9.830       22.533       21.875       19.830      507.750      478.508      393.235        0.172        0.069       44.416       15.604        0.123      340.729       14.949      865.167
10/14/2013  15:47:00      141.227      100.667       27.272       79.948       60.147       45.105     6391.703     3617.701     2034.479        2.143        0.602      173.432       27.051        0.024      340.604       14.736      865.164
10/14/2013  15:48:00       52.904       40.932       23.551       60.252       46.769       25.583     3630.301     2187.324      654.472        0.575        0.324       66.890       24.734        0.137      340.663       14.840      865.147
10/14/2013  15:49:00      -14.226      116.226      -10.499       39.615       81.896       26.047     1569.360     6706.923      678.435        1.139        0.448      117.093       29.838        0.065      340.772       15.022      865.133
10/14/2013  15:50:00       67.781       27.127       13.159       54.254       36.561       22.896     2943.530     1336.730      524.234        0.515        0.240       73.008       17.040        0.054      340.774       15.027      865.117
10/14/2013  15:51:00      -10.147       18.468       11.868       31.747       50.316       20.893     1007.856     2531.680      436.498        0.228        0.199       21.072       21.940        1.084      341.055       15.502      865.107
10/14/2013  15:52:00       22.000      164.004      -32.750       35.425       78.232       20.956     1254.921     6120.195      439.157        1.813        0.391      165.473       29.734        0.032      340.532       14.615      865.102
10/14/2013  15:53:00      -34.667      108.773      -27.779       55.201       56.081       28.732     3047.104     3145.082      825.550        1.041        0.351      114.164       36.789        0.104      340.552       14.652      865.100
10/14/2013  15:54:00      -75.562       75.010      -29.789       46.636       47.620       26.077     2174.883     2267.705      680.029        0.867        0.256      106.471       19.907        0.035      340.676       14.862      865.086
10/14/2013  15:55:00      -82.679      137.872      -36.115       30.965       46.134       24.275      958.816     2128.335      589.260        1.541        0.184      160.762       20.839        0.017      340.478       14.524      865.076
10/14/2013  15:56:00       19.561       62.686        0.505       65.845       28.862       34.287     4335.581      832.989     1175.569        0.533        0.317       65.667       35.846        0.298      340.719       14.933      865.079
10/14/2013  15:57:00      138.082       56.408       45.614      117.922       60.317       58.645    13905.575     3638.112     3439.221        2.265        1.049      149.159       39.598        0.070      340.723       14.940      865.077
10/14/2013  15:58:00      102.367       99.367       88.358      118.852       89.355       85.573    14125.739     7984.246     7322.764        2.879        1.472      142.663       78.308        0.301      340.826       15.112      865.064
10/14/2013  15:59:00      105.758        8.189       40.878       49.457      100.895       72.490     2445.993    10179.725     5254.741        1.540        0.894      106.075       76.076        0.514      340.549       14.646      865.055
10/14/2013  16:00:00       86.135      -29.430        1.871       24.395       42.266       25.928      595.106     1786.407      672.268        0.567        0.153       91.024       25.198        0.077      340.723       14.942      865.015
10/14/2013  16:01:00       41.125       36.290       10.393       26.082       28.881       27.892      680.253      834.137      777.965        0.270        0.115       54.848       19.705        0.129      340.712       14.923      865.030
10/14/2013  16:02:00       47.976      140.282      -24.557       71.441       92.901       37.644     5103.855     8630.580     1417.099        1.886        0.758      148.259       48.721        0.108      340.766       15.011      865.029
10/14/2013  16:03:00        2.503      209.824      -42.709       47.658       41.705       22.782     2271.246     1739.326      519.002        2.519        0.226      209.839       15.055        0.005      340.656       14.825      865.018
10/14/2013  16:04:00       78.025      101.940       -7.523       81.613       68.626       43.064     6660.695     4709.514     1854.501        1.488        0.661      128.373       42.649        0.110      340.792       15.056      865.020
10/14/2013  16:05:00      117.060       77.585        3.095       89.303       48.341       32.125     7975.045     2336.859     1031.987        1.554        0.567      140.437       19.509        0.019      340.807       15.081      865.010
10/14/2013  16:06:00       30.735      123.291       -1.244       43.641       70.846       41.455     1904.537     5019.097     1718.480        1.239        0.432      127.064       40.854        0.103      340.941       15.309      865.007
10/14/2013  16:07:00       92.360      207.557      -41.682       70.228       88.743       48.422     4932.009     7875.349     2344.671        3.425        0.758      227.179       47.318        0.043      340.805       15.077      865.009
10/14/2013  16:08:00       32.130      245.745      -48.545       40.860       56.381       27.275     1669.500     3178.862      743.938        3.468        0.280      247.836       16.568        0.004      340.506       14.570      865.038
10/14/2013  16:09:00       11.180      119.119      -23.560       51.495       81.818       27.937     2651.762     6694.216      780.499        1.250        0.506      119.642       32.238        0.073      340.655       14.824      865.041
10/14/2013  16:10:00       44.968       73.737       -7.566       50.501       45.704       28.987     2550.324     2088.889      840.272        0.650        0.274       86.367       27.956        0.105      340.709       14.918      865.043
10/14/2013  16:11:00      140.491       81.883        6.080       63.618       49.248       47.790     4047.256     2425.359     2283.881        1.762        0.438      162.612       26.971        0.028      340.636       14.793      865.034
10/14/2013  16:12:00       47.372       91.850       -5.603       59.553       51.969       30.719     3546.523     2700.740      943.680        0.895        0.360      103.347       25.899        0.063      340.564       14.669      865.039
10/14/2013  16:13:00        9.004      115.832      -25.677       28.426       67.680       21.553      808.010     4580.645      464.526        1.000        0.293      116.182       28.769        0.061      340.509       14.578      865.032
10/14/2013  16:14:00      -13.007       30.486       15.167       25.918       36.487       15.519      671.755     1331.297      240.848        0.179        0.112       33.145       15.056        0.206      341.017       15.440      865.015
10/14/2013  16:15:00       22.897       28.645       38.088       32.914       29.953       22.325     1083.315      897.154      498.420        0.264        0.124       36.672       11.803        0.104      340.857       15.167      865.004
10/14/2013  16:16:00       91.292       76.274       16.817       51.148       48.334       40.079     2616.091     2336.168     1606.340        1.050        0.328      118.962       12.219        0.011      340.647       14.812      864.993
10/14/2013  16:17:00      113.362       56.517       27.809       53.109       38.676       34.771     2820.582     1495.819     1209.030        1.117        0.276      126.669       27.137        0.046      340.700       14.902      864.972
10/14/2013  16:18:00       92.840       88.925       64.555       67.317       49.718       56.753     4531.559     2471.868     3220.934        1.546        0.511      128.557       50.157        0.152      340.698       14.897      864.967
10/14/2013  16:19:00      120.156       76.524        9.015       62.303       39.564       34.052     3881.627     1565.313     1159.522        1.349        0.330      142.455       19.115        0.018      340.595       14.723      864.974
10/14/2013  16:20:00       42.634       10.090       23.646       66.599       46.075       35.341     4435.445     2122.876     1248.975        0.514        0.390       43.812       27.902        0.406      340.905       15.248      864.965
10/14/2013  16:21:00       69.787       82.744       33.496       72.887       55.875       51.489     5312.513     3122.037     2651.103        1.196        0.554      108.244       29.812        0.076      340.914       15.263      864.965
10/14/2013  16:22:00      127.002       88.026       -6.847       95.151       79.193       47.290     9053.802     6271.524     2236.388        2.074        0.878      154.525       38.449        0.062      340.775       15.027      864.981
10/14/2013  16:23:00       13.358      111.626        5.934       43.548       92.083       43.161     1896.430     8479.228     1862.888        1.245        0.612      112.422       52.748        0.220      340.619       14.764      864.984
10/14/2013  16:24:00      -13.583       92.398        3.852       47.345       47.097       33.265     2241.503     2218.106     1106.546        0.715        0.278       93.391       13.267        0.020      340.793       15.059      864.969
10/14/2013  16:25:00       -2.493       50.235        6.923       34.706       34.846       20.895     1204.531     1214.235      436.619        0.272        0.143       50.297       22.629        0.202      340.919       15.271      864.948
10/14/2013  16:26:00      -73.767       47.953      -20.152       32.272       46.757       29.106     1041.480     2186.259      847.131        0.611        0.204       87.984       26.228        0.089      340.742       14.972      864.928
10/14/2013  16:27:00      -71.611       42.468      -20.924       22.290       22.743       16.555      496.835      517.248      274.083        0.433        0.064       83.257        7.752        0.009      340.770       15.020      864.913
10/14/2013  16:28:00      -50.006        4.212       -4.055       21.173       16.178       16.771      448.291      261.723      281.250        0.176        0.050       50.183       14.690        0.086      340.740       14.967      864.903
10/14/2013  16:29:00      -40.036       80.836       -1.395       43.677       60.839       32.330     1907.718     3701.425     1045.251        0.740        0.333       90.207       34.795        0.149      340.949       15.322      864.911
10/14/2013  16:30:00       97.481       62.776       40.386       69.949       58.660       50.489     4892.870     3440.970     2549.152        1.298        0.544      115.945       46.775        0.163      340.947       15.319      864.909
10/14/2013  16:31:00       93.243       64.735       40.836       75.400       55.197       46.905     5685.133     3046.709     2200.047        1.274        0.547      113.511       26.906        0.056      340.926       15.282      864.915
10/14/2013  16:32:00       27.214      194.536      -16.296       46.773      138.292       40.107     2187.726    19124.770     1608.566        3.088        1.146      196.430       64.783        0.109      340.740       14.969      864.928
10/14/2013  16:33:00       30.543      194.103      -28.358       59.325       67.919       31.467     3519.400     4613.036      990.164        2.427        0.456      196.492       30.652        0.024      340.639       14.797      864.931
10/14/2013  16:34:00       31.570       94.943       -1.806       43.697       59.418       34.521     1909.444     3530.472     1191.725        0.832        0.332      100.054       33.398        0.111      340.776       15.030      864.923
10/14/2013  16:35:00       81.494      169.300      -10.536      109.604       88.459       48.480    12013.095     7824.951     2350.315        2.880        1.109      187.893       45.682        0.059      340.768       15.013      864.931
10/14/2013  16:36:00       46.643       81.080      -11.515       59.462       62.329       43.246     3535.712     3884.894     1870.214        0.908        0.465       93.539       31.226        0.111      340.829       15.119      864.938
10/14/2013  16:37:00       85.630       70.869        4.676       60.790       44.783       33.367     3695.396     2005.549     1113.358        0.959        0.341      111.153       13.276        0.014      340.816       15.098      864.951
10/14/2013  16:38:00      116.232       85.071        4.385       92.127       57.554       38.034     8487.306     3312.463     1446.564        1.700        0.662      144.038       33.371        0.054      340.791       15.055      864.951
10/14/2013  16:39:00       94.564       54.930        0.522       65.232       48.388       35.479     4255.274     2341.445     1258.756        0.991        0.393      109.360       12.199        0.012      340.672       14.855      864.947
10/14/2013  16:40:00      142.660       53.483       19.468       64.931       55.544       55.330     4216.076     3085.148     3061.369        1.697        0.518      152.355       30.730        0.041      340.606       14.742      864.937
10/14/2013  16:41:00      127.537       16.694        8.167       63.776       59.558       49.506     4067.373     3547.128     2450.880        1.334        0.503      128.624       36.040        0.079      340.661       14.835      864.923
10/14/2013  16:42:00       63.179       32.574       19.459       61.506       64.558       33.254     3783.000     4167.777     1105.824        0.724        0.453       71.082       36.878        0.269      340.940       15.307      864.925
10/14/2013  16:43:00      130.175       96.258        4.660       68.189       48.391       47.353     4649.689     2341.671     2242.352        1.773        0.462      161.899       27.081        0.028      340.777       15.031      864.933
10/14/2013  16:44:00      170.061      125.137       15.646       70.259       46.525       41.887     4936.370     2164.612     1754.531        2.684        0.443      211.140       26.241        0.015      340.577       14.693      864.931
10/14/2013  16:45:00      118.876       82.353       31.332       93.881       62.758       35.812     8813.725     3938.613     1282.470        1.796        0.702      144.615       17.161        0.014      340.603       14.736      864.924
10/14/2013  16:46:00      173.723      118.361       24.024       56.618       53.418       48.664     3205.585     2853.534     2368.210        2.660        0.421      210.212       25.693        0.015      340.608       14.743      864.910
10/14/2013  16:47:00       78.243       60.868       10.818       59.031       41.155       44.727     3484.695     1693.733     2000.492        0.856        0.359       99.130       28.133        0.081      340.789       15.052      864.919
10/14/2013  16:48:00       71.376       51.376       17.969       36.175       38.544       22.125     1308.601     1485.625      489.536        0.567        0.164       87.943       18.229        0.043      340.684       14.875      864.918
10/14/2013  16:49:00       63.977       -4.056       20.699       55.127      101.346       36.624     3039.041    10271.079     1341.333        0.959        0.733       64.105       38.705        0.365      340.849       15.153      864.910
10/14/2013  16:50:00       86.914       47.160       13.499       32.723       39.557       29.532     1070.822     1564.717      872.147        0.673        0.175       98.884       17.865        0.033      340.634       14.790      864.916
10/14/2013  16:51:00       38.962      -14.517       14.246       17.326       27.625       19.749      300.179      763.160      390.018        0.169        0.073       41.579       11.243        0.073      340.973       15.363      864.906
10/14/2013  16:52:00       12.386       20.370       20.992       16.061       20.571        9.381      257.967      423.159       88.007        0.089        0.038       23.840        9.943        0.174      340.989       15.391      864.898
10/14/2013  16:53:00       57.331       35.167        7.173       60.263       31.100       17.402     3631.624      967.195      302.818        0.474        0.245       67.257       18.492        0.076      340.876       15.197      864.889
10/14/2013  16:54:00      106.455       63.704       13.500       46.826       38.640       34.414     2192.634     1493.055     1184.330        1.022        0.244      124.060        7.968        0.004      340.688       14.884      864.884
10/14/2013  16:55:00       81.427       72.069        3.465       95.623       66.899       43.706     9143.741     4475.480     1910.219        1.368        0.776      108.740       28.148        0.067      340.706       14.911      864.883
10/14/2013  16:56:00      113.902       75.340       12.379       77.005       44.754       38.413     5929.780     2002.907     1475.565        1.410        0.470      136.565       26.484        0.038      340.704       14.909      864.881
10/14/2013  16:57:00      107.727      117.860       -0.222       84.173       75.308       48.988     7085.173     5671.221     2399.798        2.032        0.758      159.675       45.521        0.081      340.704       14.907      864.876
10/14/2013  16:58:00      130.566      109.868        1.713       74.399       45.566       46.842     5535.198     2076.224     2194.156        1.946        0.490      170.641       34.652        0.041      340.700       14.901      864.883
10/14/2013  16:59:00       10.081       58.615        7.109       60.537       67.726       40.669     3664.682     4586.829     1653.989        0.674        0.495       59.476       40.038        0.453      340.867       15.183      864.892
10/14/2013  17:00:00       28.571       93.442       10.775       73.860       62.960       39.227     5455.236     3963.942     1538.729        1.031        0.548       97.712       42.782        0.192      340.877       15.201      864.890
10/14/2013  17:01:00      287.609      127.084       30.237      141.691       90.095       68.999    20076.396     8117.082     4760.826        6.636        1.648      314.435       54.576        0.030      340.759       14.999      864.894
10/14/2013  17:02:00      140.977      103.671       13.751      121.210       84.561       62.311    14691.885     7150.571     3882.694        2.826        1.286      174.992       51.630        0.087      340.684       14.872      864.911
10/14/2013  17:03:00      120.501      105.822       37.293       80.360       64.948       55.850     6457.808     4218.205     3119.228        2.045        0.690      160.371       33.744        0.044      340.640       14.797      864.907
10/14/2013  17:04:00      100.736      115.188       -1.639       94.734       93.463       61.493     8974.519     8735.403     3781.336        2.245        1.075      153.023       51.796        0.115      340.679       14.863      864.909
10/14/2013  17:05:00      144.676      122.859       25.269       79.609       59.972       58.916     6337.567     3596.606     3471.102        2.503        0.670      189.804       40.446        0.045      340.534       14.620      864.910
10/14/2013  17:06:00      122.672      104.788       11.835       53.436       45.337       41.832     2855.392     2055.433     1749.886        1.641        0.333      161.335       27.363        0.029      340.594       14.721      864.899
10/14/2013  17:07:00      167.734      116.131       15.251       94.149       77.536       55.853     8864.057     6011.763     3119.509        2.992        0.900      204.012       37.553        0.034      340.590       14.714      864.890
10/14/2013  17:08:00       98.143       73.020       27.670      107.477       72.898       55.439    11551.386     5314.136     3073.529        1.783        0.997      122.327       29.557        0.058      340.645       14.808      864.896
10/14/2013  17:09:00      171.501      115.581       16.509       77.437       64.627       49.020     5996.525     4176.658     2402.956        2.781        0.629      206.813       30.829        0.022      340.625       14.773      864.901
10/14/2013  17:10:00      120.333      102.623       21.062       87.820       50.081       41.678     7712.384     2508.108     1737.085        1.870        0.598      158.150       23.910        0.023      340.672       14.851      864.904
10/14/2013  17:11:00       91.157      146.651      -10.161       63.667       89.720       49.068     4053.521     8049.668     2407.703        2.221        0.726      172.674       51.038        0.087      340.668       14.846      864.908
10/14/2013  17:12:00      118.817      108.446        5.844       92.246       80.118       63.525     8509.414     6418.874     4035.445        2.243        0.948      160.866       52.484        0.106      340.583       14.702      864.910
10/14/2013  17:13:00       70.996      117.293        5.995       76.982       71.455       51.114     5926.277     5105.887     2612.677        1.624        0.682      137.106       35.430        0.067      340.533       14.617      864.922
10/14/2013  17:14:00      116.658      101.047       -2.571       78.136       79.704       66.089     6105.180     6352.676     4367.743        2.032        0.841      154.336       50.689        0.108      340.581       14.701      864.924
10/14/2013  17:15:00      180.475      108.621       19.179       71.670       59.855       43.677     5136.538     3582.649     1907.682        2.768        0.531      210.641       20.866        0.010      340.580       14.696      864.931
10/14/2013  17:16:00      110.914       71.099       18.282      100.170       69.483       43.101    10034.050     4827.885     1857.734        1.720        0.836      131.746       31.228        0.056      340.653       14.820      864.930
10/14/2013  17:17:00       87.093      101.093       -2.712      103.754       73.697       51.047    10764.849     5431.177     2605.815        1.830        0.940      133.436       41.052        0.095      340.622       14.767      864.941
10/14/2013  17:18:00       55.320      158.374      -10.882       60.609      100.574       50.035     3673.427    10115.210     2503.478        2.227        0.815      167.757       54.655        0.106      340.548       14.642      864.939
10/14/2013  17:19:00       94.832       84.763       -2.994       52.514       48.012       40.933     2757.670     2305.159     1675.525        1.146        0.337      127.192       31.457        0.061      340.570       14.682      864.947
10/14/2013  17:20:00      166.911      109.644       22.935       72.800       59.536       61.421     5299.798     3544.564     3772.575        2.651        0.631      199.702       45.804        0.053      340.591       14.714      864.945
10/14/2013  17:21:00       62.085       97.580        5.257       83.995       70.981       54.693     7055.216     5038.317     2991.281        1.424        0.754      115.657       49.361        0.182      340.666       14.843      864.952
10/14/2013  17:22:00       97.907      207.554      -21.164       85.911      110.390       64.144     7380.746    12186.007     4114.482        3.839        1.184      229.487       58.112        0.064      340.444       14.465      864.955
10/14/2013  17:23:00       79.405      232.213       -9.726       85.958      115.558       80.242     7388.863    13353.655     6438.842        4.375        1.359      245.414       73.134        0.089      340.502       14.562      864.956
10/14/2013  17:24:00       47.702      157.608        6.618       85.217      118.312       71.176     7261.988    13997.633     5066.074        2.674        1.316      164.668       73.586        0.200      340.403       14.399      864.966
10/14/2013  17:25:00       55.620      252.211      -36.902       76.532      139.277       54.633     5857.089    19397.979     2984.815        4.815        1.412      258.272       66.108        0.066      340.421       14.427      864.972
10/14/2013  17:26:00       53.254      242.790      -22.837       83.195      108.582       60.912     6921.418    11790.011     3710.289        4.236        1.121      248.562       61.446        0.061      340.414       14.414      864.976
10/14/2013  17:27:00       55.098      185.848      -15.297       70.063       86.843       48.352     4908.817     7541.702     2337.911        2.630        0.739      193.844       43.116        0.049      340.416       14.420      864.980
10/14/2013  17:28:00       45.025      181.217       -4.159       55.792      112.996       64.423     3112.705    12768.179     4150.284        2.745        1.002      186.727       71.248        0.146      340.442       14.463      864.986
10/14/2013  17:29:00       53.309      188.356      -11.926       79.300      117.899       51.977     6288.453    13900.207     2701.576        3.067        1.145      195.754       54.036        0.076      340.415       14.417      864.993
10/14/2013  17:30:00       98.471       80.605       -3.049       53.335       54.002       41.644     2844.669     2916.232     1734.210        1.185        0.375      127.254       29.838        0.055      340.467       14.507      864.999
10/14/2013  17:31:00      -16.956      154.449      -15.274       83.838      115.970       52.746     7028.775    13449.016     2782.117        2.381        1.163      155.376       58.733        0.143      340.483       14.533      865.008
10/14/2013  17:32:00      126.266      110.990        1.730       83.307       64.027       43.847     6940.080     4099.405     1922.541        2.061        0.648      168.113       27.461        0.027      340.421       14.427      865.030
10/14/2013  17:33:00       35.811      226.207      -28.894       76.170       96.437       50.328     5801.934     9300.034     2532.888        3.546        0.882      229.024       56.607        0.061      340.402       14.396      865.047
10/14/2013  17:34:00       28.608      256.025      -28.295       88.241       97.727       55.956     7786.401     9550.488     3131.033        4.381        1.023      257.619       53.716        0.043      340.367       14.334      865.061
10/14/2013  17:35:00       32.864      179.529      -10.546       70.870      134.784       58.025     5022.488    18166.714     3366.894        2.998        1.328      182.512       62.036        0.116      340.379       14.356      865.054
10/14/2013  17:36:00      -34.898      205.355      -25.333       53.900      103.452       37.195     2905.234    10702.381     1383.500        2.951        0.750      208.299       39.715        0.036      340.437       14.454      865.063
10/14/2013  17:37:00        7.428      157.429      -13.281       59.840       97.295       51.181     3580.803     9466.259     2619.505        2.034        0.783      157.605       57.464        0.133      340.437       14.456      865.063
10/14/2013  17:38:00       29.048      111.212       11.838       66.200       90.164       55.461     4382.438     8129.626     3075.941        1.447        0.779      114.943       53.944        0.220      340.404       14.399      865.078
10/14/2013  17:39:00       15.909      182.024        3.372      103.785      111.494       60.164    10771.427    12430.822     3619.710        3.010        1.341      182.718       62.749        0.118      340.356       14.318      865.076
10/14/2013  17:40:00       71.466      200.450      -19.192       80.675       96.661       71.074     6508.501     9343.426     5051.550        3.328        1.045      212.809       68.675        0.104      340.348       14.302      865.081
10/14/2013  17:41:00       86.830      247.089      -18.965       82.848      128.457       77.511     6863.858    16501.097     6007.997        4.916        1.469      261.901       79.290        0.092      340.282       14.191      865.065
10/14/2013  17:42:00       36.498      209.918      -32.585       57.686       96.269       35.408     3327.677     9267.782     1253.697        3.015        0.692      213.068       36.155        0.029      340.303       14.227      865.068
10/14/2013  17:43:00       32.370      141.775      -11.244       61.035      105.654       49.845     3725.285    11162.743     2484.494        1.932        0.869      145.424       56.680        0.152      340.300       14.224      865.075
10/14/2013  17:44:00       42.532       76.565        1.671       54.912       83.333       42.952     3015.306     6944.451     1844.903        0.974        0.590       87.585       40.879        0.218      340.301       14.226      865.070
10/14/2013  17:45:00       56.712       70.054       -0.791       40.371       51.660       34.723     1629.805     2668.754     1205.690        0.681        0.275       90.132       29.191        0.105      340.278       14.187      865.060
10/14/2013  17:46:00       76.715      174.268       -0.176       71.899      111.687       69.343     5169.520    12473.962     4808.388        2.935        1.123      190.406       64.508        0.115      340.231       14.104      865.056
10/14/2013  17:47:00       38.817      166.679      -20.317       61.525      108.021       47.802     3785.338    11668.626     2285.058        2.372        0.887      171.140       53.349        0.097      340.217       14.084      865.056
10/14/2013  17:48:00       59.137      126.880       12.484       96.514       92.556       67.869     9314.922     8566.699     4606.236        2.112        1.124      139.985       54.535        0.152      340.171       14.006      865.060
10/14/2013  17:49:00      110.114      141.163        9.034      107.511       94.018       72.725    11558.702     8839.304     5288.896        2.890        1.284      179.031       53.761        0.090      340.159       13.986      865.055
10/14/2013  17:50:00       52.448      228.367      -16.246       73.167      133.896       68.939     5353.377    17928.077     4752.583        4.159        1.402      234.312       84.313        0.129      340.138       13.948      865.051
10/14/2013  17:51:00       42.365      202.643      -10.006       65.483      110.339       54.499     4288.055    12174.680     2970.136        3.119        0.972      207.024       57.905        0.078      340.126       13.928      865.046
10/14/2013  17:52:00       64.082      213.511      -16.611       79.231      157.025       65.237     6277.597    24656.813     4255.924        4.257        1.760      222.920       82.973        0.139      340.120       13.919      865.057
10/14/2013  17:53:00       62.103      123.533        3.324       64.083       96.682       62.612     4106.692     9347.324     3920.273        1.825        0.869      138.265       54.324        0.154      340.083       13.858      865.064
10/14/2013  17:54:00       40.999      120.150        0.171       59.166      100.816       52.108     3500.633    10163.849     2715.222        1.625        0.819      126.952       54.798        0.186      340.062       13.823      865.065
10/14/2013  17:55:00       44.946      127.017      -15.141       57.001       85.608       37.472     3249.135     7328.653     1404.132        1.518        0.599      134.735       48.552        0.130      340.074       13.844      865.087
10/14/2013  17:56:00        4.374      185.225      -22.135       67.068      100.061       40.624     4498.155    10012.176     1650.306        2.549        0.808      185.276       45.405        0.060      340.073       13.841      865.108
10/14/2013  17:57:00       21.758      164.760      -12.811       38.517       57.517       40.263     1483.530     3308.153     1621.079        1.710        0.321      166.190       37.459        0.051      340.046       13.794      865.117
10/14/2013  17:58:00       35.370      141.574      -25.567       41.522      117.839       43.217     1724.091    13886.049     1867.688        1.971        0.874      145.926       64.663        0.196      340.032       13.771      865.117
10/14/2013  17:59:00       49.887      107.688       -6.263       52.192       81.519       45.116     2723.984     6645.344     2035.428        1.276        0.570      118.682       51.481        0.188      339.990       13.701      865.132
10/14/2013  18:00:00       80.540       86.259       28.207       81.554       84.404       52.161     6651.126     7123.993     2720.726        1.561        0.825      118.014       45.521        0.149      339.979       13.681      865.136
10/14/2013  18:01:00       41.127      105.194      -10.454       54.381       55.048       48.430     2957.306     3030.328     2345.462        1.060        0.417      112.948       39.587        0.123      339.981       13.686      865.134
10/14/2013  18:02:00       39.703      154.593      -11.451       52.494       68.554       45.835     2755.665     4699.672     2100.853        1.758        0.478      159.610       42.191        0.070      339.979       13.681      865.146
10/14/2013  18:03:00       27.054      158.093       -7.578       51.060       93.899       43.965     2607.128     8817.103     1932.938        1.957        0.668      160.391       49.054        0.094      339.942       13.619      865.149
10/14/2013  18:04:00       18.325      195.008      -23.078       60.393       88.580       47.468     3647.353     7846.372     2253.188        2.632        0.687      195.867       48.986        0.063      339.957       13.642      865.149
10/14/2013  18:05:00       33.200      160.992      -15.572       44.168       91.326       46.568     1950.778     8340.456     2168.591        1.986        0.623      164.380       51.012        0.096      339.907       13.561      865.156
10/14/2013  18:06:00       -8.861      167.936      -25.203       39.452       34.894       22.847     1556.442     1217.597      521.985        1.611        0.165      168.170        4.284        0.001      339.922       13.588      865.160
10/14/2013  18:07:00      -11.557      192.615      -29.320       46.738       44.334       22.073     2184.434     1965.532      487.230        2.136        0.232      192.961       16.243        0.007      339.917       13.578      865.172
10/14/2013  18:08:00        0.009      146.488      -19.515       40.413       64.557       33.008     1633.184     4167.566     1089.519        1.436        0.345      146.488       35.927        0.060      339.892       13.536      865.170
10/14/2013  18:09:00      -15.325      140.469      -12.632       45.695       55.524       31.300     2087.997     3082.945      979.707        1.314        0.308      141.302       29.487        0.044      339.872       13.503      865.176
10/14/2013  18:10:00       14.569      168.082      -22.127       49.459       49.644       33.176     2446.219     2464.543     1100.628        1.748        0.301      168.712       32.723        0.038      339.859       13.480      865.170
10/14/2013  18:11:00       31.253      147.812      -10.694       41.971       59.606       36.688     1761.586     3552.914     1345.976        1.480        0.333      151.080       29.756        0.039      339.850       13.465      865.173
10/14/2013  18:12:00       25.281      121.034       -2.081       52.251       62.444       41.901     2730.216     3899.315     1755.700        1.184        0.419      123.647       44.227        0.128      339.799       13.381      865.173
10/14/2013  18:13:00        4.078      122.085      -23.077       29.894       44.927       21.096      893.635     2018.429      445.040        0.940        0.168      122.153       24.581        0.040      339.796       13.375      865.181
10/14/2013  18:14:00      -16.378      163.474      -20.146       42.152       55.902       25.952     1776.830     3125.058      673.482        1.649        0.279      164.293       27.771        0.029      339.845       13.456      865.190
10/14/2013  18:15:00       10.457      237.988      -34.847       49.008       74.471       34.267     2401.786     5545.887     1174.207        3.354        0.456      238.217       36.024        0.023      339.796       13.370      865.200
10/14/2013  18:16:00      -39.285      167.392      -21.534       39.735       64.091       28.115     1578.907     4107.626      790.454        1.825        0.324      171.940       32.115        0.035      339.782       13.349      865.196
10/14/2013  18:17:00       11.335      157.543      -21.062       38.266       55.776       25.734     1464.298     3110.913      662.226        1.531        0.262      157.950       24.717        0.024      339.757       13.308      865.209
10/14/2013  18:18:00      -33.416      159.813      -20.891       45.579       50.405       23.115     2077.453     2540.663      534.322        1.612        0.258      163.269       21.559        0.017      339.838       13.445      865.204
10/14/2013  18:19:00      -17.590      118.929       -1.940       50.384       76.329       38.880     2538.569     5826.155     1511.635        1.216        0.494      120.223       46.109        0.147      339.738       13.277      865.201
10/14/2013  18:20:00      -42.942      158.415      -15.443       39.578       47.703       27.451     1566.382     2275.609      753.550        1.589        0.230      164.132       21.535        0.017      339.781       13.351      865.206
10/14/2013  18:21:00      -50.107      153.485      -22.482       50.087       57.186       24.669     2508.694     3270.272      608.538        1.648        0.319      161.457       28.894        0.032      339.800       13.381      865.205
10/14/2013  18:22:00      -41.236      141.034      -24.597       40.696       65.706       22.411     1656.157     4317.328      502.255        1.433        0.324      146.939       21.407        0.021      339.833       13.436      865.207
10/14/2013  18:23:00      -42.295      128.298      -17.482       43.398       60.390       28.850     1883.394     3646.963      832.313        1.246        0.318      135.090       23.693        0.031      339.788       13.362      865.216
10/14/2013  18:24:00      -53.126      215.906      -27.121       45.070       63.526       34.989     2031.315     4035.508     1224.220        2.873        0.365      222.346       31.943        0.021      339.775       13.336      865.220
10/14/2013  18:25:00      -53.222      168.531      -25.310       36.346       38.277       20.686     1321.068     1465.128      427.916        1.754        0.161      176.735       18.578        0.011      339.762       13.318      865.218
10/14/2013  18:26:00      -74.812      193.542      -31.631       42.881       96.217       26.886     1838.820     9257.663      722.852        2.794        0.591      207.498       26.123        0.016      339.741       13.281      865.225
10/14/2013  18:27:00      -90.076      130.447      -23.214       50.595       70.398       29.960     2559.893     4955.915      897.618        1.704        0.421      158.525       20.921        0.017      339.752       13.300      865.236
10/14/2013  18:28:00      -52.445      172.492      -22.577       42.345       73.307       34.670     1793.091     5373.959     1202.032        2.069        0.418      180.289       37.244        0.043      339.727       13.256      865.244
10/14/2013  18:29:00     -107.374      105.950      -31.640       68.212       56.595       28.993     4652.835     3202.941      840.572        1.622        0.435      150.846       20.421        0.018      339.780       13.348      865.250
10/14/2013  18:30:00      -94.011      108.555      -19.166       50.727       44.278       24.856     2573.226     1960.556      617.837        1.307        0.258      143.604       20.414        0.020      339.711       13.234      865.254
10/14/2013  18:31:00      -82.188       66.445      -13.248       36.449       34.668       24.458     1328.556     1201.903      598.186        0.724        0.156      105.687       19.442        0.034      339.694       13.203      865.258
10/14/2013  18:32:00      -84.448       37.554      -10.602       23.575       35.097       15.697      555.769     1231.834      246.389        0.534        0.102       92.422       11.602        0.016      339.759       13.312      865.262
10/14/2013  18:33:00     -154.658       63.913      -30.802       82.489       78.067       42.834     6804.364     6094.427     1834.742        2.184        0.737      167.344       27.005        0.026      339.548       12.952      865.266
10/14/2013  18:34:00      -97.273      111.917       -3.254       60.156       69.023       32.775     3618.742     4764.209     1074.197        1.573        0.473      148.282       26.838        0.033      339.404       12.713      865.277
10/14/2013  18:35:00      -75.858       53.179       -1.442       55.874       68.669       33.557     3121.876     4715.442     1126.054        0.877        0.448       92.642       27.250        0.087      339.367       12.653      865.277
10/14/2013  18:36:00      -70.318       78.851      -12.885       40.975       72.269       38.780     1678.978     5222.738     1503.874        0.987        0.420      105.651       33.394        0.100      339.389       12.686      865.284
10/14/2013  18:37:00      -94.487      115.899      -18.690       54.083       64.518       36.316     2924.949     4162.610     1318.822        1.556        0.420      149.533       41.544        0.077      339.268       12.484      865.291
10/14/2013  18:38:00      -82.486      114.558      -15.120       32.458       58.369       27.665     1053.516     3406.931      765.337        1.269        0.261      141.165       17.117        0.015      339.233       12.427      865.296
10/14/2013  18:39:00      -78.055       76.230      -22.748       34.596       38.722       30.436     1196.910     1499.404      926.379        0.802        0.181      109.104       24.843        0.052      339.244       12.446      865.298
10/14/2013  18:40:00      -93.144       50.139       -4.074       61.740       34.050       33.835     3811.871     1159.410     1144.804        0.866        0.306      105.781       29.379        0.077      339.251       12.454      865.311
10/14/2013  18:41:00     -127.319       71.058      -19.763       44.168       70.285       32.730     1950.833     4939.996     1071.265        1.480        0.398      145.806       25.894        0.032      339.222       12.408      865.307
10/14/2013  18:42:00      -74.943       60.494       -5.922       41.272       78.834       33.079     1703.372     6214.742     1094.244        0.916        0.451       96.312       26.127        0.074      339.206       12.379      865.312
10/14/2013  18:43:00     -113.947       39.966      -22.083       60.491       39.216       30.921     3659.159     1537.884      956.124        1.061        0.308      120.752       24.728        0.042      339.203       12.375      865.326
10/14/2013  18:44:00      -91.174      181.581      -24.493       69.067       64.329       52.642     4770.317     4138.254     2771.226        2.678        0.584      203.185       40.580        0.040      339.156       12.293      865.332
10/14/2013  18:45:00     -115.884       93.601      -37.883       65.557      109.617       42.814     4297.662    12015.781     1833.079        2.088        0.907      148.964       47.659        0.102      339.220       12.403      865.339
10/14/2013  18:46:00     -131.351       83.613      -16.570       59.664       64.910       42.496     3559.812     4213.280     1805.883        1.705        0.479      155.706       36.887        0.056      339.161       12.302      865.338
10/14/2013  18:47:00     -155.188      114.531      -48.026       54.239       66.539       30.145     2941.819     4427.455      908.714        2.389        0.414      192.875       16.612        0.007      339.198       12.367      865.351
10/14/2013  18:48:00     -140.145       50.079       -5.469       73.465       52.334       41.704     5397.060     2738.845     1739.196        1.602        0.494      148.824       34.070        0.052      339.198       12.366      865.348
10/14/2013  18:49:00     -121.910      142.431      -21.457       42.781       74.781       38.369     1830.239     5592.197     1472.180        2.225        0.445      187.480       39.234        0.044      339.144       12.273      865.360
10/14/2013  18:50:00     -146.646       99.144      -29.157       45.947       64.741       34.421     2111.090     4191.337     1184.837        1.983        0.374      177.016       31.285        0.031      339.226       12.415      865.367
10/14/2013  18:51:00      -93.530       85.695      -12.686       48.647       75.635       30.518     2366.486     5720.693      931.320        1.263        0.451      126.853       38.795        0.094      339.219       12.400      865.370
10/14/2013  18:52:00     -125.647      111.326      -25.749       51.939       75.577       35.710     2697.652     5711.954     1275.229        1.926        0.484      167.871       40.662        0.059      339.240       12.436      865.384
10/14/2013  18:53:00     -192.987      189.099      -45.511       86.830       88.599       48.985     7539.497     7849.863     2399.490        4.643        0.889      270.190       55.326        0.042      339.202       12.370      865.402
10/14/2013  18:54:00     -124.540      171.046      -32.693       61.389       55.440       38.262     3768.648     3073.644     1463.943        2.707        0.415      211.581       40.841        0.037      339.173       12.322      865.411
10/14/2013  18:55:00     -121.610      161.739      -35.553       66.023       51.781       34.768     4359.024     2681.296     1208.821        2.523        0.412      202.357       34.309        0.029      339.185       12.343      865.426
10/14/2013  18:56:00     -152.184      153.187      -37.556       61.297       67.902       40.197     3757.316     4610.648     1615.785        2.901        0.499      215.931       34.465        0.025      339.197       12.363      865.436
10/14/2013  18:57:00     -116.607      163.179      -28.321       68.153       81.590       38.990     4644.783     6656.989     1520.229        2.692        0.641      200.561       40.419        0.041      339.175       12.325      865.432
10/14/2013  18:58:00     -132.378      113.816      -22.548       55.286       72.648       30.488     3056.539     5277.738      929.501        2.012        0.463      174.580       28.211        0.026      339.229       12.417      865.441
10/14/2013  18:59:00      -94.688      136.200      -29.139       47.108       63.678       28.152     2219.200     4054.848      792.524        1.771        0.353      165.880       28.421        0.029      339.235       12.426      865.447
10/14/2013  19:00:00     -100.721       86.296      -24.861       36.793       52.276       27.170     1353.749     2732.832      738.217        1.152        0.241      132.633       24.439        0.034      339.299       12.537      865.453
10/14/2013  19:01:00     -155.595      145.221      -42.517       70.899       90.138       34.791     5026.637     8124.874     1210.391        3.073        0.718      212.835       45.383        0.045      339.290       12.518      865.464
10/14/2013  19:02:00     -113.281      144.050      -28.375       65.342       63.036       36.342     4269.532     3973.512     1320.742        2.197        0.478      183.257       39.322        0.046      339.256       12.463      865.478
10/14/2013  19:03:00     -119.773      116.530      -23.311       35.767       52.328       27.985     1279.248     2738.189      783.183        1.663        0.240      167.108       24.308        0.021      339.230       12.419      865.482
10/14/2013  19:04:00      -57.049      139.077      -24.643       41.497       54.269       30.721     1722.034     2945.084      943.807        1.441        0.281      150.323       29.222        0.038      339.189       12.353      865.483
10/14/2013  19:05:00      -69.243      112.043      -19.948       38.658       50.861       26.478     1494.414     2586.829      701.072        1.126        0.239      131.712       27.359        0.043      339.071       12.153      865.482
10/14/2013  19:06:00     -102.959      101.380      -19.480       59.853       63.986       38.986     3582.375     4094.180     1519.934        1.523        0.460      144.494       37.660        0.068      339.122       12.239      865.485
10/14/2013  19:07:00      -99.115       70.077       -8.059       42.484       44.735       29.692     1804.888     2001.216      881.606        0.974        0.234      121.387       13.667        0.013      339.041       12.103      865.482
10/14/2013  19:08:00      -76.584       74.239      -17.392       33.264       33.921       20.542     1106.483     1150.612      421.973        0.718        0.134      106.661       13.379        0.016      338.975       11.992      865.482
10/14/2013  19:09:00      -83.145      110.828      -19.929       47.823       64.484       25.374     2287.063     4158.181      643.824        1.334        0.354      138.549       14.688        0.011      339.001       12.037      865.479
10/14/2013  19:10:00      -98.066      103.477      -24.602       42.451       58.403       29.526     1802.072     3410.900      871.794        1.351        0.304      142.564       31.906        0.050      338.974       11.989      865.486
10/14/2013  19:11:00      -53.676      157.375      -22.119       43.013       43.787       23.664     1850.107     1917.313      559.980        1.623        0.216      166.277       22.229        0.018      338.948       11.947      865.482
10/14/2013  19:12:00      -21.180      148.325      -12.593       27.470       51.499       22.081      754.595     2652.116      487.555        1.325        0.195      149.829       21.856        0.021      338.902       11.868      865.488
10/14/2013  19:13:00      -22.801       85.560      -16.580       51.020       24.597       15.962     2603.059      605.000      254.785        0.579        0.173       88.546       12.609        0.020      338.951       11.950      865.486
10/14/2013  19:14:00      -34.497      117.815      -20.431       29.979       31.887       16.956      898.728     1016.750      287.504        0.884        0.110      122.761       12.677        0.011      338.997       12.029      865.481
10/14/2013  19:15:00      -51.966       16.189        2.320       50.532       55.929       30.354     2553.474     3128.006      921.373        0.478        0.330       54.429       24.684        0.206      338.936       11.926      865.473
10/14/2013  19:16:00      -75.548      103.743      -21.684       44.281       47.979       27.216     1960.772     2301.977      740.737        1.097        0.250      128.336       32.129        0.063      338.853       11.786      865.475
10/14/2013  19:17:00      -70.475      110.730      -19.257       53.133       65.615       30.586     2823.077     4305.363      935.505        1.283        0.403      131.255       27.779        0.045      338.882       11.834      865.478
10/14/2013  19:18:00      -82.429       74.568      -15.512       36.070       49.533       26.758     1301.040     2453.497      715.990        0.853        0.224      111.153       17.357        0.024      338.852       11.785      865.470
10/14/2013  19:19:00      -64.351      120.279       -9.248       56.526       50.502       37.246     3195.205     2550.454     1387.300        1.291        0.357      136.411       33.799        0.061      338.841       11.765      865.477
10/14/2013  19:20:00      -57.209      162.148      -23.363       40.887       51.897       20.112     1671.748     2693.262      404.503        1.744        0.238      171.944       16.150        0.009      338.845       11.773      865.469
10/14/2013  19:21:00      -29.110      131.901       -7.874       34.161       73.463       27.487     1166.989     5396.747      755.529        1.281        0.366      135.075       25.214        0.035      338.755       11.621      865.468
10/14/2013  19:22:00      -74.523      104.097      -10.258       66.778      107.153       38.516     4459.332    11481.829     1483.508        1.696        0.871      128.023       51.918        0.164      338.777       11.659      865.462
10/14/2013  19:23:00      -80.903      215.449      -23.453       68.249       72.775       48.602     4657.912     5296.172     2362.180        3.291        0.616      230.138       39.140        0.029      338.741       11.594      865.462
10/14/2013  19:24:00     -113.275      167.028      -20.294       71.997       66.525       44.832     5183.626     4425.603     2009.930        2.638        0.581      201.816       45.982        0.052      338.738       11.592      865.457
10/14/2013  19:25:00      -81.133      201.676      -28.037       56.772       62.304       32.152     3223.087     3881.782     1033.754        2.809        0.407      217.384       26.426        0.015      338.826       11.740      865.468
10/14/2013  19:26:00      -82.696      120.451      -19.140       51.946       55.728       36.074     2698.387     3105.637     1301.353        1.441        0.355      146.106       35.828        0.060      338.854       11.788      865.470
10/14/2013  19:27:00      -99.868       84.945      -16.771       46.164       51.014       25.586     2131.127     2602.401      654.624        1.143        0.269      131.108       20.305        0.024      338.808       11.711      865.471
10/14/2013  19:28:00      -53.446      154.625      -23.559       45.059       59.010       27.664     2030.283     3482.144      765.270        1.680        0.314      163.601       19.759        0.015      338.844       11.772      865.490
10/14/2013  19:29:00      -52.748      146.435      -19.162       68.175       77.499       38.642     4647.847     6006.129     1493.167        1.837        0.607      155.646       44.617        0.082      338.776       11.657      865.478
10/14/2013  19:30:00     -146.988      216.817      -31.888       62.488       82.899       41.161     3904.742     6872.221     1694.206        4.105        0.624      261.945       37.509        0.021      338.736       11.585      865.480
10/14/2013  19:31:00     -139.849      208.454      -40.808       84.863       69.895       52.392     7201.700     4885.373     2744.910        3.975        0.742      251.020       51.352        0.042      338.724       11.568      865.470
10/14/2013  19:32:00     -123.004      166.689      -26.338       55.828       78.216       37.484     3116.789     6117.675     1405.041        2.712        0.532      207.160       31.320        0.023      338.852       11.783      865.463
10/14/2013  19:33:00     -109.469      210.312      -30.142       60.553       76.409       38.511     3666.610     5838.322     1483.090        3.405        0.549      237.096       33.912        0.020      338.768       11.642      865.452
10/14/2013  19:34:00      -81.738      194.969      -21.455       50.797       51.632       32.218     2580.380     2665.834     1038.002        2.572        0.314      211.409       30.070        0.020      338.750       11.613      865.465
10/14/2013  19:35:00      -53.457      289.298      -36.887       55.915       65.990       41.799     3126.511     4354.625     1747.169        4.857        0.461      294.196       39.812        0.018      338.697       11.521      865.468
10/14/2013  19:36:00      -89.914      215.010      -25.097       61.590       75.173       42.741     3793.303     5651.026     1826.789        3.311        0.564      233.053       38.371        0.027      338.646       11.436      865.475
10/14/2013  19:37:00     -115.806      247.913      -39.201       60.489       89.454       44.179     3658.956     8001.959     1951.819        4.501        0.681      273.627       39.228        0.021      338.669       11.474      865.472
10/14/2013  19:38:00     -128.372      247.758      -32.296       61.741       65.147       38.159     3811.936     4244.133     1456.134        4.421        0.476      279.040       25.511        0.008      338.689       11.507      865.478
10/14/2013  19:39:00     -111.323      212.889      -22.746       94.135       86.833       36.905     8861.370     7539.888     1361.966        3.799        0.888      240.239       48.442        0.041      338.688       11.507      865.473
10/14/2013  19:40:00      -81.786      183.425      -21.327       55.822       69.740       32.710     3116.150     4863.599     1069.935        2.492        0.452      200.832       27.434        0.019      338.724       11.566      865.478
10/14/2013  19:41:00      -70.643      151.873      -21.067       46.700       68.946       31.141     2180.914     4753.546      969.771        1.820        0.395      167.499       36.376        0.047      338.705       11.539      865.474
10/14/2013  19:42:00      -27.093      191.046      -18.974       34.546       56.849       25.198     1193.458     3231.775      634.920        2.133        0.253      192.957        8.650        0.002      338.736       11.587      865.478
10/14/2013  19:43:00      -52.299      136.483      -14.928       34.728       52.409       27.811     1206.006     2746.718      773.459        1.315        0.236      146.160       16.774        0.013      338.726       11.572      865.473
10/14/2013  19:44:00      -63.709      160.686      -21.583       44.133       61.836       30.968     1947.714     3823.642      959.026        1.854        0.337      172.854       30.733        0.032      338.755       11.621      865.487
10/14/2013  19:45:00      -44.758      229.279      -27.658       40.079       51.023       23.242     1606.296     2603.300      540.195        3.004        0.237      233.607       13.385        0.003      338.746       11.603      865.490
10/14/2013  19:46:00      -77.533       91.030      -13.869       52.174       76.842       36.373     2722.138     5904.725     1323.015        1.222        0.497      119.573       37.300        0.097      338.769       11.645      865.485
10/14/2013  19:47:00      -62.337      216.080      -24.303       46.482       94.343       34.274     2160.604     8900.549     1174.701        3.170        0.612      224.892       37.282        0.027      338.675       11.486      865.496
10/14/2013  19:48:00      -88.959      160.526      -13.519       73.776       79.053       39.491     5442.912     6249.349     1559.567        2.356        0.663      183.527       41.373        0.051      338.726       11.571      865.491
10/14/2013  19:49:00     -111.209      176.509      -24.701       48.665       49.862       35.178     2368.278     2486.243     1237.509        2.511        0.305      208.621       32.946        0.025      338.628       11.405      865.504
10/14/2013  19:50:00     -106.798      127.653      -24.929       60.866       55.905       34.224     3704.721     3125.365     1171.282        1.816        0.400      166.436       34.619        0.043      338.638       11.423      865.498
10/14/2013  19:51:00      -52.483      160.569      -17.059       34.318       68.388       29.151     1177.755     4676.897      849.800        1.776        0.335      168.928       23.871        0.020      338.654       11.452      865.514
10/14/2013  19:52:00     -106.417      119.505      -31.863       50.921       44.220       33.958     2592.912     1955.395     1153.125        1.616        0.285      160.019       34.530        0.047      338.692       11.515      865.522
10/14/2013  19:53:00      -40.887      114.393       -6.346       67.872       49.057       35.369     4606.594     2406.589     1250.974        1.153        0.413      121.480       39.463        0.106      338.623       11.400      865.517
10/14/2013  19:54:00      -67.260      121.476      -25.015       42.020       77.116       25.145     1765.641     5946.940      632.291        1.412        0.417      138.853       28.815        0.043      338.698       11.526      865.534
10/14/2013  19:55:00      -73.411       67.470      -12.655       51.607       51.116       26.842     2663.266     2612.824      720.496        0.805        0.300       99.707       24.877        0.062      338.624       11.400      865.541
10/14/2013  19:56:00      -97.173       85.354      -16.179       81.326       54.747       39.661     6613.940     2997.193     1573.009        1.408        0.559      129.336       45.314        0.123      338.565       11.302      865.542
10/14/2013  19:57:00     -102.953      120.060      -26.088       47.786       56.875       34.702     2283.469     3234.735     1204.215        1.621        0.336      158.157       26.417        0.028      338.592       11.346      865.562
10/14/2013  19:58:00     -126.511      167.504      -31.773       58.302       49.228       29.497     3399.140     2423.363      870.091        2.588        0.335      209.911       19.625        0.009      338.607       11.371      865.577
10/14/2013  19:59:00     -115.030      122.164      -26.398       51.031       54.132       30.849     2604.208     2930.317      951.653        1.767        0.324      167.798       29.132        0.030      338.563       11.299      865.579
10/14/2013  20:00:00      -99.477      144.834      -28.225       48.295       52.457       34.345     2332.390     2751.710     1179.608        1.897        0.313      175.706       25.650        0.021      338.534       11.250      865.596
10/14/2013  20:01:00     -103.681      128.094      -24.298       56.556       50.747       31.643     3198.564     2575.238     1001.302        1.726        0.339      164.796       34.551        0.044      338.484       11.166      865.598
10/14/2013  20:02:00      -91.167      103.590      -16.543       65.370       69.470       30.757     4273.214     4826.111      945.993        1.468        0.502      137.994       40.748        0.087      338.499       11.192      865.603
10/14/2013  20:03:00      -99.845      120.213      -21.967       75.364       62.592       32.527     5679.662     3917.806     1058.026        1.778        0.533      156.270       45.466        0.085      338.504       11.198      865.622
10/14/2013  20:04:00      -46.725       91.447       -6.396       47.691       71.689       33.117     2274.443     5139.346     1096.759        0.955        0.426      102.692       34.927        0.116      338.408       11.039      865.627
10/14/2013  20:05:00      -76.440       74.119       -9.627       56.519       40.121       31.621     3194.353     1609.699      999.863        0.862        0.290      106.474       24.653        0.054      338.468       11.139      865.631
10/14/2013  20:06:00      -98.848      120.161      -21.519       56.173       38.241       30.297     3155.366     1462.349      917.925        1.510        0.277      155.594       30.917        0.039      338.441       11.094      865.644
10/14/2013  20:07:00     -112.404       99.693      -21.580       56.721       65.637       33.895     3217.249     4308.281     1148.889        1.586        0.434      150.245       32.403        0.047      338.436       11.085      865.647
10/14/2013  20:08:00     -112.484      131.327      -24.356       47.839       72.472       41.607     2288.574     5252.241     1731.142        1.988        0.464      172.915       41.483        0.058      338.431       11.077      865.650
10/14/2013  20:09:00     -139.912      141.861      -36.446       42.234       74.435       30.495     1783.701     5540.564      929.967        2.464        0.413      199.248       23.155        0.014      338.440       11.091      865.662
10/14/2013  20:10:00      -98.578      101.569      -15.395       45.788       80.020       27.528     2096.522     6403.274      757.766        1.476        0.463      141.542       21.761        0.024      338.406       11.037      865.671
10/14/2013  20:11:00     -103.722       88.247      -19.031       33.236       39.168       22.093     1104.651     1534.129      488.112        1.102        0.156      136.183       14.315        0.011      338.434       11.083      865.686
10/14/2013  20:12:00     -101.079       37.370       -8.243       31.281       30.516       20.879      978.500      931.234      435.949        0.701        0.117      107.766       18.581        0.030      338.389       11.008      865.690
10/14/2013  20:13:00      -45.102       -4.421      -19.790       50.534       71.540       26.951     2553.671     5117.934      726.335        0.542        0.420       45.318       29.509        0.424      338.297       10.853      865.690
10/14/2013  20:14:00      -70.869        6.322       -7.680       34.640       38.624       13.530     1199.903     1491.840      183.056        0.400        0.144       71.151       14.724        0.043      338.268       10.804      865.707
10/14/2013  20:15:00      -67.739        0.454       -1.920       29.316       30.813       19.496      859.434      949.426      380.099        0.339        0.109       67.740       20.522        0.092      338.290       10.841      865.709
10/14/2013  20:16:00      -89.114      122.712      -16.131       70.562       79.885       53.062     4978.974     6381.667     2815.550        1.872        0.709      151.656       43.301        0.082      338.288       10.837      865.714
10/14/2013  20:17:00     -105.586      118.252      -30.645       53.514       65.250       37.026     2863.729     4257.617     1370.894        1.728        0.425      158.530       30.836        0.038      338.338       10.921      865.733
10/14/2013  20:18:00      -65.202       49.784       -7.343       30.220       33.005       24.766      913.246     1089.360      613.357        0.470        0.131       82.035       17.196        0.044      338.328       10.905      865.728
10/14/2013  20:19:00      -96.852       50.192      -17.653       27.998       52.305       18.047      783.915     2735.768      325.708        0.803        0.192      109.086       21.298        0.038      338.298       10.855      865.737
10/14/2013  20:20:00      -47.272        3.940       -9.615       48.800       31.554       26.775     2381.427      995.661      716.882        0.322        0.205       47.435       24.240        0.261      338.274       10.814      865.743
10/14/2013  20:21:00     -106.640       67.019      -20.354       37.786       44.395       21.830     1427.788     1970.876      476.551        1.008        0.194      125.951       20.015        0.025      338.251       10.775      865.750
10/14/2013  20:22:00      -68.450       29.701      -11.290       30.847       33.945       26.714      951.559     1152.259      713.617        0.426        0.141       74.616       20.294        0.074      338.285       10.831      865.767
10/14/2013  20:23:00     -111.092      -22.904       -8.746       55.388       51.644       21.024     3067.864     2667.115      442.000        0.956        0.309      113.429       24.311        0.046      338.199       10.689      865.770
10/14/2013  20:24:00     -133.417       -0.233      -11.639       41.316       38.467       21.866     1707.052     1479.726      478.103        1.080        0.183      133.417       18.077        0.018      338.157       10.617      865.791
10/14/2013  20:25:00     -122.601       42.521      -20.474       53.665       44.997       33.195     2879.961     2024.764     1101.938        1.163        0.300      129.765       22.569        0.030      338.206       10.699      865.805
10/14/2013  20:26:00     -130.322       59.152      -16.564       38.396       43.402       28.609     1474.283     1883.737      818.463        1.247        0.209      143.118       19.608        0.019      338.256       10.784      865.817
10/14/2013  20:27:00      -88.579       65.863      -15.429       35.726       51.094       24.747     1276.329     2610.633      612.415        0.846        0.225      110.382       18.605        0.028      338.217       10.717      865.838
10/14/2013  20:28:00      -81.417       77.645      -14.384       28.304       63.454       24.839      801.127     4026.431      616.985        0.915        0.272      112.505       21.128        0.035      338.240       10.757      865.834
10/14/2013  20:29:00     -107.832       64.272      -19.992       28.274       38.142       22.104      799.403     1454.781      488.568        0.945        0.137      125.534       12.904        0.011      338.250       10.773      865.843
10/14/2013  20:30:00      -83.217       28.829       -9.897       35.632       52.081       20.887     1269.604     2712.394      436.268        0.614        0.221       88.070       13.247        0.023      338.188       10.669      865.845
10/14/2013  20:31:00      -56.546       17.756      -10.396       33.779       40.673       23.805     1140.989     1654.263      566.685        0.349        0.168       59.269       11.681        0.039      338.163       10.628      865.847
10/14/2013  20:32:00      -45.636       17.688       -8.766       18.089       16.909       14.537      327.228      285.931      211.337        0.165        0.041       48.944        9.479        0.038      338.203       10.695      865.861
10/14/2013  20:33:00      -63.313       17.555      -16.265       18.542       17.815       14.721      343.821      317.382      216.722        0.273        0.044       65.702        8.783        0.018      338.194       10.680      865.864
10/14/2013  20:34:00      -64.771       48.145      -10.941       41.789       30.943       25.359     1746.317      957.490      643.071        0.499        0.167       80.705       22.813        0.080      338.127       10.567      865.878
10/14/2013  20:35:00      -17.942       34.523       -2.516       31.827       39.468       24.134     1012.987     1557.688      582.431        0.234        0.158       38.907       27.538        0.501      338.133       10.578      865.893
10/14/2013  20:36:00      -92.197       67.515      -18.357       32.994       42.353       20.981     1088.585     1793.751      440.196        0.836        0.166      114.274       10.984        0.009      338.218       10.720      865.900
10/14/2013  20:37:00      -82.190       -8.706       -5.821       31.118       29.101       17.796      968.316      846.882      316.681        0.450        0.107       82.649       15.109        0.033      338.180       10.656      865.921
10/14/2013  20:38:00      -65.904      -10.409      -10.836       31.478       24.366       17.733      990.846      593.696      314.459        0.323        0.095       66.720       14.576        0.048      338.166       10.632      865.933
10/14/2013  20:39:00      -59.075        5.552       -5.260       24.332       41.906       16.508      592.055     1756.138      272.500        0.308        0.131       59.335       13.104        0.049      338.138       10.586      865.950
10/14/2013  20:40:00     -116.008       27.675      -26.414       45.457       40.782       23.562     2066.341     1663.155      555.187        0.960        0.214      119.264       22.864        0.037      338.118       10.551      865.969
10/14/2013  20:41:00     -110.232       72.044      -20.875       39.756       42.630       23.108     1580.510     1817.336      533.994        1.085        0.197      131.687       25.100        0.036      338.143       10.593      865.981
10/14/2013  20:42:00      -87.114       18.602       -7.161       41.500       27.992       18.669     1722.236      783.540      348.544        0.542        0.143       89.078       14.116        0.025      338.168       10.637      865.995
10/14/2013  20:43:00      -70.431       15.302      -16.168       26.985       30.949       23.295      728.201      957.819      542.644        0.384        0.111       72.074       19.030        0.070      338.086       10.497      866.008
10/14/2013  20:44:00      -85.205      -27.639       -8.074       22.863       19.896       16.947      522.735      395.870      287.213        0.465        0.060       89.576        9.811        0.012      338.138       10.585      866.013
10/14/2013  20:45:00      -76.209        4.811       -9.683       60.681       57.738       29.794     3682.154     3333.702      887.679        0.691        0.395       76.361       17.548        0.053      338.128       10.568      866.041
10/14/2013  20:46:00      -72.738       28.515      -12.302       28.341       55.648       16.798      803.200     3096.647      282.173        0.522        0.209       78.127        7.379        0.009      338.087       10.501      866.053
10/14/2013  20:47:00      -81.332       42.623      -17.678       27.046       46.974       17.639      731.467     2206.558      311.135        0.600        0.162       91.824       23.329        0.065      338.149       10.604      866.053
10/14/2013  20:48:00      -87.545       24.448      -11.626       28.961       31.715       16.930      838.717     1005.823      286.624        0.526        0.107       90.895       13.656        0.023      338.187       10.669      866.046
10/14/2013  20:49:00      -77.378       13.404        1.571       42.621       28.624       20.210     1816.566      819.324      408.463        0.461        0.152       78.530       22.698        0.084      338.177       10.651      866.034
10/14/2013  20:50:00      -52.311        9.850       -9.801       18.259       26.625       16.057      333.395      708.874      257.815        0.211        0.065       53.230       12.523        0.055      338.069       10.469      866.037
10/14/2013  20:51:00      -67.911      -14.412       -4.952       25.110       21.056       16.639      630.524      443.342      276.867        0.310        0.068       69.423       10.117        0.021      338.069       10.471      866.043
10/14/2013  20:52:00      -38.847       49.688      -16.951       38.779       34.796       18.593     1503.775     1210.790      345.681        0.366        0.153       63.071       19.718        0.098      338.127       10.569      866.041
10/14/2013  20:53:00      -65.394       35.627      -12.125       30.598       31.405       20.493      936.246      986.254      419.976        0.402        0.117       74.470       10.644        0.020      338.070       10.472      866.043
10/14/2013  20:54:00      -84.011       61.032      -16.467       43.789       59.877       26.838     1917.501     3585.214      720.256        0.864        0.311      103.840       26.419        0.065      338.113       10.544      866.051
10/14/2013  20:55:00      -79.356       71.257       -6.963       35.989       39.016       23.850     1295.174     1522.213      568.834        0.740        0.169      106.653       16.761        0.025      338.063       10.460      866.048
10/14/2013  20:56:00      -74.654       94.120      -16.769       41.446       37.359       28.094     1717.751     1395.724      789.282        0.931        0.195      120.133       23.646        0.039      338.057       10.451      866.052
10/14/2013  20:57:00      -87.078       88.795      -24.465       34.468       33.541       18.349     1188.070     1124.976      336.700        0.936        0.132      124.367       12.434        0.010      338.104       10.529      866.060
10/14/2013  20:58:00     -104.038       68.370      -17.249       56.147       57.088       31.053     3152.531     3259.056      964.306        1.158        0.369      124.492       39.606        0.101      338.095       10.513      866.062
10/14/2013  20:59:00      -85.447       86.100      -24.806       31.561       48.933       23.595      996.096     2394.441      556.702        0.964        0.197      121.303       25.960        0.046      338.048       10.434      866.059
10/14/2013  21:00:00      -51.997      102.569      -19.674       20.449       31.844       20.483      418.180     1014.063      419.568        0.773        0.093      114.996       15.825        0.019      338.074       10.477      866.070
10/14/2013  21:01:00      -81.675      110.992      -16.310       46.101       69.220       32.344     2125.309     4791.426     1046.104        1.361        0.398      137.805       34.170        0.061      338.061       10.454      866.084
10/14/2013  21:02:00      -63.361      106.344      -14.820       42.516       41.722       24.877     1807.647     1740.763      618.865        0.985        0.208      123.788       22.855        0.034      338.092       10.508      866.076
10/14/2013  21:03:00      -59.184      135.706      -27.727       42.481       28.275       27.590     1804.632      799.478      761.193        1.303        0.168      148.051       16.928        0.013      338.134       10.578      866.083
10/14/2013  21:04:00      -36.472      104.399      -13.429       37.794       38.842       24.285     1428.376     1508.710      589.761        0.797        0.176      110.586       20.842        0.036      338.102       10.525      866.074
10/14/2013  21:05:00      -51.803       75.016      -10.926       37.545       34.982       17.757     1409.631     1223.729      315.302        0.569        0.147       91.164       20.149        0.049      338.054       10.447      866.064
10/14/2013  21:06:00      -52.254       57.390      -11.562       29.634       24.148       12.736      878.190      583.105      162.202        0.389        0.081       77.615       15.796        0.041      338.078       10.485      866.066
10/14/2013  21:07:00      -26.519       53.806      -11.678       29.758       27.292       11.593      885.530      744.838      134.393        0.275        0.088       59.986       11.204        0.035      338.084       10.493      866.071
10/14/2013  21:08:00      -45.166       64.510      -11.475       23.903       30.888       17.011      571.357      954.056      289.387        0.407        0.091       78.750       15.619        0.039      338.095       10.514      866.061
10/14/2013  21:09:00       -6.931       13.501        2.914       17.359       22.761       11.811      301.333      518.048      139.510        0.060        0.048       15.176        7.601        0.251      337.949       10.269      866.068
10/14/2013  21:10:00      -13.717       43.787       -8.957       15.939       13.743        8.152      254.053      188.879       66.448        0.135        0.025       45.885        6.897        0.023      337.961       10.288      866.072
10/14/2013  21:11:00      -36.918       19.472       -6.379       20.787       16.307       13.506      432.113      265.918      182.404        0.133        0.044       41.739       10.116        0.059      337.980       10.322      866.069
10/14/2013  21:12:00      -14.836       29.795       -7.571       28.011       27.556       18.831      784.640      759.308      354.606        0.153        0.095       33.284       14.504        0.190      337.936       10.247      866.079
10/14/2013  21:13:00     -101.043       88.394      -24.618       42.469       34.224       20.359     1803.624     1171.257      414.478        1.101        0.169      134.251       21.480        0.026      338.012       10.374      866.068
10/14/2013  21:14:00      -83.528       89.234      -20.058       44.189       67.036       22.341     1952.695     4493.787      499.112        1.114        0.347      122.228       12.248        0.010      337.981       10.323      866.061
10/14/2013  21:15:00      -61.877       84.306      -11.067       31.758       45.664       25.902     1008.552     2085.157      670.939        0.741        0.188      104.576       20.707        0.039      337.914       10.211      866.082
10/14/2013  21:16:00      -88.607       71.518      -18.713       45.451       41.821       26.212     2065.770     1749.018      687.089        0.891        0.225      113.868       27.913        0.060      337.984       10.328      866.099
10/14/2013  21:17:00     -114.782      105.671      -29.902       41.083       35.262       21.844     1687.792     1243.396      477.151        1.432        0.170      156.017       19.088        0.015      337.980       10.321      866.098
10/14/2013  21:18:00      -90.782       49.004       -8.557       37.404       36.619       23.795     1399.034     1340.956      566.208        0.701        0.165      103.164       19.476        0.036      337.952       10.274      866.110
10/14/2013  21:19:00     -118.287      119.440      -37.705       41.169       51.679       24.740     1694.892     2670.680      612.044        1.733        0.249      168.100       21.992        0.017      337.983       10.324      866.118
10/14/2013  21:20:00     -115.111       84.027      -13.141       48.802       43.313       32.723     2381.683     1876.040     1070.808        1.291        0.266      142.517       20.822        0.021      338.028       10.401      866.126
10/14/2013  21:21:00      -57.913      104.528       -7.308       38.129       47.496       31.832     1453.829     2255.862     1013.306        0.953        0.236      119.499       26.219        0.048      337.930       10.236      866.146
10/14/2013  21:22:00      -68.232       71.378       -7.077       52.982       33.597       24.565     2807.142     1128.754      603.462        0.717        0.227       98.744       25.259        0.065      338.009       10.371      866.147
10/14/2013  21:23:00      -57.089       52.355       -3.215       36.022       18.295       18.951     1297.605      334.711      359.141        0.400        0.100       77.461        7.835        0.010      337.984       10.327      866.141
10/14/2013  21:24:00      -70.928       35.019      -10.902       23.724       22.779       13.619      562.820      518.871      185.473        0.382        0.063       79.102       10.228        0.017      337.991       10.339      866.150
10/14/2013  21:25:00      -25.132        4.030       -4.615       25.609       15.244        7.573      655.823      232.364       57.345        0.081        0.047       25.453        5.378        0.045      337.953       10.274      866.156
10/14/2013  21:26:00      -24.303        7.929       -1.033       30.617       25.630       14.715      937.376      656.906      216.543        0.123        0.091       25.563       15.217        0.354      337.979       10.319      866.158
10/14/2013  21:27:00      -55.371       31.321      -18.438       43.015       27.765       20.352     1850.325      770.875      414.184        0.371        0.152       63.615       22.122        0.121      338.056       10.448      866.172
10/14/2013  21:28:00        3.213      -19.392       -2.596       11.072        8.935        9.128      122.600       79.831       83.318        0.034        0.014       19.656        7.109        0.131      338.033       10.409      866.185
10/14/2013  21:29:00       13.707      -54.577      -14.235       19.706       23.537       12.636      388.321      553.992      159.673        0.224        0.055       56.272        9.076        0.026      338.053       10.444      866.187
10/14/2013  21:30:00       51.228      -84.951      -24.756       25.808       32.718       27.508      666.036     1070.481      756.712        0.647        0.125       99.202       18.564        0.035      337.915       10.211      866.187
10/14/2013  21:31:00       87.156      -71.741       -5.251       35.058       43.893       29.940     1229.085     1926.604      896.408        0.841        0.203      112.884       25.743        0.052      337.745        9.927      866.203
10/14/2013  21:32:00       74.549      -60.727       -2.275       45.092       57.704       34.026     2033.333     3329.801     1157.740        0.788        0.326       96.152       36.882        0.147      337.621        9.718      866.203
10/14/2013  21:33:00       79.889      -84.890      -20.713       38.725       51.566       31.109     1499.633     2659.032      967.766        0.957        0.256      116.570       32.850        0.079      337.496        9.509      866.196
10/14/2013  21:34:00        3.782      -87.471      -19.203       34.957       40.313       23.353     1221.994     1625.113      545.362        0.571        0.170       87.553       16.594        0.036      337.641        9.752      866.193
10/14/2013  21:35:00        7.020      -22.642        5.670       20.284       16.611       21.961      411.454      275.930      482.287        0.088        0.058       23.705       12.909        0.297      337.618        9.714      866.206
10/14/2013  21:36:00       -8.349      -40.465        2.834       33.876       33.897       21.024     1147.565     1149.019      442.012        0.223        0.137       41.318       14.981        0.131      337.621        9.719      866.211
10/14/2013  21:37:00       -5.767      -21.177       -6.755       24.837       19.141       15.930      616.874      366.382      253.764        0.088        0.062       21.948       11.478        0.274      337.538        9.581      866.222
10/14/2013  21:38:00        8.387      -10.221      -15.831        9.962       16.940        7.465       99.235      286.951       55.719        0.043        0.022       13.222        6.415        0.235      337.448        9.429      866.240
10/14/2013  21:39:00      -45.852       -7.114        2.466       26.968       15.705       10.711      727.264      246.647      114.724        0.162        0.054       46.401        8.067        0.030      337.694        9.841      866.236
10/14/2013  21:40:00      -44.111        5.259       -6.581       29.045       31.119       16.799      843.633      968.383      282.211        0.206        0.105       44.423       17.954        0.163      337.860       10.119      866.229
10/14/2013  21:41:00      -23.883        2.736        5.126       16.497       20.490       12.358      272.167      419.853      152.723        0.072        0.042       24.040        5.487        0.052      337.841       10.088      866.238
10/14/2013  21:42:00      -48.981       23.312      -18.638       13.803       26.152        7.812      190.517      683.931       61.031        0.211        0.047       54.246        4.726        0.008      337.586        9.659      866.243
10/14/2013  21:43:00      -15.006      -30.580      -11.699       21.910       17.219        7.671      480.043      296.485       58.838        0.107        0.042       34.063        6.353        0.035      337.670        9.800      866.239
10/14/2013  21:44:00       18.620      -64.196      -18.244       19.572       18.483       14.867      383.079      341.630      221.040        0.287        0.047       66.842       10.696        0.026      337.531        9.567      866.244
10/14/2013  21:45:00       -7.398      -35.407      -15.124       31.106       28.425       15.571      967.609      808.009      242.462        0.178        0.101       36.172       17.148        0.225      337.603        9.687      866.258
10/14/2013  21:46:00      -53.558      -24.633        4.754       26.162       21.388       16.773      684.469      457.449      281.332        0.246        0.071       58.951       10.425        0.031      337.619        9.714      866.262
10/14/2013  21:47:00      -18.046      -20.077        1.587       22.691       20.846       14.339      514.874      434.564      205.618        0.094        0.058       26.995       10.404        0.149      337.515        9.540      866.254
10/14/2013  21:48:00      -39.165      -26.103        3.209       36.231       20.104       14.200     1312.653      404.155      201.650        0.207        0.096       47.067       10.502        0.050      337.460        9.449      866.251
10/14/2013  21:49:00      -38.938      -56.077       -3.889       28.594       27.017       20.590      817.590      729.922      423.961        0.332        0.099       68.270        8.984        0.017      337.447        9.426      866.261
10/14/2013  21:50:00      -35.911      -26.054       -3.023       29.850       23.389       14.486      891.036      547.065      209.842        0.181        0.082       44.367        7.239        0.027      337.425        9.390      866.268
10/14/2013  21:51:00      -31.811       -5.043       -9.108       14.933       10.177        9.941      223.006      103.569       98.831        0.077        0.021       32.208        7.260        0.051      337.486        9.491      866.277
10/14/2013  21:52:00      -22.310      -10.598       -5.601       10.629       12.769        7.179      112.968      163.052       51.541        0.048        0.016       24.699        4.285        0.030      337.527        9.561      866.299
10/14/2013  21:53:00      -36.649       -4.444       -4.567       13.876       10.462        6.356      192.548      109.445       40.394        0.086        0.017       36.917        3.085        0.007      337.553        9.605      866.309
10/14/2013  21:54:00      -48.070      -17.647       -4.786       10.965       10.490        6.846      120.228      110.045       46.861        0.146        0.014       51.207        3.869        0.006      337.571        9.635      866.310
10/14/2013  21:55:00      -53.350      -17.468       -5.933       11.688       12.817        6.672      136.602      164.271       44.511        0.177        0.017       56.137        3.831        0.005      337.535        9.575      866.310
10/14/2013  21:56:00      -33.507      -10.340        0.473       25.227        8.104        9.812      636.406       65.676       96.282        0.101        0.040       35.066       10.194        0.085      337.385        9.324      866.316
10/14/2013  21:57:00      -22.952       -9.326       -7.182       19.499       10.441        8.257      380.227      109.020       68.185        0.061        0.028       24.774        8.441        0.116      337.374        9.304      866.322
10/14/2013  21:58:00      -34.122        1.313       -4.451        7.372        6.281        6.060       54.342       39.454       36.723        0.066        0.007       34.147        3.644        0.011      337.393        9.337      866.326
10/14/2013  21:59:00      -34.310        7.499       -6.096       15.299        9.550        5.378      234.061       91.194       28.928        0.081        0.018       35.120        5.798        0.027      337.453        9.437      866.318
10/14/2013  22:00:00      -51.128      -16.110       -8.633       10.982       13.107        9.323      120.599      171.799       86.914        0.166        0.019       53.607        6.627        0.015      337.360        9.281      866.299
10/14/2013  22:01:00      -52.456      -42.744       -7.328        8.576       12.252        8.000       73.541      150.104       63.994        0.246        0.014       67.666        2.446        0.001      337.386        9.325      866.289
10/14/2013  22:02:00      -35.549      -33.904       -1.493       17.963       15.390       13.496      322.672      236.842      182.133        0.158        0.037       49.124       10.383        0.045      337.321        9.215      866.278
10/14/2013  22:03:00      -44.669      -27.522       -5.546       19.579       12.851       13.345      383.334      165.152      178.102        0.175        0.036       52.467        9.222        0.031      337.329        9.229      866.271
10/14/2013  22:04:00      -59.636      -13.563       -9.265       15.477       15.178        9.641      239.536      230.367       92.940        0.219        0.028       61.159        6.505        0.011      337.280        9.149      866.273
10/14/2013  22:05:00      -84.517      -16.497      -12.990        8.001       10.996        7.221       64.020      120.902       52.147        0.391        0.012       86.112        3.569        0.002      337.225        9.057      866.280
10/14/2013  22:06:00      -87.890        0.688      -12.862        8.152        8.027        8.592       66.459       64.438       73.823        0.405        0.010       87.893        2.304        0.001      337.275        9.140      866.279
10/14/2013  22:07:00      -80.047      -10.796       -9.366       14.338       12.669        8.206      205.588      160.505       67.335        0.352        0.022       80.771        5.913        0.005      337.186        8.992      866.277
10/14/2013  22:08:00      -54.938      -21.487       -4.491       15.232       13.334        7.661      232.021      177.797       58.697        0.198        0.023       58.990        4.792        0.007      337.130        8.896      866.273
10/14/2013  22:09:00      -50.385      -27.676       -7.565        9.841        9.737       10.692       96.846       94.813      114.313        0.183        0.015       57.486        5.825        0.010      337.125        8.886      866.274
10/14/2013  22:10:00      -46.303      -26.833      -12.478       14.075       12.269        8.343      198.104      150.535       69.603        0.172        0.021       53.516        6.659        0.015      337.179        8.978      866.268
10/14/2013  22:11:00      -52.515      -27.509      -12.784        5.373        5.895        6.715       28.865       34.746       45.097        0.189        0.005       59.284        2.325        0.002      337.131        8.899      866.255
10/14/2013  22:12:00      -74.954      -35.530      -11.229       14.446        9.989        8.987      208.694       99.788       80.773        0.370        0.019       82.949        5.788        0.005      337.068        8.793      866.246
10/14/2013  22:13:00      -94.987      -23.436      -10.232        8.584       10.252        7.258       73.687      105.099       52.681        0.495        0.012       97.836        2.472        0.001      336.968        8.622      866.249
10/14/2013  22:14:00      -93.733      -24.751      -13.351       13.328       12.015        9.278      177.640      144.360       86.075        0.499        0.020       96.946        4.974        0.003      336.936        8.571      866.260
10/14/2013  22:15:00      -78.506      -19.898      -13.898       12.888       16.710        9.276      166.113      279.215       86.038        0.364        0.027       80.989        7.380        0.008      336.950        8.595      866.261
10/14/2013  22:16:00      -69.118      -31.870      -10.779       10.318       13.359        9.486      106.454      178.452       89.977        0.314        0.019       76.112        6.353        0.007      336.897        8.506      866.259
10/14/2013  22:17:00      -72.596      -17.546      -10.500       14.528       14.844       10.986      211.048      220.343      120.683        0.312        0.028       74.686        9.732        0.017      336.843        8.417      866.262
10/14/2013  22:18:00      -64.878       -9.938      -11.109       12.303       17.794        9.940      151.373      316.609       98.812        0.250        0.028       65.635        7.571        0.013      336.887        8.490      866.269
10/14/2013  22:19:00      -63.396       -6.647      -16.159       15.664       13.658       11.061      245.345      186.532      122.335        0.244        0.028       63.744        9.777        0.024      336.963        8.616      866.262
10/14/2013  22:20:00      -66.777       -6.385      -16.293        8.596        9.182        7.519       73.898       84.313       56.538        0.249        0.011       67.081        4.196        0.004      336.999        8.674      866.247
10/14/2013  22:21:00      -69.757      -38.104      -12.458       15.509       19.709       16.872      240.543      388.456      284.659        0.369        0.046       79.486       12.964        0.027      336.865        8.453      866.245
10/14/2013  22:22:00      -92.627      -26.729      -15.495       18.966       13.677        8.258      359.722      187.053       68.190        0.507        0.031       96.406        7.261        0.006      336.730        8.230      866.246
10/14/2013  22:23:00      -73.743      -29.646       -9.594       19.808       16.867       11.930      392.356      284.498      142.317        0.361        0.041       79.479        8.837        0.012      336.776        8.306      866.245
10/14/2013  22:24:00      -76.133       -6.237      -11.512       21.453       16.817       13.008      460.216      282.812      169.216        0.344        0.046       76.388        9.247        0.015      336.718        8.210      866.247
10/14/2013  22:25:00      -54.979      -13.309       -4.460       22.498       17.911       13.668      506.173      320.812      186.821        0.212        0.051       56.567       12.639        0.050      336.698        8.175      866.263
10/14/2013  22:26:00      -77.958       -8.846      -14.400       13.746       15.562       10.309      188.959      242.173      106.278        0.345        0.027       78.459        5.675        0.005      336.692        8.166      866.277
10/14/2013  22:27:00      -85.755      -23.252      -20.778       16.168       17.690       13.713      261.389      312.926      188.058        0.454        0.038       88.851        7.226        0.007      336.693        8.167      866.268
10/14/2013  22:28:00      -68.121      -10.856       -7.501       20.066       16.181       15.296      402.628      261.839      233.956        0.286        0.045       68.981        9.163        0.018      336.698        8.176      866.264
10/14/2013  22:29:00      -78.702      -15.284      -22.968       17.543       22.493       18.863      307.755      505.946      355.799        0.406        0.058       80.172        6.103        0.006      336.688        8.159      866.278
10/14/2013  22:30:00      -35.715      -36.635      -11.312       27.157       24.241       16.702      737.526      587.621      278.954        0.217        0.080       51.163       11.108        0.047      336.717        8.207      866.277
10/14/2013  22:31:00      -50.718      -24.231       -3.023       25.129       17.691       12.579      631.491      312.968      158.233        0.214        0.055       56.209       10.171        0.033      336.663        8.118      866.276
10/14/2013  22:32:00      -61.150      -27.918      -11.925       18.357       12.655       13.004      336.976      160.156      169.100        0.266        0.033       67.222        6.574        0.010      336.770        8.295      866.272
10/14/2013  22:33:00      -62.050      -29.086      -15.709       12.210       14.599       10.753      149.096      213.139      115.636        0.271        0.024       68.529        8.421        0.015      336.579        7.977      866.269
10/14/2013  22:34:00      -44.893      -29.339       -9.893       20.312       14.782       12.211      412.557      218.511      149.111        0.188        0.039       53.630        9.221        0.030      336.539        7.909      866.272
10/14/2013  22:35:00      -40.955      -21.850      -14.754       22.243       15.316       13.193      494.753      234.569      174.052        0.164        0.045       46.420        8.541        0.034      336.614        8.035      866.297
10/14/2013  22:36:00      -69.567      -35.437      -11.897       17.965       16.059       12.804      322.747      257.906      163.933        0.349        0.037       78.073       10.322        0.017      336.703        8.183      866.304
10/14/2013  22:37:00      -82.265      -27.474      -18.409       10.067       10.605        7.484      101.346      112.470       56.005        0.407        0.013       86.731        4.596        0.003      336.588        7.992      866.294
10/14/2013  22:38:00     -103.857       -4.892      -16.251       20.107       16.285       12.935      404.281      265.197      167.326        0.596        0.042      103.972        6.886        0.004      336.558        7.940      866.301
10/14/2013  22:39:00      -82.519      -38.799       -7.559       13.783       19.751       15.411      189.967      390.109      237.506        0.459        0.041       91.185       10.573        0.013      336.452        7.762      866.296
10/14/2013  22:40:00      -97.393      -34.777       -9.325       22.216       32.054       16.428      493.553     1027.480      269.877        0.629        0.090      103.416       19.736        0.036      336.435        7.734      866.284
10/14/2013  22:41:00      -75.262      -17.062      -13.152       23.822       14.716       10.402      567.472      216.566      108.206        0.351        0.045       77.172        7.999        0.011      336.474        7.799      866.286
10/14/2013  22:42:00      -48.190      -26.797      -11.887       12.445       16.354       15.829      154.879      267.453      250.571        0.193        0.034       55.139        6.035        0.012      336.456        7.769      866.313
10/14/2013  22:43:00      -63.393      -18.390       -3.807       27.200       14.355       16.129      739.860      206.054      260.131        0.279        0.060       66.006       16.932        0.066      336.352        7.595      866.323
10/14/2013  22:44:00      -95.508      -15.783       -7.643       23.754       20.691       16.601      564.244      428.111      275.578        0.535        0.063       96.804       13.346        0.019      336.332        7.563      866.324
10/14/2013  22:45:00     -106.690       -8.848      -14.441       21.236       17.563       13.177      450.958      308.455      173.627        0.630        0.047      107.057        9.620        0.008      336.314        7.533      866.339
10/14/2013  22:46:00      -85.638       -3.085      -16.851       34.195       19.101       15.713     1169.326      364.853      246.889        0.470        0.089       85.693       15.126        0.031      336.227        7.387      866.347
10/14/2013  22:47:00      -88.066      -16.207      -19.041       27.255       19.481       17.824      742.814      379.495      317.681        0.491        0.072       89.544       11.188        0.016      336.160        7.274      866.351
10/14/2013  22:48:00      -71.664      -35.473       -9.940       26.652       21.273       13.491      710.334      452.531      181.996        0.392        0.067       79.963        9.193        0.013      336.149        7.257      866.354
10/14/2013  22:49:00      -39.599      -16.322      -10.303       17.556       12.973       12.663      308.221      168.291      160.363        0.129        0.032       42.831        8.202        0.037      336.224        7.381      866.379
10/14/2013  22:50:00      -40.170        1.373       -3.717       35.008       19.668       16.572     1225.593      386.824      274.615        0.176        0.094       40.194        7.079        0.031      336.276        7.469      866.371
10/14/2013  22:51:00      -85.400       -7.421      -18.618       18.135       22.851       13.241      328.868      522.191      175.332        0.436        0.051       85.722        9.967        0.014      336.230        7.392      866.356
10/14/2013  22:52:00      -63.584       25.874      -14.113       25.279       24.109       17.935      639.005      581.243      321.673        0.323        0.077       68.647       11.840        0.030      336.336        7.570      866.326
10/14/2013  22:53:00      -43.388       20.954       -7.665       15.590       16.402       11.796      243.040      269.013      139.154        0.152        0.033       48.183        9.734        0.041      336.467        7.789      866.301
10/14/2013  22:54:00      -10.323      -17.689        2.053       11.291       10.564        8.447      127.478      111.599       71.356        0.037        0.016       20.481        5.407        0.070      336.429        7.725      866.309
10/14/2013  22:55:00       -8.510      -21.522       -8.641       18.328       13.105       11.994      335.919      171.738      143.855        0.063        0.033       23.144        4.573        0.039      336.383        7.646      866.304
10/14/2013  22:56:00      -62.188      -39.828       -8.849       33.686       15.821       12.768     1134.767      250.306      163.012        0.354        0.077       73.849       15.311        0.043      336.232        7.396      866.303
10/14/2013  22:57:00      -78.743      -35.724      -19.697       15.623       19.785       14.558      244.086      391.443      211.929        0.436        0.042       86.467        3.960        0.002      336.180        7.308      866.312
10/14/2013  22:58:00     -121.902        1.612      -17.216       33.638       27.237       18.703     1131.493      741.857      349.799        0.869        0.111      121.912       15.995        0.017      336.134        7.232      866.306
10/14/2013  22:59:00      -96.736        2.372      -19.263       31.413       20.404       21.313      986.761      416.319      454.234        0.580        0.093       96.765       22.838        0.056      336.076        7.135      866.297
10/14/2013  23:00:00      -81.007        0.847      -19.077       23.882       20.580       19.393      570.340      423.557      376.106        0.415        0.069       81.012       15.021        0.034      336.169        7.290      866.305
10/14/2013  23:01:00      -75.779      -10.281      -12.490       27.911       26.570       20.322      779.019      705.974      412.980        0.395        0.095       76.473       17.138        0.050      336.103        7.179      866.305
10/14/2013  23:02:00      -62.960        6.465      -25.690       24.452       18.556       13.504      597.901      344.328      182.350        0.289        0.056       63.292       10.797        0.029      336.218        7.372      866.303
10/14/2013  23:03:00      -67.702       -6.764      -12.645       17.130       13.118       11.747      293.445      172.085      137.984        0.270        0.030       68.039        7.943        0.014      336.112        7.196      866.294
10/14/2013  23:04:00      -84.945       -6.705      -19.782       10.692       12.652       10.542      114.318      160.080      111.140        0.402        0.019       85.210        8.264        0.009      336.075        7.133      866.269
10/14/2013  23:05:00      -78.839      -11.358      -12.790       14.317       13.862       12.005      204.982      192.149      144.127        0.352        0.027       79.653        8.546        0.012      336.132        7.228      866.268
10/14/2013  23:06:00      -76.573      -13.609      -12.463       15.404       17.864       11.702      237.270      319.133      136.927        0.345        0.035       77.773        8.614        0.012      336.123        7.212      866.266
10/14/2013  23:07:00      -73.744       -9.019      -17.695       19.126       14.166       11.232      365.799      200.689      126.150        0.326        0.035       74.294        8.063        0.012      336.117        7.203      866.254
10/14/2013  23:08:00      -67.732      -10.046       -8.489       23.804       16.673       13.206      566.617      277.986      174.397        0.289        0.051       68.473       11.147        0.027      336.086        7.150      866.275
10/14/2013  23:09:00      -56.226      -10.479       -7.822       31.687       16.826       13.644     1004.057      283.116      186.155        0.240        0.074       57.194       13.171        0.053      336.018        7.038      866.287
10/14/2013  23:10:00      -60.470       -2.143       -3.629       26.276       14.107       12.947      690.446      199.009      167.631        0.237        0.053       60.508       13.282        0.048      336.046        7.084      866.296
10/14/2013  23:11:00      -85.283        2.934      -16.646       20.381       16.148       12.062      415.405      260.747      145.495        0.419        0.041       85.333        7.696        0.008      336.025        7.049      866.298
10/14/2013  23:12:00      -82.985       -8.100      -23.402       16.515       14.317       12.993      272.738      204.964      168.830        0.407        0.032       83.379        5.965        0.005      336.071        7.126      866.296
10/14/2013  23:13:00      -81.508        5.152      -19.346       15.487       12.737       11.314      239.855      162.221      128.014        0.379        0.027       81.671       10.819        0.018      336.038        7.072      866.284
10/14/2013  23:14:00      -83.008       10.491      -19.073       11.274       13.218       11.962      127.100      174.719      143.079        0.390        0.022       83.668        7.482        0.008      336.037        7.069      866.266
10/14/2013  23:15:00      -60.286        1.856      -12.880       17.875       13.252        8.407      319.502      175.609       70.673        0.218        0.028       60.315        8.391        0.019      336.117        7.201      866.267
10/14/2013  23:16:00      -54.743       -4.537       -9.114       15.853       13.337       13.312      251.311      177.888      177.218        0.185        0.030       54.931        7.764        0.020      336.001        7.009      866.265
10/14/2013  23:17:00      -69.531       -8.022      -17.240       16.003       12.853        9.965      256.085      165.197       99.307        0.286        0.026       69.992        6.229        0.008      335.965        6.949      866.265
10/14/2013  23:18:00      -53.666      -17.359       -9.588       11.669       15.471       10.422      136.176      239.359      108.627        0.188        0.024       56.404        8.192        0.021      336.045        7.083      866.270
10/14/2013  23:19:00      -23.589      -15.178       -6.148       13.720       13.221        8.964      188.242      174.802       80.345        0.063        0.022       28.051        7.713        0.076      336.420        7.711      866.266
10/14/2013  23:20:00      -34.538      -20.020       -9.978       20.541        9.619        8.791      421.941       92.521       77.290        0.114        0.030       39.921        7.136        0.032      336.068        7.121      866.265
10/14/2013  23:21:00      -10.399      -13.976        7.677       11.560       13.241        9.399      133.632      175.314       88.341        0.038        0.020       17.420        3.509        0.041      336.186        7.318      866.265
10/14/2013  23:22:00      -24.400      -14.707       -3.007       21.597       10.953        9.602      466.424      119.959       92.190        0.075        0.034       28.490        4.418        0.024      335.977        6.970      866.275
10/14/2013  23:23:00      -41.421      -27.548      -11.133       18.457       13.369        8.839      340.657      178.738       78.126        0.160        0.030       49.745        5.771        0.013      336.055        7.098      866.290
10/14/2013  23:24:00      -68.095      -25.787      -11.384       11.838       13.612        9.353      140.132      185.292       87.484        0.292        0.021       72.814        5.336        0.005      336.066        7.119      866.269
10/14/2013  23:25:00      -82.558      -20.191      -15.561        8.074       13.389        6.610       65.192      179.257       43.689        0.388        0.014       84.991        5.364        0.004      335.930        6.892      866.271
10/14/2013  23:26:00      -84.609      -13.398      -13.337       12.468       11.857        7.145      155.454      140.584       51.054        0.393        0.017       85.663        4.617        0.003      335.921        6.877      866.270
10/14/2013  23:27:00      -73.809      -21.521      -16.230        8.558        7.457        5.938       73.233       55.611       35.255        0.317        0.008       76.883        3.004        0.002      335.893        6.832      866.254
10/14/2013  23:28:00      -60.077      -25.594      -18.884        9.199       10.206        7.615       84.617      104.162       57.991        0.243        0.012       65.302        3.085        0.002      335.945        6.917      866.235
10/14/2013  23:29:00      -72.491      -30.131      -16.666       14.448       15.129        9.190      208.756      228.883       84.456        0.348        0.026       78.503        6.473        0.007      335.963        6.946      866.234
10/14/2013  23:30:00      -90.373      -12.381      -17.954       18.404       11.328       12.646      338.694      128.323      159.916        0.463        0.031       91.217        9.630        0.011      335.927        6.886      866.242
10/14/2013  23:31:00      -58.953      -13.659       -7.327       13.154       10.962        9.792      173.036      120.163       95.885        0.205        0.019       60.514        6.056        0.010      335.895        6.833      866.253
10/14/2013  23:32:00      -40.845      -16.305       -4.890       14.639       12.265        8.973      214.309      150.418       80.521        0.120        0.022       43.979        6.003        0.019      335.883        6.815      866.256
10/14/2013  23:33:00        8.302      -18.001       -3.904        9.789        8.724       11.151       95.830       76.100      124.334        0.035        0.015       19.823        5.872        0.088      336.025        7.049      866.262
10/14/2013  23:34:00      -16.030       -8.510       -7.277       15.329        9.499        9.700      234.979       90.223       94.098        0.040        0.021       18.149        8.871        0.239      336.117        7.201      866.261
10/14/2013  23:35:00        8.546      -18.829       -4.221       14.002        8.920        5.169      196.049       79.569       26.718        0.037        0.015       20.677        4.987        0.058      336.210        7.355      866.243
10/14/2013  23:36:00       17.498      -51.109      -11.246       16.958       17.650       13.113      287.567      311.528      171.958        0.191        0.039       54.021        4.649        0.007      336.054        7.096      866.214
10/14/2013  23:37:00       -8.653      -20.667       -2.727       18.653       14.904       13.896      347.953      222.124      193.086        0.064        0.038       22.405       10.748        0.230      335.844        6.748      866.198
10/14/2013  23:38:00       -7.161      -19.297        2.504       15.101       11.929       12.154      228.031      142.300      147.715        0.047        0.026       20.583        9.323        0.205      335.723        6.547      866.209
10/14/2013  23:39:00        5.630      -67.115      -12.530       32.912       26.210       12.569     1083.225      686.975      157.982        0.331        0.096       67.351       13.238        0.039      335.981        6.976      866.210
10/14/2013  23:40:00      -39.836      -31.881        1.256       42.073       20.072       19.981     1770.141      402.875      399.232        0.259        0.129       51.023       16.339        0.103      335.967        6.953      866.208
10/14/2013  23:41:00       -2.511       -1.235        1.497       10.184       12.171       10.743      103.719      148.124      115.418        0.019        0.018        2.799        5.128        3.358      335.770        6.625      866.201
10/14/2013  23:42:00      -11.026       -2.254        1.486        7.593        6.754        6.801       57.649       45.618       46.254        0.014        0.007       11.254        4.253        0.143      335.857        6.771      866.210
10/14/2013  23:43:00      -15.280      -41.432       15.023       16.674       21.716       20.625      278.017      471.564      425.402        0.168        0.059       44.160        9.801        0.049      335.742        6.579      866.207
10/14/2013  23:44:00       -6.561      -44.050       -7.263       18.968       36.389       19.969      359.776     1324.192      398.751        0.206        0.104       44.536       16.230        0.133      335.871        6.793      866.193
10/14/2013  23:45:00       -0.711      -28.327        3.215       40.047       27.675       19.406     1603.752      765.911      376.611        0.178        0.137       28.336       11.297        0.159      335.805        6.684      866.182
10/14/2013  23:46:00      -55.608      -56.435        6.931       47.923       35.970       26.428     2296.623     1293.836      698.420        0.531        0.214       79.228       24.350        0.094      335.607        6.353      866.180
10/14/2013  23:47:00      -73.336      -43.812       -6.590       38.271       36.212       22.292     1464.697     1311.304      496.940        0.531        0.164       85.426       13.048        0.023      335.631        6.395      866.192
10/14/2013  23:48:00     -109.294      -54.413       -4.502       43.284       32.855       22.919     1873.484     1079.473      525.280        0.920        0.174      122.090       22.073        0.033      335.566        6.286      866.187
10/14/2013  23:49:00      -57.852      -30.121       11.542       35.415       20.204       21.405     1254.257      408.201      458.193        0.325        0.106       65.224       18.874        0.084      335.577        6.303      866.187
10/14/2013  23:50:00      -97.664       -8.800      -12.966       11.243       13.195       10.635      126.408      174.113      113.106        0.510        0.021       98.059        2.595        0.001      335.612        6.363      866.189
10/14/2013  23:51:00      -86.505      -27.663      -10.239       18.093       13.995        9.301      327.359      195.858       86.512        0.448        0.030       90.820        7.247        0.006      335.648        6.422      866.189
10/14/2013  23:52:00      -79.732      -16.938      -14.303       17.426       10.561        9.160      303.676      111.538       83.901        0.367        0.025       81.511        4.777        0.003      335.739        6.574      866.189
10/14/2013  23:53:00      -62.741       -1.485      -12.859       12.570       10.061        8.079      157.994      101.232       65.269        0.221        0.016       62.758        5.455        0.008      335.676        6.470      866.195
10/14/2013  23:54:00      -67.829      -10.417       -9.574       15.906       11.079       10.467      253.016      122.734      109.564        0.264        0.024       68.625        7.840        0.013      335.697        6.505      866.224
10/14/2013  23:55:00      -66.685       -8.789       -7.207       13.635        9.818        7.132      185.900       96.400       50.865        0.245        0.017       67.262        4.088        0.004      335.697        6.504      866.239
10/14/2013  23:56:00      -56.418      -15.809       -9.195       17.682       10.194        7.174      312.650      103.925       51.464        0.199        0.023       58.591        4.280        0.005      335.754        6.600      866.254
10/14/2013  23:57:00      -51.456      -13.974        1.026       40.691       18.719       13.800     1655.746      350.415      190.430        0.252        0.110       53.319       20.917        0.154      335.677        6.472      866.252
10/14/2013  23:58:00      -48.345      -32.006        0.382       31.630       15.131       16.214     1000.428      228.932      262.893        0.243        0.075       57.980       18.998        0.107      335.671        6.461      866.265
10/14/2013  23:59:00      -76.123      -29.361       -9.347        9.559       13.218        9.409       91.383      174.716       88.523        0.355        0.018       81.589        7.841        0.009      335.589        6.324      866.273
